[[{"header":{"parameterUnit":"m.s-1","parameterCategory":1,"la1":30.6,"la2":29.2853,"lo1":-89.7004,"lo2":-87.6739,"dx":0.0162,"dy":0.0183,"nx":112,"ny":82,"refTime":"2022-12-25T18:00:00:Z","depth":0,"parameterNumber":2,"parameterNumberName":"U-component_of_WINDS"},"data":[0.0,0.0,0.0,0.0,0.0,0.0,0.0,0.0,0.0,0.0,0.0,0.0,0.0,0.0,0.0,0.0,0.0,0.0,0.0,0.0,0.0,0.0,0.0,0.0,0.0,0.0,0.0,0.0,0.0,0.0,0.0,0.0,0.0,0.0,0.0,0.0,0.0,0.0,0.0,0.0,0.0,0.0,0.0,0.0,0.0,0.0,0.0,0.0,0.0,0.0,0.0,0.0,0.0,0.0,0.0,0.0,0.0,0.0,0.0,0.0,0.0,0.0,0.0,0.0,0.0,0.0,0.0,0.0,0.0,0.0,0.0,0.0,0.0,0.0,0.0,0.0,0.0,0.0,0.0,0.0,0.0,0.0,0.0,0.0,0.0,0.0,0.0,0.0,0.0,0.0,0.0,-3.9873,-3.9408,-3.9043,-3.9043,-3.9127,-3.8143,-3.5639,0.0,0.0,0.0,0.0,0.0,0.0,0.0,0.0,0.0,0.0,0.0,0.0,0.0,0.0,0.0,0.0,0.0,0.0,0.0,0.0,0.0,0.0,0.0,0.0,0.0,0.0,0.0,0.0,0.0,0.0,0.0,0.0,0.0,0.0,0.0,0.0,0.0,0.0,0.0,0.0,0.0,0.0,0.0,0.0,0.0,0.0,0.0,0.0,0.0,0.0,0.0,0.0,0.0,0.0,0.0,0.0,0.0,0.0,0.0,0.0,0.0,0.0,0.0,0.0,0.0,0.0,0.0,0.0,0.0,0.0,0.0,0.0,0.0,0.0,0.0,0.0,0.0,0.0,0.0,0.0,0.0,0.0,0.0,0.0,0.0,0.0,0.0,0.0,0.0,0.0,0.0,0.0,0.0,0.0,0.0,0.0,0.0,0.0,0.0,0.0,0.0,0.0,0.0,0.0,-4.0463,-4.0547,-4.0013,-3.9648,-3.9648,-4.0126,-3.9367,-3.6866,0.0,0.0,0.0,0.0,0.0,0.0,0.0,0.0,0.0,0.0,0.0,0.0,0.0,0.0,0.0,0.0,0.0,0.0,0.0,0.0,0.0,0.0,0.0,0.0,0.0,0.0,0.0,0.0,0.0,0.0,0.0,0.0,0.0,0.0,0.0,0.0,0.0,0.0,0.0,0.0,0.0,0.0,0.0,0.0,0.0,0.0,0.0,0.0,0.0,0.0,0.0,0.0,0.0,0.0,0.0,0.0,0.0,0.0,0.0,0.0,0.0,0.0,0.0,0.0,0.0,0.0,0.0,0.0,0.0,0.0,0.0,0.0,0.0,0.0,0.0,0.0,0.0,0.0,0.0,0.0,0.0,0.0,0.0,0.0,0.0,0.0,0.0,0.0,0.0,0.0,0.0,0.0,0.0,0.0,0.0,0.0,0.0,0.0,0.0,0.0,0.0,0.0,0.0,-3.9895,-4.0099,-4.0645,-3.9979,-3.9345,-3.9014,-3.9408,-3.83,-3.509,-3.4794,0.0,0.0,0.0,0.0,0.0,0.0,0.0,0.0,0.0,0.0,0.0,0.0,0.0,0.0,0.0,0.0,0.0,0.0,0.0,0.0,0.0,0.0,0.0,0.0,0.0,0.0,0.0,0.0,0.0,0.0,0.0,0.0,0.0,0.0,0.0,0.0,0.0,0.0,0.0,0.0,0.0,0.0,0.0,0.0,0.0,0.0,0.0,0.0,0.0,0.0,0.0,0.0,0.0,0.0,0.0,0.0,0.0,0.0,0.0,0.0,0.0,0.0,0.0,0.0,0.0,0.0,0.0,0.0,0.0,0.0,0.0,0.0,0.0,0.0,0.0,0.0,0.0,0.0,0.0,0.0,0.0,0.0,0.0,0.0,0.0,0.0,0.0,0.0,0.0,0.0,0.0,0.0,0.0,0.0,0.0,0.0,0.0,0.0,0.0,0.0,0.0,0.0,-3.9502,-3.9203,-4.0118,-3.9407,-3.872,-3.8424,-3.8488,-3.7052,-3.3519,-3.356,0.0,0.0,0.0,0.0,0.0,0.0,0.0,0.0,0.0,0.0,0.0,0.0,0.0,0.0,0.0,0.0,0.0,0.0,0.0,0.0,0.0,0.0,0.0,0.0,0.0,0.0,0.0,0.0,0.0,0.0,0.0,0.0,0.0,0.0,0.0,0.0,0.0,0.0,0.0,0.0,0.0,0.0,0.0,0.0,0.0,0.0,0.0,0.0,0.0,0.0,0.0,0.0,0.0,0.0,0.0,0.0,0.0,0.0,0.0,0.0,0.0,0.0,0.0,0.0,0.0,0.0,0.0,0.0,0.0,0.0,0.0,0.0,0.0,0.0,0.0,0.0,0.0,0.0,0.0,0.0,0.0,0.0,0.0,0.0,0.0,0.0,0.0,0.0,0.0,0.0,0.0,0.0,0.0,0.0,0.0,0.0,0.0,0.0,0.0,0.0,0.0,0.0,-3.845,-3.8096,-3.8693,-3.8227,-3.8096,-3.8548,-3.8129,-3.6731,-3.4105,-3.3959,0.0,0.0,0.0,0.0,0.0,0.0,0.0,0.0,0.0,0.0,0.0,0.0,0.0,0.0,0.0,0.0,0.0,0.0,0.0,0.0,0.0,0.0,0.0,0.0,0.0,0.0,0.0,0.0,0.0,0.0,0.0,0.0,0.0,0.0,0.0,0.0,0.0,0.0,0.0,0.0,0.0,0.0,0.0,0.0,0.0,0.0,0.0,0.0,0.0,0.0,0.0,0.0,0.0,0.0,0.0,0.0,0.0,0.0,0.0,0.0,0.0,0.0,0.0,0.0,0.0,0.0,0.0,0.0,0.0,0.0,0.0,0.0,0.0,0.0,0.0,0.0,0.0,0.0,0.0,0.0,0.0,0.0,0.0,0.0,0.0,0.0,0.0,0.0,0.0,0.0,0.0,0.0,0.0,0.0,0.0,0.0,0.0,0.0,0.0,0.0,0.0,0.0,-3.8129,-3.7672,0.0,-3.7865,-3.7588,-3.8148,-3.7191,-3.5734,-3.3692,0.0,0.0,0.0,0.0,0.0,0.0,0.0,0.0,0.0,0.0,0.0,0.0,0.0,0.0,0.0,0.0,0.0,0.0,0.0,0.0,0.0,0.0,0.0,0.0,0.0,0.0,0.0,0.0,0.0,0.0,0.0,0.0,0.0,0.0,0.0,0.0,0.0,0.0,0.0,0.0,0.0,0.0,0.0,0.0,0.0,0.0,0.0,0.0,0.0,0.0,0.0,0.0,0.0,0.0,0.0,0.0,0.0,0.0,0.0,0.0,0.0,0.0,0.0,0.0,0.0,0.0,0.0,0.0,0.0,0.0,0.0,0.0,0.0,0.0,0.0,0.0,0.0,0.0,0.0,0.0,0.0,0.0,0.0,0.0,0.0,0.0,0.0,0.0,0.0,0.0,0.0,0.0,0.0,0.0,0.0,0.0,0.0,0.0,0.0,0.0,0.0,0.0,-3.8417,-3.741,-3.7044,0.0,-3.7415,-3.7097,-3.7642,-3.653,-3.509,-3.3408,0.0,0.0,0.0,0.0,0.0,0.0,0.0,0.0,0.0,0.0,0.0,0.0,0.0,0.0,0.0,0.0,0.0,0.0,0.0,0.0,0.0,0.0,0.0,0.0,0.0,0.0,0.0,0.0,0.0,0.0,0.0,0.0,0.0,0.0,0.0,0.0,0.0,0.0,0.0,0.0,0.0,0.0,0.0,0.0,0.0,0.0,0.0,0.0,0.0,0.0,0.0,0.0,0.0,0.0,0.0,0.0,0.0,0.0,0.0,0.0,0.0,0.0,0.0,0.0,0.0,0.0,0.0,0.0,0.0,0.0,0.0,0.0,0.0,0.0,0.0,0.0,0.0,0.0,0.0,0.0,0.0,0.0,0.0,0.0,0.0,0.0,0.0,0.0,0.0,0.0,0.0,0.0,0.0,0.0,0.0,0.0,0.0,0.0,0.0,0.0,0.0,0.0,-3.7038,-3.6235,-3.6026,-3.7084,-3.6723,-3.6627,-3.7156,-3.6242,-3.4987,0.0,0.0,0.0,0.0,0.0,0.0,0.0,0.0,0.0,0.0,0.0,0.0,0.0,0.0,0.0,0.0,0.0,0.0,0.0,0.0,0.0,0.0,0.0,0.0,0.0,0.0,0.0,0.0,0.0,0.0,0.0,0.0,0.0,0.0,0.0,0.0,0.0,0.0,0.0,0.0,0.0,0.0,0.0,0.0,0.0,0.0,0.0,0.0,0.0,0.0,0.0,0.0,0.0,0.0,0.0,0.0,0.0,0.0,0.0,0.0,0.0,0.0,0.0,0.0,0.0,0.0,0.0,0.0,0.0,0.0,0.0,0.0,0.0,0.0,0.0,0.0,0.0,0.0,0.0,0.0,0.0,0.0,0.0,0.0,0.0,0.0,0.0,0.0,0.0,0.0,0.0,0.0,0.0,0.0,0.0,0.0,0.0,0.0,0.0,0.0,0.0,0.0,0.0,-3.6916,-3.6554,-3.6435,-3.7132,-3.706,-3.718,-3.7709,-3.6771,-3.6042,-3.5785,0.0,0.0,0.0,0.0,0.0,0.0,0.0,0.0,0.0,0.0,0.0,0.0,0.0,0.0,0.0,0.0,0.0,0.0,0.0,0.0,0.0,0.0,0.0,0.0,0.0,0.0,0.0,0.0,0.0,0.0,0.0,0.0,0.0,0.0,0.0,0.0,0.0,0.0,0.0,0.0,0.0,0.0,0.0,0.0,0.0,0.0,0.0,0.0,0.0,0.0,0.0,0.0,0.0,0.0,0.0,0.0,0.0,0.0,0.0,0.0,0.0,0.0,0.0,0.0,0.0,0.0,0.0,0.0,0.0,0.0,0.0,0.0,0.0,0.0,0.0,0.0,0.0,0.0,0.0,0.0,0.0,0.0,0.0,0.0,0.0,0.0,0.0,0.0,0.0,0.0,0.0,0.0,0.0,0.0,0.0,0.0,0.0,0.0,0.0,0.0,0.0,0.0,-3.6653,-3.6792,-3.6916,-3.7445,-3.7709,-3.7974,-3.8286,-3.7348,-3.6836,-3.7101,0.0,0.0,0.0,0.0,0.0,0.0,0.0,0.0,0.0,0.0,0.0,0.0,0.0,0.0,0.0,0.0,0.0,0.0,0.0,0.0,0.0,0.0,0.0,0.0,0.0,0.0,0.0,0.0,0.0,0.0,0.0,0.0,0.0,0.0,0.0,0.0,0.0,0.0,0.0,0.0,0.0,0.0,0.0,0.0,0.0,0.0,0.0,0.0,0.0,0.0,0.0,0.0,0.0,0.0,0.0,0.0,0.0,0.0,0.0,0.0,0.0,0.0,0.0,0.0,0.0,0.0,0.0,0.0,0.0,0.0,0.0,0.0,0.0,0.0,0.0,0.0,0.0,0.0,0.0,0.0,0.0,0.0,0.0,0.0,0.0,0.0,0.0,0.0,0.0,0.0,0.0,0.0,0.0,0.0,0.0,0.0,0.0,0.0,0.0,0.0,0.0,0.0,-3.6266,-3.6867,-3.7421,-3.7998,-3.8503,-3.8839,-3.8888,-3.7902,-3.7388,-3.7702,0.0,0.0,0.0,0.0,0.0,0.0,0.0,0.0,0.0,0.0,0.0,0.0,0.0,0.0,0.0,0.0,0.0,0.0,0.0,0.0,0.0,0.0,0.0,0.0,0.0,0.0,0.0,0.0,0.0,0.0,0.0,0.0,0.0,0.0,0.0,0.0,0.0,0.0,0.0,0.0,0.0,0.0,0.0,0.0,0.0,0.0,0.0,0.0,0.0,0.0,0.0,0.0,0.0,0.0,0.0,0.0,0.0,0.0,0.0,0.0,-3.5791,0.0,0.0,0.0,0.0,0.0,0.0,0.0,0.0,0.0,0.0,0.0,0.0,0.0,0.0,0.0,0.0,0.0,0.0,0.0,0.0,0.0,0.0,0.0,0.0,0.0,0.0,0.0,0.0,0.0,0.0,0.0,0.0,0.0,0.0,0.0,0.0,0.0,0.0,0.0,0.0,0.0,-3.6314,-3.6867,-3.7565,-3.8527,-3.8743,-3.8984,-3.9393,-3.8455,-3.8046,-3.8491,-3.7072,0.0,0.0,0.0,0.0,0.0,0.0,0.0,0.0,0.0,0.0,0.0,0.0,0.0,0.0,0.0,0.0,0.0,0.0,0.0,0.0,0.0,0.0,0.0,0.0,0.0,0.0,0.0,0.0,0.0,0.0,0.0,0.0,0.0,0.0,0.0,0.0,0.0,0.0,0.0,0.0,0.0,0.0,0.0,0.0,0.0,0.0,0.0,0.0,0.0,0.0,0.0,0.0,0.0,0.0,0.0,0.0,0.0,0.0,0.0,0.0,-3.5001,0.0,0.0,0.0,0.0,0.0,0.0,0.0,0.0,0.0,0.0,0.0,0.0,0.0,0.0,0.0,0.0,0.0,0.0,0.0,0.0,0.0,0.0,0.0,0.0,0.0,0.0,0.0,0.0,0.0,0.0,0.0,0.0,0.0,0.0,0.0,0.0,0.0,0.0,0.0,0.0,-3.6723,-3.7493,-3.819,-3.8767,-3.9272,-3.9681,-3.997,-3.9224,-3.9008,-3.9537,-3.8203,0.0,0.0,0.0,0.0,0.0,0.0,0.0,0.0,0.0,0.0,0.0,0.0,0.0,0.0,0.0,0.0,0.0,0.0,0.0,0.0,0.0,0.0,0.0,0.0,0.0,0.0,0.0,0.0,0.0,0.0,0.0,0.0,0.0,0.0,0.0,0.0,0.0,0.0,0.0,0.0,0.0,0.0,0.0,0.0,0.0,0.0,0.0,0.0,0.0,0.0,0.0,0.0,0.0,-3.7638,-3.7771,-3.7232,-3.7232,-3.7061,-3.6596,-3.5035,-3.5043,-3.5993,-3.4916,0.0,0.0,0.0,0.0,0.0,0.0,0.0,0.0,0.0,0.0,0.0,0.0,0.0,0.0,0.0,0.0,0.0,0.0,0.0,0.0,0.0,0.0,0.0,0.0,-3.5761,-3.617,0.0,0.0,0.0,0.0,0.0,0.0,0.0,0.0,0.0,0.0,0.0,0.0,-3.7276,-3.819,-3.8888,-3.908,-3.9874,-4.0427,-4.0523,-3.997,-3.9826,-4.0355,-3.9172,-3.8442,0.0,0.0,0.0,0.0,0.0,0.0,0.0,0.0,0.0,0.0,0.0,0.0,0.0,0.0,0.0,0.0,0.0,0.0,0.0,0.0,0.0,0.0,0.0,0.0,0.0,0.0,0.0,0.0,0.0,0.0,0.0,0.0,-3.6303,-3.5449,0.0,0.0,0.0,0.0,0.0,0.0,0.0,0.0,0.0,0.0,0.0,0.0,0.0,-3.7208,-3.7286,-3.7061,-3.6983,-3.6935,-3.6726,-3.6352,-3.5843,-3.5843,-3.5575,-3.5114,-3.5332,0.0,-3.6807,-3.6085,0.0,0.0,0.0,0.0,0.0,0.0,0.0,0.0,0.0,0.0,0.0,0.0,0.0,0.0,0.0,0.0,0.0,0.0,0.0,0.0,0.0,0.0,-3.629,-3.6218,-3.6314,-3.6362,0.0,-3.5833,-3.5497,-3.5425,-3.4991,0.0,0.0,0.0,0.0,0.0,0.0,0.0,-3.7878,-3.8431,-3.9176,-4.009,-4.0306,-4.0595,-4.1028,-4.0186,-3.9826,-4.0355,-3.9338,-3.8545,-3.8065,-3.8497,0.0,0.0,0.0,0.0,0.0,0.0,0.0,0.0,0.0,0.0,0.0,0.0,0.0,0.0,0.0,0.0,0.0,0.0,0.0,0.0,0.0,0.0,0.0,0.0,0.0,0.0,0.0,0.0,0.0,-3.537,-3.5385,-3.5251,-3.5889,-3.6159,0.0,0.0,0.0,0.0,0.0,0.0,0.0,0.0,0.0,-3.7384,-3.7063,-3.7046,-3.7344,-3.7169,-3.7237,-3.7531,-3.7073,-3.6579,-3.605,-3.605,-3.5785,-3.5304,-3.5833,-3.6301,-3.6626,-3.6332,-3.6476,-3.6854,0.0,0.0,0.0,0.0,-3.5667,-3.4916,-3.4762,-3.4548,0.0,-3.4414,0.0,0.0,0.0,0.0,0.0,0.0,0.0,0.0,0.0,0.0,-3.6843,-3.6843,-3.7084,-3.73,-3.73,-3.7108,-3.6771,0.0,-3.6122,-3.6435,-3.7276,0.0,0.0,0.0,0.0,-3.8455,-3.8455,-3.9176,-3.9874,-4.0355,-4.0932,-4.1365,-4.1605,-4.1485,-4.1341,-4.1293,-4.0571,-3.9898,-3.9369,-3.9008,-3.8623,0.0,0.0,0.0,0.0,0.0,0.0,0.0,0.0,0.0,0.0,0.0,0.0,0.0,0.0,0.0,0.0,0.0,0.0,0.0,0.0,0.0,0.0,0.0,0.0,0.0,0.0,0.0,0.0,-3.5437,-3.541,-3.5517,-3.6237,-3.6644,0.0,0.0,0.0,0.0,0.0,0.0,-3.7891,-3.7766,-3.7742,-3.7742,-3.7132,-3.6988,-3.7397,-3.7397,-3.7661,-3.819,-3.7805,-3.7397,-3.7012,-3.7012,-3.6723,-3.6242,-3.6795,-3.694,-3.6795,-3.6507,-3.6598,-3.6948,-3.7221,-3.7394,-3.7444,-3.6749,-3.6113,-3.5545,-3.5016,-3.4775,-3.4799,-3.4943,0.0,-3.5809,-3.5809,0.0,0.0,0.0,0.0,-3.6314,-3.6699,-3.7108,-3.7397,-3.7397,-3.7685,-3.7974,-3.7974,-3.8094,-3.7926,0.0,-3.7132,-3.7709,-3.8647,0.0,0.0,0.0,0.0,-3.9224,-3.9224,-3.9898,-4.0499,-4.0763,-4.1509,-4.2097,-4.2217,-4.2602,-4.2651,-4.2265,-4.1677,-4.1148,-4.0619,-3.985,-3.9251,-3.8951,0.0,0.0,0.0,0.0,0.0,0.0,0.0,0.0,0.0,0.0,0.0,0.0,0.0,0.0,0.0,0.0,0.0,0.0,0.0,0.0,0.0,0.0,0.0,0.0,0.0,0.0,0.0,0.0,0.0,-3.7104,-3.8332,0.0,0.0,0.0,0.0,-3.7889,-3.702,-3.6515,-3.6515,-3.697,-3.726,-3.726,-3.769,-3.7926,-3.795,-3.795,-3.8214,-3.8767,-3.8743,-3.8719,-3.8695,-3.8695,-3.8383,-3.7902,-3.8455,-3.8407,-3.7829,-3.6819,-3.6437,-3.6416,-3.5883,-3.6004,-3.6341,-3.5305,-3.5184,-3.5545,-3.5016,-3.4775,-3.4847,-3.54,-3.593,-3.6362,-3.6362,-3.6723,0.0,0.0,-3.7493,-3.7878,-3.7902,-3.7926,-3.795,-3.795,-3.7974,-3.7974,-3.7974,-3.8407,-3.8599,0.0,-3.7926,-3.8118,-3.8719,0.0,-3.9513,-3.9585,-4.0018,-4.0306,-4.0306,-4.0355,-4.0787,-4.1774,-4.1942,-4.2241,-4.2747,-4.2795,-4.2819,-4.2771,-4.2289,-4.1701,-4.1172,-4.11,-3.9822,-3.7169,-3.7918,0.0,0.0,0.0,0.0,0.0,0.0,0.0,0.0,0.0,0.0,0.0,0.0,0.0,0.0,0.0,0.0,0.0,0.0,0.0,0.0,0.0,0.0,0.0,0.0,0.0,0.0,0.0,0.0,-3.6651,-3.7416,0.0,-3.7506,-3.7773,-3.7968,-3.7968,-3.7629,-3.7421,-3.7421,-3.7589,-3.7853,-3.8238,-3.8431,-3.8695,-3.9032,-3.9032,-3.9128,-3.932,-3.8984,-3.8815,-3.8815,-3.8815,-3.8503,-3.7998,-3.819,-3.8166,-3.7926,-3.7204,-3.7324,-3.7974,-3.8118,-3.831,-3.8407,-3.8046,-3.8022,-3.807,-3.7156,-3.6867,-3.6819,-3.6675,-3.6771,-3.7036,-3.7757,-3.7613,-3.7348,-3.8046,-3.7878,-3.7541,-3.7902,-3.7974,-3.7974,-3.7974,-3.7974,-3.7974,-3.7974,-3.8695,-3.9272,-3.9056,-3.9032,-3.9296,-4.0186,-3.9922,-3.9826,-4.0523,-4.0499,-4.0403,-4.0403,-4.098,-4.1557,-4.1942,-4.2567,-4.3024,-4.3216,-4.3577,-4.3625,-4.3265,-4.3072,-4.2735,-4.2265,-4.0751,-3.9616,-3.8918,-3.743,-3.6369,0.0,0.0,0.0,0.0,0.0,0.0,0.0,0.0,0.0,0.0,0.0,0.0,0.0,0.0,0.0,0.0,0.0,0.0,0.0,0.0,0.0,0.0,0.0,0.0,0.0,0.0,-3.6266,-3.6627,-3.7132,-3.7469,-3.7469,-3.7781,-3.807,-3.8238,-3.8262,-3.8334,-3.8527,-3.8527,-3.8695,-3.908,-3.908,-3.9248,-3.9609,-3.9609,-3.9705,-3.9874,-3.9513,-3.9441,-3.9609,-3.9609,-3.9417,-3.9056,-3.9056,-3.9056,-3.9032,-3.8695,-3.896,-3.9585,-3.92,-3.9176,-3.932,-3.9128,-3.9176,-3.9176,-3.8094,-3.795,-3.8142,-3.7421,-3.7565,-3.807,-3.8431,-3.8407,-3.831,-3.8479,-3.8286,-3.8046,-3.8214,-3.8118,-3.807,-3.8455,-3.8527,-3.8575,-3.8767,-3.9633,-4.029,-3.9812,-3.9953,-4.0355,-4.1076,-4.0739,-4.0691,-4.1581,-4.1413,-4.1244,-4.1437,-4.1918,-4.2303,-4.2471,-4.3096,-4.3577,-4.377,-4.4237,-4.4309,-4.3818,-4.3794,-4.3553,-4.3048,-4.1294,-4.0266,-3.9994,-3.7108,-3.5806,-3.6141,0.0,0.0,0.0,0.0,0.0,0.0,0.0,0.0,0.0,0.0,0.0,0.0,0.0,0.0,0.0,0.0,0.0,0.0,0.0,0.0,0.0,0.0,0.0,-3.6435,-3.6892,-3.7228,-3.7252,-3.7685,-3.8022,-3.8022,-3.8046,-3.8262,-3.8815,-3.8839,-3.9056,-3.9585,-3.9609,-3.9609,-3.9633,-3.9633,-3.9633,-3.9657,-3.9657,-3.9922,-4.0427,-4.0427,-4.0691,-4.1172,-4.1172,-4.1172,-4.1172,-4.1172,-4.1172,-4.1172,-4.1172,-4.1172,-4.098,-3.8888,-3.8407,-3.8815,-3.8286,-3.8407,-3.8719,-3.7661,-3.7974,-3.8671,-3.7613,-3.8334,-3.9417,-3.8383,-3.9152,-4.0042,-3.8503,-3.8791,-3.9489,-3.9008,-3.8455,-3.8334,-3.9393,-3.9657,-3.9801,-4.025,-4.1187,-4.1531,-4.0117,-4.0517,-4.1105,-4.1105,-4.1595,-4.2158,-4.2687,-4.276,0.0,-4.3433,-4.3072,-4.2976,-4.3481,-4.3553,-4.377,-4.4261,-4.4789,-4.4837,-4.4309,-4.4285,-4.4045,-4.3553,-4.2835,-4.1674,-3.9888,-3.6927,-3.4961,-3.4121,0.0,0.0,0.0,0.0,0.0,0.0,0.0,0.0,0.0,0.0,0.0,0.0,0.0,0.0,0.0,0.0,0.0,0.0,0.0,0.0,0.0,0.0,-3.6988,-3.6988,-3.7421,-3.7902,-3.831,-3.8503,-3.8743,-3.9128,-3.9152,-3.9224,-3.9369,-3.9393,-3.9465,-3.9609,-3.9609,-3.9777,-4.0162,-4.0186,-4.0355,-4.0739,-4.0739,-4.0812,-4.098,-4.098,-4.1052,-4.1172,-4.1172,-4.1172,-4.1172,-4.0787,-4.0836,-4.1148,-4.0763,-4.0836,-4.1124,-4.0523,-4.0403,-4.0523,-4.0355,-4.0162,-3.9922,-3.9609,-3.9465,-3.9345,-3.9032,-3.9248,-3.9633,-3.9705,-3.9777,-3.9801,-3.9753,-3.9681,-3.9657,-3.9898,-3.985,-3.9898,-4.0595,-4.0739,-4.0559,-3.9674,-3.9952,-4.0057,-3.862,-3.8859,-3.9321,-3.9321,-4.1121,-4.2269,-4.1401,-4.2136,0.0,-4.3012,-4.3168,-4.3505,-4.3997,-4.4467,-4.4756,-4.4837,-4.4981,-4.4837,-4.4309,-4.4285,-4.4213,-4.4069,-4.1696,-3.9024,-3.6204,-3.5337,-3.4941,0.0,0.0,0.0,0.0,0.0,0.0,0.0,0.0,0.0,0.0,0.0,0.0,0.0,0.0,0.0,0.0,0.0,0.0,0.0,0.0,0.0,0.0,-3.7372,-3.7878,-3.7878,-3.8142,-3.8527,-3.908,-3.9152,-3.9272,-3.9585,-3.9609,-3.9705,-3.9922,-3.9946,-4.0042,-4.0258,-4.0258,-4.0403,-4.0715,-4.0739,-4.0884,-4.1172,-4.1172,-4.1172,-4.1172,-4.1172,-4.1172,-4.1172,-4.1172,-4.1172,0.0,-4.086,-4.0908,-4.1172,-4.086,-4.0908,0.0,0.0,0.0,0.0,0.0,-4.098,-4.0691,-4.0475,-4.0331,-4.0186,-3.9753,-3.9898,-4.0234,-4.0114,-4.0162,-4.0282,-4.0379,-4.0331,-4.0379,-4.0908,-4.0884,-4.0908,-4.1677,-4.1412,-4.0845,-4.0255,-4.0082,-3.9615,-3.8166,-3.8635,0.0,-3.8509,-4.057,-4.2272,-4.2239,-4.2899,-4.3505,-4.3721,-4.3818,-4.3925,-4.4261,-4.4573,-4.4741,-4.4741,-4.4957,0.0,0.0,0.0,-4.3438,-4.2515,-4.0716,0.0,0.0,0.0,0.0,0.0,0.0,0.0,0.0,-3.4355,-3.4101,0.0,0.0,0.0,0.0,0.0,0.0,0.0,0.0,0.0,0.0,0.0,0.0,0.0,0.0,0.0,0.0,-3.8238,-3.8936,-3.8984,-3.9008,-3.9176,-3.9633,-3.9705,-3.9705,-3.9777,-3.9777,-3.997,-4.0451,-4.0475,-4.0691,-4.1148,0.0,0.0,0.0,0.0,-4.1172,-4.1172,-4.1172,-4.1172,-4.1172,-4.1172,-4.1172,-4.1172,-4.1172,-4.1172,-4.1172,-4.1172,-4.1172,-4.1172,-4.1172,-4.1172,-4.1172,-4.1172,-4.1172,-4.1172,-4.1172,-4.1172,-4.1124,-4.0643,0.0,0.0,-4.009,-4.0427,-4.1028,-4.0138,-4.0523,-4.1172,-4.0787,-4.1004,-4.1485,-4.2014,-4.1798,-4.1701,-4.2771,-4.1915,-4.103,-4.1489,-4.0721,-3.9605,-3.8308,-3.9101,-3.9605,-3.8507,-4.0142,-4.2179,-4.3817,-4.4223,-4.4453,-4.4933,-4.4573,-4.4309,-4.4357,0.0,0.0,-4.417,-4.4475,-4.393,-4.2189,-4.2514,-4.1883,-3.9868,-3.977,-3.8958,-3.7168,-3.748,-3.6914,-3.5469,-3.5801,-3.5976,-3.6016,-3.5586,-3.5391,0.0,0.0,0.0,0.0,0.0,0.0,0.0,0.0,0.0,0.0,0.0,0.0,0.0,0.0,0.0,-3.8431,-3.9032,-3.9609,-4.0042,-4.009,-4.0138,-4.0234,-4.0234,-4.0403,-4.0836,-4.0884,-4.0932,-4.1028,-4.1028,-4.1076,-4.1172,-4.1172,-4.1172,-4.1172,-4.1172,-4.1172,-4.1172,-4.1172,-4.1172,-4.1172,0.0,0.0,-4.1172,-4.1172,-4.1172,-4.1172,-4.1172,-4.1172,-4.1172,-4.1172,-4.1172,-4.1172,-4.1172,-4.1172,-4.1172,-4.1172,-4.1172,-4.1172,-4.1076,-4.11,-4.1148,-4.0956,-4.1028,-4.122,-4.1437,-4.1653,0.0,-4.2265,-4.2434,-4.2567,-4.3072,-4.3144,-4.3241,-4.389,-4.2958,-4.2017,-4.2109,-4.0256,-3.8441,-3.8175,-3.8308,-3.8772,-3.967,-4.1094,-4.2305,-4.265,-4.3639,-4.4333,-4.4429,-4.4357,-4.4453,-4.4885,-4.4001,-4.3363,-4.3363,-4.2376,-4.1438,-4.069,-4.0669,-4.0083,-3.8569,-3.8435,-3.7807,-3.6269,-3.6016,-3.5879,-3.5898,-3.5644,-3.5684,-3.6016,-3.5586,-3.5391,0.0,0.0,0.0,0.0,0.0,0.0,0.0,0.0,0.0,0.0,0.0,-3.706,0.0,0.0,-3.8888,-3.9176,-3.9657,-4.009,-4.0355,-4.0619,-4.0787,-4.0787,-4.0787,-4.0884,-4.1148,-4.1172,-4.1172,-4.1172,-4.1172,-4.1172,-4.1172,-4.1172,-4.1172,-4.1172,-4.1437,-4.1581,-4.1581,-4.1904,-4.1966,-4.1966,-4.1701,-4.1581,-4.1581,-4.1293,-4.1172,-4.1172,-4.1172,-4.1172,-4.1172,-4.1172,-4.1172,-4.1172,-4.1172,-4.1172,-4.1172,-4.1172,-4.1172,-4.1172,-4.1172,-4.1172,-4.122,-4.1485,-4.1581,-4.1677,-4.2265,-4.2434,-4.253,-4.3,-4.3144,-4.3265,-4.3794,-4.3938,-4.401,-4.4213,-4.3263,-4.2293,-4.2293,-4.0668,-3.9146,-3.9146,-3.9146,-3.9605,-4.0991,-4.1824,-4.2546,-4.32,-4.3888,-4.4285,-4.4285,-4.3701,-4.342,-4.3679,-4.2468,-4.1671,-4.1671,-4.0562,-3.9656,-3.9188,-3.8716,-3.8022,-3.7079,-3.7059,-3.6742,-3.6016,-3.6035,-3.6035,-3.6016,-3.6035,-3.6035,-3.6016,-3.6035,-3.5918,0.0,0.0,0.0,0.0,0.0,0.0,0.0,0.0,-3.7156,-3.8094,-3.8286,-3.8431,-3.8888,-3.9393,-3.9753,-3.9753,-4.021,-4.0547,-4.0547,-4.0908,-4.1172,-4.1172,-4.1172,-4.1172,-4.1172,-4.1172,-4.1172,-4.1172,-4.1172,-4.1172,-4.1172,-4.1268,-4.1341,-4.1341,-4.1904,-4.2193,-4.2193,-4.2602,-4.2819,-4.2819,-4.2386,-4.2193,-4.2169,-4.1581,-4.1341,-4.1341,-4.122,-4.1172,-4.1172,-4.1172,-4.1172,-4.1172,-4.1172,-4.1244,-4.1317,-4.122,-4.1244,-4.1341,-4.1341,-4.1413,-4.1557,-4.199,-4.2193,-4.223,-4.2819,-4.2964,-4.3024,-4.3529,-4.3673,-4.377,-4.4165,-4.4285,-4.4285,-4.4285,-4.3263,-4.2356,-4.261,-4.1377,-4.0257,-4.0516,-4.0603,-4.0991,-4.2102,-4.2546,-4.3051,-4.4161,-4.4285,-4.4223,-4.395,-4.2988,-4.2229,-4.1888,-4.0646,-3.967,-3.9408,-3.8641,-3.803,-3.775,-3.7092,-3.6484,-3.6035,-3.6172,-3.6191,-3.6016,-3.6523,-3.6582,-3.6152,-3.6504,-3.6543,-3.6269,-3.6543,-3.6484,-4.0292,0.0,0.0,-3.6991,-3.7276,-3.7781,0.0,0.0,-3.8719,-3.9296,-3.9417,-3.9441,-3.9513,-3.9946,-4.0306,-4.0306,-4.0739,-4.11,-4.11,-4.1148,-4.1172,-4.1172,-4.1172,-4.1172,-4.1172,-4.1172,-4.1172,-4.1172,-4.1172,-4.1172,-4.1172,-4.1629,-4.1894,-4.1894,-4.2458,-4.2723,-4.2723,-4.2795,-4.2819,-4.2819,-4.2747,-4.2723,-4.2723,-4.2193,-4.1894,-4.1846,-4.1389,-4.1172,-4.1172,-4.1172,-4.1172,-4.1172,-4.1172,-4.1461,-4.1822,-4.1365,-4.1485,-4.1894,-4.1894,-4.2182,-4.2651,-4.2699,-4.2723,-4.2819,-4.3265,-4.3433,-4.3553,-4.4045,-4.4189,-4.4213,-4.4261,-4.4285,-4.4285,-4.4285,-4.3263,-4.261,-4.3826,-4.2016,-4.0581,-4.1824,-4.2102,-4.2102,-4.2293,-4.3326,-4.4161,-4.4285,-4.4285,-4.3888,-4.2673,-4.242,-4.1824,-4.0581,-3.9146,-3.7842,-3.6606,-3.6395,-3.6259,-3.6219,-3.6563,-3.6484,-3.6035,-3.6758,-3.6797,-3.6035,-3.6816,-3.7012,-3.6601,-3.6641,-3.6836,-3.7148,-3.6816,-3.6641,-4.0637,0.0,0.0,0.0,-3.8767,-3.908,-3.9609,-3.9489,-3.9417,-3.9946,-4.0066,-4.0066,-4.0066,-4.0499,-4.086,0.0,-4.1028,-4.1293,-4.1605,-4.1653,-4.1749,-4.2062,-4.2169,-4.187,-4.1244,-4.1461,-4.1509,-4.1196,-4.1749,-4.1966,-4.1653,-4.2134,-4.2482,-4.2482,-4.2928,-4.3192,-4.3192,-4.3529,-4.3673,-4.3673,-4.3361,-4.3192,-4.3168,-4.2663,-4.2482,-4.2506,-4.2519,-4.2375,-4.2169,-4.2169,-4.2169,-4.2169,-4.2169,-4.2289,-4.2434,-4.1846,-4.199,-4.2482,-4.2482,-4.2627,-4.2867,-4.3096,-4.3192,-4.3289,-4.3842,-4.401,-4.3973,-4.4213,-4.4285,-4.4285,-4.4285,-4.4285,-4.4285,-4.4285,-4.3888,-4.3639,-4.4161,-4.3389,-4.2799,-4.3389,-4.3451,-4.3451,-4.3451,-4.3912,-4.4285,-4.4285,-4.4285,-4.3826,-4.2483,-4.1569,-4.0516,-3.9146,-3.7709,-3.6991,-3.7193,-3.6708,-3.6289,-3.6035,-3.666,-3.6836,-3.6426,-3.6973,-3.7129,-3.6777,-3.7363,-3.7461,-3.7031,-3.7285,-3.7363,-3.7305,-3.7637,-3.7637,-4.0972,0.0,0.0,-3.9537,-3.9705,-3.9922,-4.0306,-4.009,-3.997,-4.0499,-4.0739,-4.0836,-4.0836,-4.1268,-4.1629,-4.1629,-4.1629,-4.1749,-4.2193,-4.2182,-4.2327,-4.2771,-4.2819,-4.2506,-4.1701,-4.2086,-4.223,-4.1846,-4.2687,-4.3024,-4.2639,-4.312,-4.3409,-4.3409,-4.3914,-4.4178,-4.4178,-4.4587,-4.4717,-4.4717,-4.4371,-4.4178,-4.4154,-4.3649,-4.3337,-4.3216,-4.3577,-4.3433,-4.2976,-4.2976,-4.294,-4.2819,-4.2819,-4.2916,-4.2928,-4.2543,-4.2639,-4.2976,-4.2976,-4.3072,-4.3265,-4.3625,-4.3746,-4.3818,-4.4165,-4.4285,-4.4285,-4.4285,-4.4285,-4.4285,-4.4285,-4.4285,-4.4285,-4.4285,-4.4285,-4.4285,-4.4285,-4.4285,-4.4285,-4.4285,-4.4285,-4.4285,-4.4285,-4.4285,-4.4285,-4.4285,-4.4285,-4.3701,-4.1952,-4.0473,-3.9233,-3.8175,-3.7193,-3.7011,-3.7975,-3.7208,-3.6543,-3.6211,-3.6992,-3.7285,-3.6855,-3.7363,-3.7539,-3.7305,-3.7832,-3.7891,-3.7461,-3.7773,-3.7891,-3.7832,-3.834,-3.8594,0.0,0.0,-4.0234,-3.9729,-3.9994,-4.0379,-4.0403,-4.0379,-4.0523,-4.1052,-4.1581,-4.1918,-4.1918,-4.241,-4.2771,-4.2771,-4.2771,-4.2771,-4.2795,-4.2795,-4.2795,-4.2819,-4.2819,-4.2795,0.0,-4.3168,-4.3457,-4.3433,-4.3901,-4.4237,-4.4213,-4.4717,-4.5005,-4.5005,-4.5573,-4.5862,-4.5862,-4.5862,-4.5886,-4.5886,-4.5862,-4.5862,-4.5838,-4.5245,-4.4717,-4.4237,-4.4261,-4.3949,-4.3481,-4.3481,-4.3192,-4.2819,-4.2819,-4.3072,-4.3481,-4.3481,-4.3481,-4.3481,-4.3481,-4.3842,-4.4237,-4.4261,-4.4261,-4.4261,-4.4285,-4.4285,-4.4285,-4.4285,-4.4285,-4.4285,-4.4285,-4.4285,-4.4285,-4.4285,-4.4285,-4.4285,-4.4285,-4.4285,-4.4285,-4.4285,-4.4285,-4.4285,-4.4285,-4.4285,-4.4285,-4.4285,-4.4285,-4.3302,-4.0581,-3.9035,-3.8175,-3.8109,-3.8042,-3.8042,-3.8109,-3.7208,-3.666,-3.666,-3.7441,-3.7715,-3.7305,-3.8086,-3.8144,-3.7324,-3.8125,-3.834,-3.791,-3.791,-3.834,-3.9141,-3.875,-3.9238,0.0,0.0,-4.0427,-4.0619,-4.0787,-4.0908,-4.0908,-4.0908,-4.098,-4.1148,-4.1317,-4.1557,-4.1918,-4.2169,-4.241,-4.2771,-4.2819,-4.294,-4.3216,-4.3265,-4.3409,-4.377,-4.3818,0.0,0.0,0.0,0.0,-4.3553,-4.4683,-4.5237,-4.4837,-4.5317,-4.5645,-4.5645,-4.5838,-4.5934,-4.5934,-4.5934,-4.5934,-4.5934,-4.5934,-4.5934,-4.5934,-4.6102,-4.5886,-4.5342,-4.5766,-4.5621,-4.5116,-4.5116,-4.502,-4.4852,-4.4852,-4.4756,-4.4587,-4.4587,-4.4371,-4.3997,-4.3997,-4.4117,-4.4285,-4.4285,-4.4285,-4.4285,-4.4285,-4.4285,-4.4285,-4.4285,-4.4285,-4.4285,-4.4285,-4.4285,-4.4285,-4.4285,-4.4285,-4.4285,-4.4285,-4.4285,-4.4285,-4.4285,-4.4285,-4.4285,-4.4285,-4.4285,-4.4037,-4.3137,-4.2988,-4.261,-4.1697,-4.0322,-3.9996,-4.1306,-3.968,-3.9004,-4.0308,-3.8409,-3.749,-3.8491,-3.9109,-3.9373,-3.9231,-4.068,-4.0442,-3.8216,-3.9389,-3.947,-3.8359,-3.8633,-3.8926,-3.9219,-3.9961,-4.0371,0.0,-4.125,-4.0763,-4.11,-4.1172,-4.1172,-4.1172,-4.1341,-4.1461,-4.1461,-4.1749,-4.211,-4.2471,-4.2519,-4.276,-4.3481,-4.3457,-4.3505,-4.401,-4.4082,-4.4154,-4.4261,-4.4285,-4.4357,0.0,0.0,0.0,-4.4395,-4.5694,-4.6343,-4.6006,-4.6295,-4.6487,-4.6487,-4.6487,-4.6487,-4.6487,-4.6487,-4.6487,-4.6487,-4.6487,-4.6487,-4.6487,-4.6848,-4.68,-4.6511,-4.6848,-4.6704,-4.6199,-4.6199,-4.6102,-4.5934,-4.5934,-4.5718,-4.5429,-4.5429,-4.5029,-4.4549,-4.4357,-4.4285,-4.4285,-4.4285,-4.4285,-4.4285,-4.4285,-4.4285,-4.4285,-4.4285,-4.4285,-4.4285,-4.4285,-4.4285,-4.4285,-4.4285,-4.4285,-4.4285,-4.4285,-4.4285,-4.4285,-4.4285,-4.4429,-4.4501,-4.4309,-4.4453,-4.4371,-4.3716,-4.3612,-4.3159,-4.1991,-4.1495,-4.1566,-4.2452,-4.0886,-4.0007,-4.0779,-3.9273,-3.8748,-3.9702,-4.0675,-4.1207,-4.1207,-4.237,-4.1841,-3.9405,-4.032,-4.0402,-3.9645,-3.9515,-3.9889,-4.0709,-4.1227,-4.1406,-4.2946,-4.2069,-4.1172,-4.1172,-4.1172,-4.1196,-4.122,-4.1581,-4.1942,-4.1942,-4.2687,-4.3361,0.0,0.0,-4.3794,-4.4861,-4.4621,-4.4453,-4.4957,-4.5029,-4.4837,0.0,0.0,0.0,0.0,0.0,0.0,-4.5958,0.0,-4.7497,-4.7497,-4.7497,-4.7497,-4.7497,-4.7497,-4.7497,-4.7497,-4.7497,-4.7497,-4.7497,-4.7497,-4.7497,-4.7497,-4.7497,-4.7497,-4.7473,-4.7473,-4.7185,-4.6704,-4.6704,-4.6439,-4.6006,-4.6006,-4.5982,-4.5958,-4.5958,-4.5621,-4.5053,-4.4549,-4.4333,-4.4285,-4.4285,-4.4285,-4.4285,-4.4285,-4.4285,-4.4285,-4.4285,-4.4285,-4.4285,-4.4285,-4.4285,-4.4285,-4.4285,-4.4285,-4.4285,-4.4285,-4.4309,-4.4309,-4.4285,-4.4717,-4.4933,-4.4453,-4.4789,-4.5293,-4.5838,-4.5934,-4.473,-4.1661,-4.2402,-4.2867,-4.1926,-4.1723,-4.1115,-3.9792,-4.0,-4.0319,-4.0459,-4.2166,-4.3101,-4.3101,-4.3171,-4.2473,-4.0983,-4.1055,-4.1284,-4.169,-4.0678,-4.1338,-4.3365,-4.2405,-4.2384,-4.3614,-4.2388,-4.1172,-4.1172,-4.1172,-4.1293,-4.1677,-4.1581,-4.1389,-4.1389,-4.1293,-4.1437,0.0,0.0,0.0,-4.4237,-4.4381,0.0,-4.4477,-4.4477,0.0,-4.4309,0.0,-4.4933,-4.5053,-4.5982,0.0,0.0,-4.7112,-4.7497,-4.7497,-4.7497,-4.7497,-4.7497,-4.7497,-4.7497,-4.7497,-4.7497,-4.7497,-4.7497,-4.7497,-4.7497,-4.7497,-4.7497,-4.7281,-4.692,-4.692,-4.6848,-4.6704,-4.6704,-4.6872,-4.7088,-4.7088,-4.6848,-4.6511,-4.6511,-4.6175,-4.5694,-4.5573,-4.4957,-4.4285,-4.4285,-4.4285,-4.4285,-4.4285,-4.4285,-4.4285,-4.4285,-4.4285,-4.4285,-4.4285,-4.4285,-4.4285,-4.4285,-4.4285,-4.4285,-4.4285,-4.4597,-4.4765,-4.4357,-4.4717,-4.5149,-4.5477,-4.5645,-4.5766,-4.591,-4.5934,-4.5605,-4.473,-4.4988,-4.5266,-4.5371,-4.3444,-4.2562,-4.3689,-4.1887,-4.1601,-4.3844,-4.4436,-4.4709,-4.4709,-4.5752,-4.5302,-4.3061,-4.414,-4.4064,-4.2592,-4.387,-4.3718,-4.2249,-4.3855,-4.412,-4.4433,-4.3037,-4.1533,-4.1533,-4.1701,-4.1894,-4.2024,-4.1918,-4.1856,-4.1581,-4.1293,0.0,0.0,0.0,0.0,0.0,0.0,0.0,-4.4597,-4.4621,-4.4621,0.0,-4.4885,0.0,-4.579,-4.6367,-4.68,0.0,-4.7329,-4.7497,-4.7497,-4.7497,-4.7497,-4.7497,-4.7497,-4.7497,-4.7497,-4.7497,-4.7497,-4.7497,-4.7497,-4.7497,-4.7497,-4.7257,-4.6992,-4.6704,0.0,-4.6367,-4.6367,-4.6367,-4.6535,-4.68,-4.68,-4.6776,-4.6704,-4.6704,-4.6535,-4.6271,-4.6271,-4.5718,-4.4981,-4.4981,-4.4981,-4.4981,-4.4981,-4.4981,-4.4981,-4.4981,-4.4981,-4.4933,-4.4693,-4.4621,-4.4573,-4.4333,-4.4285,-4.4357,-4.4573,-4.4669,-4.4765,-4.4957,-4.5029,-4.5453,-4.6439,-4.6223,-4.6078,-4.6535,-4.6607,-4.6607,-4.6607,-4.6415,-4.6203,-4.6111,-4.4572,-4.3801,-4.4276,-4.3379,-4.3517,-4.521,-4.5911,-4.6248,-4.6248,-4.7313,-4.7038,-4.5191,-4.6213,-4.6401,-4.5679,-4.6405,-4.5974,-4.4523,-4.6232,-4.6111,-4.5138,-4.3778,-4.2103,-4.2,-4.2386,-4.2602,-4.2145,-4.2386,-4.2554,-4.1894,0.0,-4.1822,-4.241,-4.2014,-4.2375,-4.4563,0.0,-4.4285,-4.4885,-4.4957,-4.4957,-4.4957,-4.5101,-4.5597,-4.6511,-4.6728,-4.7016,-4.7473,-4.7497,-4.7497,-4.7497,-4.7497,-4.7497,-4.7497,-4.7497,-4.7497,-4.7497,-4.7497,-4.7497,-4.7497,-4.7497,-4.7497,-4.7473,-4.6944,-4.668,-4.6583,-4.6054,0.0,-4.5814,-4.5814,-4.591,-4.603,-4.603,-4.6343,-4.6824,-4.6824,-4.6824,-4.6824,-4.6824,-4.6511,-4.6102,-4.5982,-4.5934,-4.5934,-4.5934,-4.5934,-4.5934,-4.5934,-4.5934,-4.5814,-4.5357,-4.5237,-4.5053,-4.4597,-4.4501,-4.4621,-4.5077,-4.4813,-4.4765,-4.5742,-4.5486,-4.5694,-4.7136,-4.6631,-4.6367,-4.7353,-4.7497,-4.7497,-4.7497,-4.7088,-4.6508,-4.5638,-4.5414,-4.4846,-4.3725,-4.4641,-4.5414,-4.5549,-4.6808,-4.7569,-4.7714,-4.8214,-4.8198,-4.7562,-4.812,-4.8696,-4.9471,-4.8689,-4.8223,-4.8087,-4.8815,-4.8223,-4.5461,-4.4091,-4.2598,-4.2137,-4.2038,-4.2086,-4.199,-4.2038,0.0,0.0,-4.0331,-4.0186,-4.0715,-4.0379,-4.0836,-4.3385,0.0,0.0,0.0,0.0,-4.4429,0.0,0.0,0.0,0.0,0.0,0.0,0.0,0.0,-4.7497,-4.7497,-4.7497,-4.7497,-4.7497,-4.7497,-4.7497,-4.7497,-4.7497,-4.7497,-4.7497,-4.7497,-4.7497,-4.7473,-4.6944,-4.6487,-4.603,-4.5501,0.0,-4.5197,-4.5197,-4.579,-4.6583,-4.6583,-4.6896,-4.7377,-4.7377,-4.7377,-4.7377,-4.7377,-4.7305,-4.7088,-4.6199,-4.5934,-4.5934,-4.5934,-4.5934,-4.5934,-4.5934,-4.5934,-4.591,-4.5814,-4.579,-4.5766,-4.5669,-4.5645,-4.5669,-4.5766,-4.5718,-4.5694,-4.5886,-4.5862,-4.6006,-4.6728,-4.6704,-4.6776,-4.7401,-4.7497,-4.7497,-4.7497,-4.7425,-4.7335,-4.7141,-4.6046,-4.5685,-4.665,-4.582,-4.5843,-4.7008,-4.7364,-4.7906,-4.8772,-4.9257,-5.0028,-5.1151,-5.1627,-5.1513,-5.0787,-5.195,-5.1204,-4.8746,-5.0164,-4.9953,-4.591,-4.4587,-4.3148,-4.2583,-4.2434,-4.2362,-4.2038,0.0,0.0,0.0,-4.0379,-4.0186,-4.0715,0.0,0.0,0.0,0.0,0.0,0.0,0.0,0.0,0.0,0.0,0.0,0.0,0.0,0.0,0.0,0.0,-4.7497,-4.7497,-4.7497,-4.7497,-4.7497,-4.7497,-4.7497,-4.7497,-4.7497,-4.7497,-4.7497,-4.7497,-4.7497,-4.7473,-4.668,-4.615,-4.5886,-4.5005,0.0,-4.4669,-4.4669,-4.5125,-4.5886,-4.5886,-4.6391,-4.7088,-4.7088,-4.7257,-4.7497,-4.7497,-4.7497,-4.7425,-4.692,-4.6752,-4.6752,-4.6752,-4.6752,-4.6752,-4.6752,-4.6752,-4.668,-4.6415,-4.6343,-4.6271,-4.5982,-4.6126,-4.6247,-4.5982,-4.6367,-4.6655,-4.6391,-4.6343,-4.6511,-4.7016,-4.6896,-4.6896,-4.7425,-4.7497,-4.7497,-4.7497,-4.7497,-4.7497,-4.7497,-4.6874,-4.6741,-4.7431,-4.6874,-4.6993,-4.8173,-4.853,-4.9082,-5.0064,-5.0856,-5.1733,-5.2786,-5.3224,-5.3278,-5.2842,-5.3637,-5.2684,-5.0109,-5.1854,-5.184,-4.6506,-4.521,-4.3771,-4.313,-4.2829,-4.2506,-4.1918,-4.1894,0.0,0.0,-4.0691,-4.0523,-4.0932,0.0,-4.11,0.0,0.0,0.0,0.0,0.0,0.0,0.0,0.0,0.0,0.0,0.0,0.0,0.0,0.0,0.0,-4.7497,-4.7497,-4.7497,-4.7497,-4.7497,-4.7497,-4.7497,-4.7497,-4.7497,-4.7497,-4.7497,-4.7449,-4.7305,-4.6367,-4.5862,-4.5694,-4.4693,0.0,0.0,-4.4285,-4.4669,-4.5245,-4.5245,-4.5958,-4.6872,-4.6872,-4.7136,-4.7497,-4.7497,-4.7497,-4.7497,-4.7497,-4.7497,-4.7497,-4.7497,-4.7497,-4.7497,-4.7497,-4.7497,-4.7401,-4.6992,-4.6872,-4.6776,-4.6367,-4.6583,-4.6728,-4.6199,-4.6824,-4.7305,-4.668,-4.6631,-4.6848,-4.7257,-4.6992,-4.6896,-4.7425,-4.7497,-4.7497,-4.7497,-4.7497,-4.7497,-4.7497,-4.7497,-4.7497,-4.7497,-4.7684,-4.8173,-4.8999,-4.9669,-5.0416,-5.1452,-5.2453,-5.3288,-5.3858,-5.4302,-5.45,-5.457,-5.457,-5.3624,-5.1854,-5.3247,-5.3457,-4.7294,-4.5873,-4.4361,-4.3746,-4.283,-4.1918,-4.1365,0.0,-4.1677,-4.0667,-4.0427,-4.0403,-4.0451,-4.0066,0.0,0.0,0.0,0.0,0.0,0.0,0.0,0.0,0.0,0.0,0.0,0.0,0.0,0.0,0.0,0.0,-4.7497,-4.7497,-4.7497,-4.7497,-4.7497,-4.7497,-4.7497,-4.7497,-4.7497,-4.7497,-4.7497,-4.7257,-4.6776,-4.6199,-4.5606,-4.5101,-4.4525,0.0,0.0,-4.4285,-4.4885,-4.5862,-4.5862,-4.6487,-4.7425,-4.7425,-4.7473,-4.7497,-4.7497,-4.7497,-4.7497,-4.7497,-4.7497,-4.7497,-4.7497,-4.7497,-4.7497,-4.7497,-4.7497,-4.7497,-4.7449,-4.7425,-4.7425,-4.7377,-4.7401,-4.7281,-4.6752,-4.7088,-4.7209,-4.6199,-4.6391,-4.6728,-4.6776,-4.6752,-4.6896,-4.7425,-4.7497,-4.7497,-4.7497,-4.7497,-4.7497,-4.7497,-4.7497,-4.7497,-4.7497,-4.8288,-4.9023,-4.9626,-5.0411,-5.1575,-5.3099,-5.3604,-5.439,-5.5385,-5.5459,-5.5287,-5.4967,-5.4967,-5.4496,-5.3572,-5.4098,-5.4388,-4.7372,-4.6221,-4.4944,-4.3916,-4.2381,-4.1052,-4.1172,0.0,-4.0908,-4.0475,-4.0403,-4.0403,-4.0403,-4.0234,0.0,0.0,0.0,0.0,0.0,0.0,0.0,0.0,0.0,0.0,0.0,0.0,0.0,0.0,0.0,0.0,-4.7497,-4.7497,-4.7497,-4.7497,-4.7497,-4.7497,-4.7497,-4.7497,-4.7497,-4.7497,-4.7497,-4.7233,-4.6704,-4.6175,-4.5645,-4.5053,-4.4525,0.0,0.0,-4.4285,-4.4909,-4.5934,-4.5934,-4.6583,-4.7497,-4.7497,-4.7497,-4.7497,-4.7497,-4.7497,-4.7497,-4.7497,-4.7497,-4.7497,-4.7497,-4.7497,-4.7497,-4.7497,-4.7497,-4.7497,-4.7497,-4.7497,-4.7497,-4.7497,-4.7497,-4.7449,-4.7233,-4.7353,-4.7377,-4.6968,-4.704,-4.7185,-4.7185,-4.7185,-4.7257,-4.7473,-4.7497,-4.7497,-4.7497,-4.7497,-4.7497,-4.7497,-4.7497,-4.7828,-4.8748,-4.915,-5.0055,-5.1713,-5.2421,-5.335,-5.4558,-5.5077,-5.5524,-5.5974,-5.5999,-5.5779,-5.5337,-5.5115,-5.4719,-5.4197,-5.4437,-5.472,-4.7601,-4.6411,-4.5106,-4.4163,-4.2263,-4.0739,0.0,0.0,-4.0595,-4.0427,-4.0403,-4.0403,-4.0403,-4.0403,-4.0282,0.0,0.0,0.0,0.0,0.0,0.0,0.0,0.0,0.0,0.0,0.0,0.0,0.0,0.0,0.0,-4.7497,-4.7497,-4.7497,-4.7497,-4.7497,-4.7497,-4.7497,-4.7497,-4.7497,-4.7497,-4.7497,-4.7136,-4.6463,-4.6102,-4.5486,-4.4813,-4.4453,0.0,0.0,-4.4285,-4.4909,-4.5934,-4.5934,-4.6583,-4.7497,-4.7497,-4.7497,-4.7497,-4.7497,-4.7497,-4.7497,-4.7497,-4.7497,-4.7497,-4.7497,-4.7497,-4.7497,-4.7497,-4.7497,-4.7497,-4.7497,-4.7497,-4.7497,-4.7497,-4.7497,-4.7497,-4.7497,-4.7497,-4.7497,-4.7497,-4.7497,-4.7497,-4.7497,-4.7497,-4.7497,-4.7497,-4.7497,-4.7497,-4.7497,-4.7642,-4.7804,-4.7871,-4.8227,-4.8729,-4.9607,-5.0367,-5.1546,-5.3321,-5.406,-5.4824,-5.5616,-5.6018,-5.6219,-5.6219,-5.6072,-5.5852,-5.5411,-5.5115,-5.4817,-5.4514,-5.4803,-5.5283,-4.8185,-4.6401,-4.4589,-4.4589,-4.2855,-4.1172,0.0,-4.1172,-4.1028,-4.0499,-4.0403,-4.0403,-4.0403,-4.0403,-4.0403,0.0,0.0,0.0,0.0,0.0,0.0,0.0,0.0,0.0,0.0,0.0,0.0,0.0,0.0,0.0,-4.7497,-4.7497,-4.7497,-4.7497,-4.7497,-4.7497,-4.7497,-4.7497,-4.7497,-4.7497,-4.7497,-4.6944,-4.5934,-4.5934,-4.5357,0.0,0.0,0.0,0.0,-4.4285,-4.4909,-4.5934,-4.5934,-4.6583,-4.7497,-4.7497,-4.7497,-4.7497,-4.7497,-4.7497,-4.7497,-4.7497,-4.7497,-4.7497,-4.7497,-4.7497,-4.7497,-4.7497,-4.7497,-4.7497,-4.7497,-4.7497,-4.7497,-4.7497,-4.7497,-4.7497,-4.7497,-4.7497,-4.7497,-4.7497,-4.7497,-4.7497,-4.7497,-4.7497,-4.7497,-4.7497,-4.7497,-4.7497,-4.7497,-4.7954,-4.8426,-4.8853,-4.9869,-5.0283,-4.9772,-5.1812,-5.3371,-5.3989,-5.4849,-5.5616,-5.6168,-5.6219,-5.6219,-5.6219,-5.5779,-5.5411,-5.5041,-5.4967,-5.4863,-5.4592,-5.5451,-5.6241,-4.8156,-4.7276,-4.6169,-4.4884,-4.3216,-4.1509,-4.0354,-4.0114,-3.985,-3.8936,-3.9056,-3.932,-3.932,-3.932,-3.9441,-3.9801,0.0,0.0,0.0,0.0,0.0,0.0,0.0,0.0,0.0,0.0,0.0,0.0,0.0,0.0,-4.7497,-4.7497,-4.7497,-4.7497,-4.7497,-4.7497,-4.7497,-4.7497,-4.7497,-4.7497,-4.7497,-4.6944,-4.5934,-4.5934,-4.5293,0.0,0.0,0.0,0.0,-4.4669,-4.5221,-4.5958,-4.6319,-4.6896,-4.7497,-4.7497,-4.7497,-4.7497,-4.7497,-4.7497,-4.7497,-4.7497,-4.7497,-4.7497,-4.7497,-4.7497,-4.7497,-4.7497,-4.7497,-4.7497,-4.7497,-4.7497,-4.7497,-4.7497,-4.7497,-4.7497,-4.7497,-4.7497,-4.7497,-4.7497,-4.7497,-4.7497,-4.7497,-4.7497,-4.7497,-4.7497,-4.7497,-4.7642,-4.8002,-4.8396,-4.8931,-4.9363,-5.1161,-5.2252,-5.2149,-5.3126,-5.4234,-5.5399,-5.5769,-5.6018,-5.6194,-5.6219,-5.6219,-5.6219,-5.6072,-5.5852,-5.5411,-5.5782,-5.62,-5.6549,-5.6549,-5.6838,-4.8151,-4.7343,-4.6273,-4.494,-4.3336,-4.1708,-4.0248,-3.9753,-3.9369,-3.8479,-3.8575,-3.8888,-3.908,-3.896,-3.9056,-3.9777,-4.0619,0.0,0.0,0.0,0.0,0.0,0.0,0.0,0.0,0.0,0.0,0.0,0.0,0.0,-4.7497,-4.7497,-4.7497,-4.7497,-4.7497,-4.7497,-4.7497,-4.7497,-4.7497,-4.7497,-4.7497,-4.6944,-4.5934,-4.5934,-4.5293,0.0,0.0,0.0,0.0,-4.4861,-4.5453,-4.5982,-4.6511,-4.704,-4.7497,-4.7497,-4.7497,-4.7497,-4.7497,-4.7497,-4.7497,-4.7497,-4.7497,-4.7497,-4.7497,-4.7497,-4.7497,-4.7497,-4.7497,-4.7497,-4.7497,-4.7497,-4.7497,-4.7497,-4.7497,-4.7497,-4.7497,-4.7497,-4.7497,-4.7497,-4.7497,-4.7497,-4.7497,-4.7497,-4.7497,-4.7497,-4.7666,-4.7997,-4.8469,-4.9058,-4.9718,-5.0332,-5.2292,-5.3466,-5.3408,-5.4256,-5.5249,-5.6168,-5.6219,-5.6219,-5.6219,-5.6219,-5.6219,-5.6219,-5.6219,-5.6099,-5.593,-5.655,-5.7015,-5.7527,-5.7257,-5.7315,0.0,-4.6814,-4.5434,-4.4863,-4.347,-4.1943,-4.0675,-4.0002,0.0,-3.8888,-3.8815,-3.9032,-3.9513,-3.92,-3.9224,-4.0282,-4.0932,0.0,0.0,0.0,0.0,0.0,0.0,0.0,0.0,0.0,0.0,0.0,0.0,0.0,-4.7497,-4.7497,-4.7497,-4.7497,-4.7497,-4.7497,-4.7497,-4.7497,-4.7497,-4.7497,-4.7497,-4.6944,-4.5934,-4.5934,-4.5293,0.0,0.0,0.0,0.0,-4.4909,-4.5414,-4.5982,-4.6535,-4.7064,-4.7497,-4.7497,-4.7497,-4.7497,-4.7497,-4.7497,-4.7497,-4.7497,-4.7497,-4.7497,-4.7497,-4.7497,-4.7497,-4.7497,-4.7497,-4.7497,-4.7497,-4.7497,-4.7497,-4.7497,-4.7497,-4.7497,-4.7497,-4.7497,-4.7497,-4.7497,-4.7497,-4.7497,-4.7497,-4.7521,-4.7569,-4.7569,-4.8002,-4.8565,-4.8974,-4.9894,-5.0778,-5.1538,-5.3118,-5.3982,-5.3758,-5.5239,-5.6194,-5.6168,-5.6194,-5.6219,-5.6219,-5.6219,-5.6219,-5.6219,-5.6171,-5.6349,-5.6551,-5.7188,-5.7552,-5.7601,-5.757,-5.7552,-4.6707,0.0,-4.722,-4.6242,-4.4969,-4.3396,0.0,-4.0343,-3.9826,-3.8455,-3.8839,-3.9465,-3.9585,-3.9513,-3.9753,-4.0836,-4.1774,-4.2567,-4.3072,0.0,0.0,0.0,0.0,0.0,0.0,0.0,0.0,0.0,0.0,-4.7497,-4.7497,-4.7497,-4.7497,-4.7497,-4.7497,-4.7497,-4.7497,-4.7497,-4.7497,-4.7497,-4.7497,-4.6944,-4.5934,-4.5934,-4.5293,0.0,0.0,0.0,-4.4357,-4.5293,-4.5814,-4.6006,-4.6944,-4.7401,-4.7497,-4.7497,-4.7497,-4.7497,-4.7497,-4.7497,-4.7497,-4.7497,-4.7497,-4.7497,-4.7497,-4.7497,-4.7497,-4.7497,-4.7497,-4.7497,-4.7497,-4.7497,-4.7497,-4.7497,-4.7497,-4.7497,-4.7497,-4.7497,-4.7497,-4.7497,-4.7497,-4.7497,-4.7497,-4.7834,-4.8098,-4.8098,-4.885,-4.9538,-4.9996,-5.0769,-5.1569,-5.2128,-5.3553,-5.4265,-5.3758,-5.5239,-5.6018,-5.5616,-5.5968,-5.6219,-5.6219,-5.6219,-5.6219,-5.6219,-5.6325,-5.695,-5.8176,-5.7712,-5.7879,-5.8533,-5.7898,-5.7412,-4.589,-4.6335,-4.6656,-4.6089,-4.4889,-4.3358,-4.1625,-4.0611,-3.9777,-3.8912,-3.92,-3.9681,-3.9922,-3.9777,-3.9946,-4.1004,-4.187,0.0,0.0,0.0,0.0,0.0,0.0,0.0,0.0,0.0,0.0,0.0,0.0,-4.7497,-4.7497,-4.7497,-4.7497,-4.7497,-4.7497,-4.7497,-4.7497,-4.7497,-4.7497,-4.7497,-4.7497,-4.6944,-4.5934,-4.5934,-4.5293,0.0,0.0,0.0,-4.4357,-4.5501,-4.5934,-4.603,-4.7088,-4.7497,-4.7497,-4.7497,-4.7497,-4.7497,-4.7497,-4.7497,-4.7497,-4.7497,-4.7497,-4.7497,-4.7497,-4.7497,-4.7497,-4.7497,-4.7497,-4.7497,-4.7497,-4.7497,-4.7497,-4.7497,-4.7497,-4.7497,-4.7497,-4.7305,-4.7136,-4.7136,-4.7136,-4.7209,-4.7473,-4.793,-4.8363,-4.8603,-4.9451,-5.0162,-5.0661,-5.1413,-5.2098,-5.2604,-5.3518,-5.4034,-5.3733,-5.5013,-5.5717,-5.5415,-5.5917,-5.6219,-5.6219,-5.6219,-5.6319,-5.657,-5.7175,-5.7875,-5.873,-5.8245,-5.8365,-5.8862,-5.7667,-5.7033,-4.5279,-4.5136,-4.5252,-4.561,-4.4353,-4.2918,-4.2446,-4.104,-3.9826,-3.9753,-3.9729,-3.9898,-4.0427,-4.009,0.0,0.0,0.0,0.0,-4.4813,-4.5453,0.0,0.0,0.0,0.0,0.0,0.0,0.0,0.0,0.0,-4.7497,-4.7497,-4.7497,-4.7497,-4.7497,-4.7497,-4.7497,-4.7497,-4.7497,-4.7497,-4.7497,-4.7425,-4.6872,-4.5934,-4.5838,-4.5197,-4.4285,0.0,0.0,-4.4357,-4.5501,-4.5934,-4.603,-4.7088,-4.7497,-4.7497,-4.7497,-4.7497,-4.7497,-4.7497,-4.7497,-4.7497,-4.7497,-4.7497,-4.7497,-4.7497,-4.7497,-4.7497,-4.7497,-4.7497,-4.7497,-4.7497,-4.7497,-4.7497,-4.7497,-4.7497,-4.7497,-4.7497,-4.7088,-4.6728,-4.6824,-4.6889,-4.7082,-4.7521,-4.819,-4.8744,-4.9201,-5.0052,-5.0763,-5.1152,-5.1842,-5.2485,-5.2836,-5.3331,-5.3582,-5.3582,-5.4687,-5.5365,-5.5265,-5.5867,-5.6244,-5.6344,-5.6344,-5.6646,-5.7273,-5.8227,-5.873,-5.873,-5.8653,-5.8598,-5.8613,-5.7158,-5.6529,-4.4678,-4.4565,-4.4939,-4.6532,-4.527,-4.357,-4.3542,-4.2218,-4.0812,-4.0355,-4.0282,-4.0427,0.0,-4.0643,-4.0763,0.0,0.0,-4.4189,0.0,0.0,0.0,0.0,0.0,0.0,0.0,0.0,0.0,0.0,0.0,-4.7497,-4.7497,-4.7497,-4.7497,-4.7497,-4.7497,-4.7497,-4.7497,-4.7497,-4.7497,-4.7497,-4.704,-4.6511,-4.591,-4.5453,-4.4861,-4.4285,0.0,-4.4285,-4.4357,-4.5501,-4.5934,-4.603,-4.7088,-4.7497,-4.7497,-4.7497,-4.7497,-4.7497,-4.7497,-4.7497,-4.7497,-4.7497,-4.7497,-4.7497,-4.7497,-4.7497,-4.7497,-4.7497,-4.7497,-4.7497,-4.7497,-4.7497,-4.7497,-4.7497,-4.7497,-4.7497,-4.7497,-4.7088,-4.6848,-4.7305,-4.7665,-4.7967,-4.8141,-4.9237,-5.0146,-5.0218,-5.0982,-5.1767,-5.2159,-5.2179,-5.2334,-5.2879,-5.3005,-5.3055,-5.3055,-5.4486,-5.5189,-5.4712,-5.5641,-5.642,-5.6897,-5.6922,-5.7399,-5.8453,-5.8629,-5.873,-5.873,-5.8347,-5.7893,-5.7419,-5.6507,-5.5832,-4.4676,-4.4744,-4.5183,-4.642,-4.5422,-4.4147,-4.4201,-4.3153,-4.185,-4.1031,0.0,0.0,0.0,0.0,-4.1677,-4.2952,0.0,-4.4477,-4.5005,0.0,0.0,0.0,0.0,0.0,0.0,0.0,0.0,0.0,0.0,0.0,-4.7497,-4.7497,-4.7497,-4.7497,-4.7497,-4.7497,-4.7497,-4.7497,-4.7353,-4.7064,-4.6824,-4.6295,-4.5501,-4.5173,-4.4789,-4.4285,0.0,-4.4285,-4.4357,-4.5501,-4.5934,-4.603,-4.7088,-4.7497,-4.7497,-4.7497,-4.7497,-4.7497,-4.7497,-4.7497,-4.7497,-4.7497,-4.7497,-4.7497,-4.7497,-4.7497,-4.7497,-4.7497,-4.7497,-4.7497,-4.7497,-4.7497,-4.7497,-4.7497,-4.7497,-4.7497,-4.7497,-4.6872,-4.6535,-4.7353,-4.7172,-4.7213,-4.8166,-4.8971,-4.9752,-5.0336,-5.1112,-5.1699,-5.1905,-5.2047,-5.2076,-5.2051,-5.2051,-5.2277,-5.2879,-5.3884,-5.4888,-5.5842,-5.6369,-5.6771,-5.7022,-5.7625,-5.8052,-5.8278,-5.8579,-5.873,-5.873,-5.7875,-5.7524,-5.7574,-5.6124,-5.5648,-4.4844,-4.5063,-4.5493,-4.6139,-4.5271,-4.443,-4.489,-4.3716,-4.2294,-4.172,0.0,0.0,0.0,-4.1894,0.0,-4.3553,-4.3997,-4.4429,-4.4837,-4.5245,0.0,0.0,0.0,0.0,0.0,0.0,0.0,0.0,0.0,0.0,-4.7497,-4.7497,-4.7497,-4.7497,-4.7497,-4.7449,-4.7329,-4.7329,-4.7112,-4.6704,-4.6583,-4.6054,-4.514,-4.4957,-4.4669,-4.4285,-4.4285,-4.4285,-4.4357,-4.5501,-4.5934,-4.603,-4.7088,-4.7497,-4.7497,-4.7497,-4.7497,-4.7497,-4.7497,-4.7497,-4.7497,-4.7497,-4.7497,-4.7497,-4.7497,-4.7497,-4.7497,-4.7497,-4.7497,-4.7497,-4.7497,-4.7497,-4.7497,-4.7497,-4.7497,-4.7497,-4.7497,-4.668,-4.6247,-4.7371,-4.6882,-4.6689,-4.8227,-4.8859,-4.9425,-5.0299,-5.0968,-5.1333,-5.1469,-5.1572,-5.1599,-5.1322,-5.1272,-5.1825,-5.3206,-5.3683,-5.4787,-5.6897,-5.6922,-5.6897,-5.7022,-5.7876,-5.8202,-5.7901,-5.8303,-5.8453,-5.8328,-5.7449,-5.7198,-5.7474,-5.593,-5.5605,-4.4844,-4.5063,-4.5493,-4.6139,-4.5017,-4.4204,-4.5897,-4.3716,-4.1606,-4.2575,0.0,0.0,0.0,-4.2735,-4.3601,-4.4117,-4.4261,-4.4309,-4.4333,0.0,0.0,0.0,0.0,0.0,0.0,0.0,0.0,0.0,0.0,0.0,-4.7497,-4.7497,-4.7497,-4.7497,-4.7497,-4.7257,-4.6776,-4.6776,-4.6752,-4.6704,-4.6223,-4.5694,-4.5053,-4.4573,-4.4333,-4.4285,-4.4285,-4.4285,-4.4357,-4.5501,-4.5934,-4.603,-4.7088,-4.7497,-4.7497,-4.7497,-4.7497,-4.7497,-4.7497,-4.7497,-4.7497,-4.7497,-4.7497,-4.7497,-4.7497,-4.7497,-4.7497,-4.7497,-4.7497,-4.7497,-4.7497,-4.7497,-4.7497,-4.7497,-4.7497,-4.7497,-4.7497,-4.668,-4.6311,-4.77,-4.7564,-4.7645,-4.8967,-4.9738,-5.0216,-5.0603,-5.0695,-5.0896,-5.1256,-5.087,-5.072,-5.1222,-5.1272,-5.2151,-5.426,-5.4486,-5.5239,-5.6922,-5.6545,-5.6495,-5.7022,-5.7123,-5.7399,-5.7901,-5.7951,-5.77,-5.7148,-5.7072,-5.6796,-5.6344,-5.5881,-5.5752,-4.5531,-4.5751,-4.6083,-4.6701,-4.6428,-4.5849,-4.5369,-4.3943,-4.2667,-4.2381,-4.2268,0.0,0.0,0.0,-4.3794,-4.4621,-4.4501,-4.4285,-4.4285,0.0,0.0,0.0,0.0,0.0,0.0,0.0,0.0,0.0,0.0,0.0,-4.7497,-4.7497,-4.7497,-4.7497,-4.7497,-4.7257,-4.6728,-4.6704,-4.6391,-4.5718,-4.5525,-4.5101,-4.4573,-4.4381,-4.4285,-4.4285,-4.4285,-4.4285,-4.4357,-4.5501,-4.5934,-4.603,-4.7088,-4.7497,-4.7497,-4.7497,-4.7497,-4.7497,-4.7497,-4.7497,-4.7497,-4.7497,-4.7497,-4.7497,-4.7497,-4.7497,-4.7497,-4.7497,-4.7497,-4.7497,-4.7497,-4.7497,-4.7497,-4.7497,-4.7497,-4.7497,-4.7497,-4.7406,-4.753,-4.8324,-4.8272,-4.8347,-4.9173,-4.9396,-4.9686,-5.0141,-5.0389,-5.0588,-5.0745,-5.087,-5.0896,-5.077,-5.1674,-5.2779,-5.3934,-5.4662,-5.5491,-5.647,-5.6646,-5.6821,-5.7022,-5.7374,-5.7499,-5.7374,-5.7374,-5.7248,-5.7022,-5.64,-5.63,-5.6647,-5.6128,-5.6196,-4.5938,-4.6186,-4.6448,-4.7066,-4.7122,-4.6757,-4.5714,-4.4686,-4.3901,-4.3441,-4.3354,-4.3529,-4.4357,0.0,0.0,0.0,-4.4621,-4.4285,-4.4285,0.0,0.0,0.0,0.0,0.0,0.0,0.0,0.0,0.0,0.0,0.0,0.0,-4.7497,-4.7497,-4.7497,-4.7329,-4.6992,-4.6463,-4.6295,-4.5766,-4.4813,-4.4813,-4.4645,-4.4285,-4.4285,-4.4285,-4.4285,-4.4285,-4.4285,-4.4419,-4.5896,-4.6974,-4.7725,-4.8466,-4.8763,-4.8763,-4.8763,-4.8502,-4.8199,-4.8632,-4.8199,-4.763,-4.8502,-4.8199,-4.7563,-4.8002,-4.787,-4.763,-4.7497,-4.763,-4.7786,-4.7563,-4.7497,-4.7497,-4.7497,-4.7563,-4.763,-4.7497,-4.7773,-4.8084,-4.8464,-4.8452,-4.8518,-4.915,-4.919,-4.9262,-4.97,-5.0012,-5.0218,-5.0393,-5.077,-5.1071,-5.1197,-5.2251,-5.3281,-5.416,-5.4938,-5.5616,-5.6168,-5.657,-5.6771,-5.6771,-5.7148,-5.7173,-5.6771,-5.6771,-5.6872,-5.7022,-5.635,-5.645,-5.7224,-5.6799,-5.6991,-4.5938,-4.6186,-4.6448,-4.7066,-4.6818,-4.6589,-4.7187,-4.5924,-4.4947,-4.6113,-4.5295,-4.4453,-4.4981,0.0,0.0,-4.5077,-4.4621,-4.4285,0.0,0.0,0.0,0.0,0.0,0.0,0.0,0.0,0.0,0.0,0.0,0.0,0.0,-4.7497,-4.7497,-4.7497,-4.6992,-4.6463,-4.5934,-4.5342,-4.4813,-4.4285,-4.4285,-4.4285,-4.4285,-4.4285,-4.4285,-4.4285,-4.4285,-4.4285,-4.4481,-4.6936,-4.93,-5.1492,-5.1492,-5.1492,-5.1492,-5.1492,-5.0638,-4.9682,-5.0991,-4.9746,-4.7936,-5.0638,-4.9682,-4.7762,-4.9127,-4.8828,-4.7894,-4.763,-4.805,-4.8379,-4.7696,-4.7497,-4.7497,-4.7497,-4.7762,-4.7894,-4.7563,-4.7678,-4.7847,-4.7994,-4.7938,-4.813,-4.8973,-4.9072,-4.9202,-4.9525,-4.959,-4.9791,-5.0368,-5.0444,-5.1071,-5.2754,-5.2955,-5.3607,-5.5239,-5.539,-5.5616,-5.6168,-5.6219,-5.6219,-5.6219,-5.6219,-5.6219,-5.6219,-5.6219,-5.6495,-5.7047,-5.6973,-5.7349,-5.7926,-5.7996,-5.8117,-4.5881,-4.6253,-4.6812,-4.8134,-4.869,-4.9067,-4.9679,-4.7086,0.0,0.0,-4.4597,-4.4453,-4.4981,0.0,0.0,-4.5005,-4.4621,-4.4285,0.0,0.0,0.0,0.0,0.0,0.0,0.0,0.0,0.0,0.0,0.0,0.0,0.0,-4.7497,-4.7497,-4.7497,-4.6992,-4.6463,-4.5934,-4.5342,-4.4813,-4.4285,-4.4285,-4.4285,-4.4285,-4.4285,-4.4285,-4.4285,-4.4285,-4.4816,-4.5842,-4.8237,-5.0104,-5.1492,-5.1492,-5.1492,-5.1492,-5.1492,-5.1242,-5.0802,-5.0257,-5.0194,-5.013,-4.9063,-4.8828,-4.8998,-4.9682,-4.8803,-4.787,-4.8933,-4.8567,-4.7786,-4.7563,-4.7696,-4.7828,-4.7828,-4.7894,-4.8026,-4.8248,-4.9109,-4.9661,-4.8911,-4.9569,-5.0081,-4.9561,-4.9461,-4.9461,-4.959,-4.9916,-5.0519,-5.1473,-5.195,-5.2503,-5.3381,-5.4185,-5.4863,-5.534,-5.5742,-5.6043,-5.6194,-5.6219,-5.6219,-5.6219,-5.6219,-5.6394,-5.6771,-5.6796,-5.7072,-5.765,-5.7325,-5.7599,-5.8478,-5.8247,-5.829,-4.6242,-4.667,-4.7249,-4.8381,-4.9145,-4.9715,-5.0044,0.0,0.0,0.0,-4.4453,-4.4621,-4.4741,-4.4669,0.0,-4.4741,-4.4501,0.0,0.0,0.0,0.0,0.0,0.0,0.0,0.0,0.0,0.0,0.0,0.0,0.0,0.0,-4.7497,-4.7497,-4.7497,-4.6776,-4.6247,-4.5934,-4.5125,-4.4597,-4.4285,-4.4285,-4.4285,-4.4285,-4.4285,-4.457,-4.5061,-4.5282,-4.6251,-4.7777,-4.9438,-5.1353,-5.3059,-5.3059,-5.3059,-5.3059,-5.3059,-5.2754,-5.2262,-5.1989,-5.1705,-5.1304,-5.0257,-5.0194,-5.0549,-5.0739,-4.9874,-4.9063,-4.9938,-4.9192,-4.8092,-4.7762,-4.796,-4.8182,-4.8026,-4.8394,-4.8805,-4.8895,-4.9825,-5.0439,-4.9438,-5.0008,-5.0472,-4.9546,-4.9525,-4.9665,-4.9891,-5.0594,-5.1322,-5.2026,-5.2754,-5.3432,-5.3984,-5.4838,-5.5491,-5.5691,-5.6018,-5.6219,-5.6219,-5.642,-5.6545,-5.6545,-5.6545,-5.6696,-5.7022,-5.7273,-5.765,-5.8227,-5.7975,-5.825,-5.9031,-5.8775,-5.8594,-4.6642,-4.725,-4.7659,-4.8122,-4.8724,-4.9169,-4.9091,-4.8676,-4.7567,-4.5,0.0,-4.4861,-4.4381,-4.4669,-4.4837,-4.4357,-4.4285,0.0,0.0,0.0,0.0,0.0,0.0,0.0,0.0,0.0,0.0,0.0,0.0,0.0,0.0,-4.7497,-4.7539,-4.7623,-4.6633,-4.6014,-4.5966,-4.4953,-4.4409,-4.4285,-4.4285,-4.4285,-4.4285,-4.4409,-4.5159,-4.6431,-4.7046,-4.8368,-5.0146,-5.0785,-5.2848,-5.5554,-5.5554,-5.5554,-5.5554,-5.5554,-5.4734,-5.3812,-5.4939,-5.3812,-5.2051,-5.3059,-5.2849,-5.2209,-5.2112,-5.1554,-5.0891,-5.0764,-4.99,-4.8877,-4.833,-4.8486,-4.8641,-4.8296,-4.9059,-4.9826,-4.9561,-5.0181,-5.0471,-4.966,-4.9719,-4.9809,-4.9237,-4.9446,-4.9866,-5.0469,-5.1448,-5.2126,-5.2176,-5.308,-5.3934,-5.4511,-5.5064,-5.5616,-5.6168,-5.6269,-5.6294,-5.6294,-5.6796,-5.7123,-5.7123,-5.7123,-5.7123,-5.7173,-5.77,-5.8252,-5.878,-5.878,-5.9031,-5.9483,-5.9433,-5.9002,-4.6264,-4.6975,-4.772,-4.8821,-4.9808,-5.0341,-4.9855,-4.9594,-4.882,-4.6345,-4.5073,-4.4429,-4.4309,-4.4381,-4.4429,-4.4309,0.0,0.0,0.0,0.0,0.0,0.0,0.0,0.0,0.0,0.0,0.0,0.0,0.0,0.0,-4.7497,-4.7497,-4.7741,-4.8313,-4.7731,-4.7184,-4.6737,-4.6152,-4.5281,0.0,-4.4285,-4.4285,-4.4347,-4.5342,-4.65,-4.7769,-4.934,-5.0596,-5.1539,-5.3103,-5.4616,-5.5932,-5.5932,-5.5932,-5.5932,-5.5932,-5.5554,-5.4939,-5.4199,-5.4437,-5.4734,-5.291,-5.3005,-5.373,-5.3032,-5.1741,-5.0891,-5.2112,-5.0448,-4.8461,-4.9643,-5.0028,-5.0026,-4.9594,-4.9727,-4.9958,-5.0156,-5.0738,-5.0964,-5.0322,-5.0222,-5.0112,-4.9561,-4.9877,-5.0569,-5.1599,-5.195,-5.2251,-5.2703,-5.3306,-5.3934,-5.4511,-5.5064,-5.5616,-5.6168,-5.662,-5.6846,-5.6846,-5.7399,-5.77,-5.77,-5.77,-5.7901,-5.8353,-5.8478,-5.8805,-5.9332,-5.9332,-5.9382,-5.9483,-5.9081,-5.8753,-4.6155,-4.7098,-4.8181,-4.9722,0.0,-5.1082,-5.0989,-5.0434,-4.9505,-4.8242,-4.65,-4.522,-4.522,-4.4693,-4.4285,-4.4285,0.0,0.0,0.0,0.0,0.0,0.0,0.0,0.0,0.0,0.0,0.0,0.0,0.0,-4.7497,-4.7497,-4.8133,-4.8516,-4.8584,-4.8694,-4.8503,-4.794,-4.7376,-4.6798,-4.6105,-4.6105,-4.644,-4.6951,-4.644,-4.707,-4.8597,-4.9823,-5.1057,-5.2326,-5.372,-5.5012,-5.6019,-5.6135,-5.6077,-5.599,-5.599,-5.5787,-5.5379,-5.4675,-5.5116,-5.5671,-5.3604,-5.4116,-5.5383,-5.4236,-5.3429,-5.3005,-5.3877,-5.1803,-4.9579,-5.1242,-5.0843,-5.0122,-5.0684,-5.1158,-5.1438,-5.1213,-5.1314,-5.1272,-5.088,-5.0488,-5.0147,-4.9977,-5.067,-5.1423,-5.2026,-5.2327,-5.2603,-5.2879,-5.3632,-5.4235,-5.4607,-5.529,-5.6018,-5.657,-5.6872,-5.7148,-5.7424,-5.7976,-5.8303,-5.8303,-5.8529,-5.8679,-5.873,-5.8956,-5.9232,-5.9483,-5.9483,-5.9357,-5.9131,-5.9106,-5.8728,-4.6114,-4.7433,-4.8833,-5.0469,-5.1038,0.0,-5.2026,-5.1183,-5.021,-5.021,-4.8242,-4.6525,-4.6525,-4.5464,-4.4631,0.0,0.0,0.0,0.0,0.0,0.0,0.0,0.0,0.0,0.0,0.0,0.0,0.0,0.0,-4.7497,-4.7497,-4.8664,-4.9177,-4.8813,-4.9585,-4.9673,-4.9094,-4.8621,-4.8326,-4.8094,-4.8094,-4.8705,-4.9788,-4.7645,-4.7777,-4.969,-5.0214,-5.1454,-5.3143,-5.3984,-5.5088,-5.6193,-5.6423,-5.6308,-5.6105,-5.6135,-5.5903,-5.5554,-5.5613,-5.5845,-5.5961,-5.4825,-5.5615,-5.6737,-5.5383,-5.5208,-5.5412,-5.5412,-5.3248,-5.1304,-5.2971,-5.181,-5.0499,-5.2064,-5.2917,-5.3101,-5.2245,-5.1804,-5.1562,-5.1306,-5.0556,-5.0124,-5.0604,-5.1498,-5.2126,-5.2226,-5.2628,-5.2929,-5.2929,-5.3808,-5.4461,-5.4561,-5.5465,-5.6344,-5.6972,-5.7123,-5.7424,-5.8001,-5.8554,-5.8855,-5.8855,-5.9257,-5.9307,-5.8855,-5.9282,-5.9483,-5.9483,-5.9408,-5.9182,-5.8855,-5.9106,-5.8627,-4.614,0.0,-4.9507,0.0,-5.0852,-5.0804,0.0,0.0,-5.1568,0.0,-4.9589,-4.786,-4.786,-4.6798,0.0,0.0,0.0,0.0,0.0,0.0,0.0,0.0,0.0,0.0,0.0,0.0,0.0,0.0,-4.7497,-4.7497,-4.7497,-4.8253,-4.8976,-4.9559,-5.0238,-5.0347,-4.9754,-4.9729,-4.9106,-4.8094,-4.8094,-4.8705,-4.9872,-4.9001,-4.9934,-5.2268,-5.2909,-5.375,-5.4769,-5.5475,-5.6135,-5.6766,-5.6823,-5.6652,-5.6394,-5.6652,-5.6423,-5.599,-5.6193,-5.6537,-5.6766,-5.6566,-5.6851,-5.7021,-5.5703,-5.5325,-5.5412,-5.5412,-5.4057,-5.3032,-5.4679,-5.4133,-5.3494,-5.4566,-5.433,-5.3567,-5.2346,-5.2033,-5.1858,-5.1398,-5.0754,-5.0654,-5.1724,-5.2,-5.2277,-5.2754,-5.2879,-5.2929,-5.2929,-5.3457,-5.4009,-5.4511,-5.5114,-5.5917,-5.6947,-5.7499,-5.8027,-5.8579,-5.9106,-5.9382,-5.9382,-5.9458,-5.9458,-5.9382,-5.9458,-5.9483,-5.9483,-5.9056,-5.9031,-5.9382,-5.8504,-5.8278,-4.5518,-4.7862,-4.984,0.0,-5.1155,-5.1109,-5.2234,0.0,-5.1581,-5.1785,-5.0934,-4.9928,-4.9221,0.0,0.0,0.0,0.0,0.0,0.0,0.0,0.0,0.0,0.0,0.0,0.0,0.0,0.0,0.0,-4.9746,-4.962,-4.9254,-5.023,-5.0662,-5.0271,-5.1304,-5.1515,-5.0962,-5.0962,-5.0684,-5.0154,-5.0154,-5.0625,-5.1488,-5.1172,-5.1899,-5.3276,-5.3181,-5.4081,-5.5565,-5.6021,-5.648,-5.6936,-5.7107,-5.6908,-5.6709,-5.688,-5.6595,-5.625,-5.6337,-5.6652,-5.688,-5.688,-5.7078,-5.7191,-5.6651,-5.648,-5.648,-5.648,-5.5325,-5.4378,-5.551,-5.4501,-5.362,-5.5375,-5.5135,-5.4429,-5.3855,-5.2911,-5.195,-5.1398,-5.1322,-5.1523,-5.2026,-5.2352,-5.2653,-5.2879,-5.2929,-5.2929,-5.2929,-5.3658,-5.4285,-5.4536,-5.5616,-5.652,-5.6997,-5.7851,-5.8453,-5.8704,-5.9207,-5.9483,-5.9483,-5.9483,-5.9483,-5.9483,-5.9207,-5.9056,-5.9056,-5.883,-5.8679,-5.8604,-5.873,-5.8755,0.0,0.0,-4.9059,-5.0511,-5.0803,-5.1011,0.0,0.0,-5.1431,0.0,-5.1841,-5.1485,0.0,0.0,0.0,0.0,0.0,0.0,0.0,0.0,0.0,0.0,0.0,0.0,0.0,0.0,0.0,0.0,-5.1361,-5.11,-5.062,-5.1576,-5.1688,-5.0709,-5.1849,-5.2264,-5.1787,-5.1787,-5.1787,-5.1787,-5.1955,-5.2264,-5.2714,-5.3051,-5.3445,-5.3922,-5.3392,-5.4296,-5.6135,-5.6308,-5.6595,-5.6936,-5.7191,-5.7078,-5.6766,-5.6936,-5.6823,-5.6509,-5.6623,-5.6794,-5.6993,-5.6993,-5.7134,-5.7303,-5.7303,-5.7303,-5.7303,-5.7303,-5.6566,-5.5896,-5.6552,-5.5388,-5.4496,-5.6223,-5.5794,-5.5061,-5.5459,-5.3839,-5.2312,-5.2219,-5.2296,-5.2302,-5.2302,-5.2653,-5.2929,-5.2929,-5.2929,-5.298,-5.3105,-5.3959,-5.4612,-5.4762,-5.6018,-5.6872,-5.7022,-5.7951,-5.8579,-5.8704,-5.9207,-5.9483,-5.9483,-5.9483,-5.9433,-5.9282,-5.878,-5.8579,-5.873,-5.873,-5.8504,-5.8127,-5.893,-5.9079,0.0,-4.5488,0.0,-4.842,-4.9155,0.0,0.0,0.0,0.0,0.0,-5.195,0.0,0.0,0.0,0.0,0.0,0.0,0.0,0.0,0.0,0.0,0.0,0.0,0.0,0.0,0.0,0.0,0.0,-5.0995,-5.062,-5.0594,-5.0741,-5.0736,-5.0682,-5.1433,-5.1815,-5.1787,-5.1787,-5.1787,-5.1787,-5.2377,-5.2686,-5.2742,-5.395,-5.4512,-5.454,-5.4511,-5.5222,-5.6394,-5.6394,-5.6595,-5.6936,-5.7191,-5.6964,-5.6509,-5.7078,-5.7107,-5.6936,-5.7134,-5.7247,-5.7303,-5.7303,-5.7303,-5.7303,-5.7303,-5.7303,-5.7303,-5.7303,-5.7711,-5.8147,-5.8176,-5.8016,-5.7864,-5.7953,-5.6476,-5.5326,-5.6585,-5.4768,-5.3265,-5.4541,-5.3784,-5.2879,-5.2879,-5.2904,-5.2929,-5.2929,-5.2929,-5.3105,-5.3607,-5.4185,-5.4762,-5.529,-5.5892,-5.647,-5.6997,-5.76,-5.8152,-5.8679,-5.9207,-5.9483,-5.9483,-5.9483,-5.9257,-5.873,-5.8202,-5.8202,-5.873,-5.873,-5.8704,-5.8679,-5.873,-5.8775,0.0,0.0,0.0,-4.7143,-4.7601,-4.8316,-5.0681,-5.0909,-5.0989,-5.2259,0.0,0.0,0.0,0.0,0.0,0.0,0.0,0.0,0.0,0.0,0.0,0.0,0.0,0.0,0.0,0.0,0.0,0.0,0.0,-5.2818,-5.1966,-5.1983,-5.1821,-5.1433,-5.168,-5.1787,-5.1787,-5.1787,-5.1983,-5.2377,-5.2602,-5.3135,-5.3922,-5.4372,-5.4909,-5.5477,-5.5477,-5.5821,-5.6394,-5.6652,-5.6851,-5.7134,-5.7247,-5.7191,-5.7021,-5.7247,-5.7247,-5.7134,-5.7247,-5.7303,-5.7303,-5.7303,-5.7303,-5.7303,-5.7303,-5.7303,-5.7303,-5.7303,-5.7768,-5.8205,-5.7705,-5.7849,-5.8004,-5.752,-5.7542,-5.7624,-5.7618,-5.5855,-5.4251,-5.4133,-5.3475,-5.303,-5.3356,-5.3155,-5.2929,-5.2929,-5.3206,-5.3482,-5.3683,-5.4511,-5.5164,-5.5365,-5.6194,-5.6671,-5.652,-5.7374,-5.7976,-5.8177,-5.8704,-5.9156,-5.9483,-5.9483,-5.9408,-5.9207,-5.9006,-5.8679,-5.8202,-5.8202,-5.8378,-5.873,-5.9056,-5.9075,-4.0873,0.0,0.0,0.0,0.0,-4.7825,-4.9915,0.0,-5.1058,0.0,0.0,0.0,0.0,0.0,0.0,0.0,0.0,0.0,0.0,0.0,0.0,0.0,0.0,0.0,0.0,0.0,0.0,0.0,0.0,0.0,-5.2742,-5.2517,-5.2208,-5.1787,-5.1787,-5.1787,-5.1787,-5.1983,-5.2293,-5.2714,-5.3135,-5.3782,-5.4597,-5.4909,-5.542,-5.6048,-5.6193,-5.6423,-5.6595,-5.6823,-5.6993,-5.7134,-5.7247,-5.7247,-5.7191,-5.7247,-5.7303,-5.7303,-5.7303,-5.7303,-5.7303,-5.7303,-5.7303,-5.7303,-5.7303,-5.7303,-5.7361,-5.7565,-5.8116,-5.861,-5.8303,-5.8329,-5.8311,-5.785,-5.8226,-5.8566,-5.8048,-5.6518,-5.5117,-5.4482,-5.3753,-5.3231,-5.3406,-5.3155,-5.2929,-5.2929,-5.3356,-5.3758,-5.3959,-5.4813,-5.5465,-5.5641,-5.6319,-5.662,-5.6244,-5.7072,-5.77,-5.7901,-5.8252,-5.8755,-5.9458,-5.9332,-5.9232,-5.9232,-5.9232,-5.888,-5.8177,-5.8353,-5.8529,-5.873,-5.9257,-5.9198,0.0,0.0,0.0,0.0,0.0,0.0,-4.8615,0.0,0.0,0.0,0.0,0.0,0.0,0.0,0.0,0.0,0.0,0.0,0.0,0.0,0.0,0.0,0.0,0.0,0.0,0.0,0.0,0.0,-5.3388,-5.2686,-5.2686,-5.2124,-5.1787,-5.1787,-5.1787,-5.1787,-5.1787,-5.2405,-5.2714,-5.2742,-5.3978,-5.4597,-5.4625,-5.5591,-5.5961,-5.6019,-5.6652,-5.688,-5.6936,-5.6936,-5.6936,-5.6936,-5.7191,-5.7134,-5.6936,-5.7191,-5.7303,-5.7303,-5.7303,-5.7303,-5.7303,-5.7303,-5.7303,-5.7303,-5.7303,-5.7303,-5.7477,-5.8116,-5.8813,-5.948,-6.0061,-5.9679,-5.9121,-5.9121,-5.8466,-5.7933,-5.7933,-5.6811,-5.583,-5.583,-5.4697,-5.3557,-5.3055,-5.2955,-5.2955,-5.298,-5.3406,-5.3934,-5.4511,-5.5064,-5.5616,-5.6143,-5.6219,-5.6219,-5.6219,-5.6696,-5.7248,-5.7851,-5.7901,-5.8378,-5.9433,-5.9006,-5.8755,-5.8755,-5.8755,-5.8755,-5.8755,-5.9232,-5.9232,-5.8755,-5.9257,-5.9043,-4.0089,0.0,0.0,0.0,0.0,0.0,0.0,0.0,0.0,0.0,0.0,0.0,0.0,0.0,0.0,0.0,0.0,0.0,0.0,0.0,0.0,0.0,0.0,0.0,0.0,0.0,0.0,0.0,-5.2911,-5.2517,-5.2068,-5.1871,-5.1787,-5.1787,-5.1787,-5.1787,-5.1787,-5.2405,-5.2939,-5.3416,-5.4203,-5.4821,-5.5243,-5.5556,-5.5903,-5.6308,-5.648,-5.6823,-5.7191,-5.7191,-5.7191,-5.7191,-5.7247,-5.7247,-5.7191,-5.7247,-5.7303,-5.7303,-5.7303,-5.7303,-5.7303,-5.7303,-5.7303,-5.7303,-5.7303,-5.7652,-5.8058,-5.8261,-5.9103,-6.009,-6.0758,-6.0022,-5.9121,-5.9121,-5.8493,-5.774,-5.7141,-5.6363,-5.5935,-5.6448,-5.4978,-5.3783,-5.4059,-5.3758,-5.3632,-5.4059,-5.4235,-5.4536,-5.5089,-5.5641,-5.6043,-5.6194,-5.6219,-5.6219,-5.6219,-5.6344,-5.6671,-5.7223,-5.7675,-5.8202,-5.8905,-5.9156,-5.9282,-5.9282,-5.9282,-5.9282,-5.9282,-5.9056,-5.9056,-5.9282,-5.8837,-5.8364,0.0,0.0,0.0,0.0,0.0,0.0,0.0,0.0,0.0,0.0,0.0,0.0,0.0,0.0,0.0,0.0,0.0,0.0,0.0,0.0,0.0,0.0,0.0,0.0,0.0,-5.381,-5.3388,-5.2742,-5.2461,-5.2152,-5.1815,-5.1787,-5.1787,-5.1787,-5.1787,-5.1899,-5.2152,-5.2798,-5.3416,-5.4063,-5.4681,-5.5159,-5.5496,-5.5787,-5.6077,-5.6394,-5.668,-5.6964,-5.7303,-5.7303,-5.7303,-5.7303,-5.7303,-5.7303,-5.7303,-5.7303,-5.7303,-5.7303,-5.7303,-5.7303,-5.7303,-5.7303,-5.7303,-5.7361,-5.7623,-5.8,-5.8406,-5.8958,-5.9829,-6.058,-6.0384,-6.0165,-5.9763,-5.88,-5.888,-5.8937,-5.8038,-5.7183,-5.6503,-5.6269,-5.4867,-5.3884,-5.4461,-5.4285,-5.4185,-5.4511,-5.4762,-5.5039,-5.534,-5.5867,-5.6219,-5.6219,-5.6219,-5.6219,-5.6219,-5.6219,-5.6545,-5.7349,-5.7474,-5.8001,-5.9006,-5.9131,-5.9282,-5.9483,-5.9483,-5.9483,-5.9483,-5.9207,-5.913,-5.9251,-5.8599,-5.805,0.0,0.0,0.0,0.0,0.0,0.0,0.0,0.0,0.0,0.0,0.0,0.0,0.0,0.0,0.0,0.0,0.0,0.0,0.0,0.0,0.0,0.0,0.0,0.0,-5.4428,-5.3978,-5.3388,-5.2742,-5.2124,-5.1787,-5.1787,-5.1787,-5.1787,-5.1787,-5.1787,-5.2096,-5.2686,-5.3332,-5.3978,-5.4597,-5.5215,-5.5496,-5.5554,-5.6135,-5.6394,-5.6451,-5.7021,-5.7247,-5.7303,-5.7303,-5.7303,-5.7303,-5.7303,-5.7303,-5.7303,-5.7303,-5.7303,-5.7303,-5.7303,-5.7303,-5.7303,-5.739,-5.7419,-5.7536,-5.8203,-5.8464,-5.8755,-5.9974,-6.0729,-6.0923,-5.9645,-6.0194,-6.0606,-5.8824,-5.9496,-6.0393,-5.9924,-5.8567,-5.7047,-5.5943,-5.4754,-5.4059,-5.4561,-5.4662,-5.4687,-5.4737,-5.5114,-5.5415,-5.5465,-5.5917,-5.6219,-5.6219,-5.6219,-5.6219,-5.6219,-5.6219,-5.6671,-5.7725,-5.7374,-5.7826,-5.9357,-5.9031,-5.9031,-5.9483,-5.9483,-5.9483,-5.9483,-5.9508,-5.9276,-5.8809,-5.8443,-5.7971,0.0,0.0,0.0,0.0,0.0,0.0,0.0,0.0,0.0,0.0,0.0,0.0,0.0,0.0,0.0,0.0,0.0,0.0,0.0,0.0,0.0,0.0,0.0,0.0,-5.3838,-5.3754,-5.3388,-5.2742,-5.2124,-5.1787,-5.1787,-5.1787,-5.1787,-5.1787,-5.1787,-5.2096,-5.2686,-5.3332,-5.3978,-5.4597,-5.5215,-5.5613,-5.5932,-5.6019,-5.6365,-5.6823,-5.6936,-5.7078,-5.7303,-5.7303,-5.7303,-5.7303,-5.7303,-5.7303,-5.7303,-5.7303,-5.7303,-5.7303,-5.7303,-5.7303,-5.739,-5.7942,-5.8116,-5.8232,-5.89,-5.9451,-6.0003,-6.0787,-6.1106,-6.1133,-6.0863,-6.0537,-6.0472,-6.1113,-5.9762,-5.8844,-6.0899,-5.843,-5.6209,-5.7546,-5.6326,-5.5089,-5.5214,-5.5214,-5.539,-5.5817,-5.5591,-5.5541,-5.5993,-5.6143,-5.6219,-5.6219,-5.6219,-5.6219,-5.6219,-5.6219,-5.6495,-5.7148,-5.7524,-5.8077,-5.883,-5.9182,-5.9382,-5.9483,-5.9483,-5.9483,-5.9483,-5.9173,-5.8809,-5.8364,-5.7971,-5.7497,0.0,0.0,0.0,-4.2208,0.0,0.0,0.0,0.0,0.0,0.0,0.0,0.0,0.0,0.0,0.0,0.0,0.0,0.0,0.0,0.0,0.0,0.0,0.0,0.0,-5.3698,-5.3726,-5.3388,-5.2742,-5.2433,-5.2124,-5.1815,-5.1787,-5.1787,-5.1787,-5.2096,-5.2545,-5.3164,-5.381,-5.4428,-5.5046,-5.5355,-5.5671,-5.5961,-5.6135,-5.648,-5.6936,-5.705,-5.7191,-5.7303,-5.7303,-5.7303,-5.7303,-5.7303,-5.7303,-5.7303,-5.7303,-5.7303,-5.7303,-5.7303,-5.7536,-5.7855,-5.8203,-5.8523,-5.8929,-5.9568,-6.0206,-6.0758,-6.1106,-6.1193,-6.1073,-6.0348,-6.0594,-6.0796,-5.9653,-6.0104,-6.056,-5.959,-5.8675,-5.7945,-5.7755,-5.6881,-5.6219,-5.6219,-5.5993,-5.5993,-5.6545,-5.6143,-5.5892,-5.6168,-5.6219,-5.6219,-5.6219,-5.6219,-5.6219,-5.6219,-5.647,-5.6872,-5.7424,-5.8001,-5.8554,-5.9081,-5.9357,-5.9483,-5.9483,-5.9483,-5.9483,-5.9483,-5.8887,-5.8521,-5.831,-5.7813,-5.7418,0.0,0.0,0.0,0.0,0.0,-4.3137,0.0,0.0,0.0,0.0,0.0,0.0,0.0,0.0,0.0,0.0,0.0,0.0,0.0,0.0,0.0,0.0,0.0,0.0,0.0,-5.381,-5.3698,-5.3107,-5.2967,-5.263,-5.2121,-5.1926,-5.1841,-5.1896,-5.2377,-5.3023,-5.3726,-5.4288,-5.4906,-5.5496,-5.5554,-5.5729,-5.6077,-5.6365,-5.6709,-5.6993,-5.7191,-5.7303,-5.7303,-5.7303,-5.7303,-5.7303,-5.7303,-5.7303,-5.7303,-5.7303,-5.739,-5.7507,-5.7507,-5.7942,-5.8523,-5.8639,-5.9132,-5.9771,-6.0235,-6.0758,-6.1193,-6.1193,-6.1193,-6.0952,-5.9972,-6.0979,-6.1518,-5.8362,-6.0865,-6.2849,-5.8713,-5.9173,-5.9765,-5.7779,-5.717,-5.7022,-5.7022,-5.6771,-5.6646,-5.6972,-5.6646,-5.6344,-5.6219,-5.6219,-5.6219,-5.6219,-5.6219,-5.6244,-5.6369,-5.6771,-5.7323,-5.8001,-5.8478,-5.8956,-5.9483,-5.9483,-5.9483,-5.9483,-5.9483,-5.9483,-5.9483,-5.8756,-5.8364,-5.831,-5.7734,-5.7339,0.0,0.0,0.0,0.0,-4.2934,0.0,0.0,0.0,0.0,0.0,0.0,0.0,0.0,0.0,0.0,0.0,0.0,0.0,0.0,0.0,0.0,0.0,0.0,0.0,0.0,-5.4233,-5.4742,-5.4429,-5.3866,-5.3416,-5.3073,-5.226,-5.1896,-5.2167,-5.2487,-5.3023,-5.3726,-5.4288,-5.4906,-5.5496,-5.5787,-5.6077,-5.6365,-5.6709,-5.6964,-5.7247,-5.7303,-5.7303,-5.7303,-5.7303,-5.7303,-5.7303,-5.7303,-5.7303,-5.7303,-5.7303,-5.7681,-5.8203,-5.8203,-5.8639,-5.9277,-5.98,-6.0438,-6.099,-6.1077,-6.1135,-6.1193,-6.1193,-6.1193,-6.1309,-6.1649,-6.2348,-6.2673,-6.1463,-6.2529,-6.3292,-6.1295,-6.0173,-5.9391,-5.9065,-5.7881,-5.7022,-5.7022,-5.7399,-5.7549,-5.7097,-5.6972,-5.6771,-5.6269,-5.6219,-5.6219,-5.6219,-5.6219,-5.642,-5.6897,-5.6923,-5.7499,-5.8554,-5.8679,-5.8956,-5.9483,-5.9483,-5.9483,-5.9483,-5.9483,-5.9483,-5.9483,-5.9043,-5.8653,-5.831,-5.7418,-5.7021,0.0,0.0,0.0,0.0,0.0,0.0,-4.4095,0.0,-4.2434,0.0,0.0,0.0,0.0,0.0,0.0,0.0,0.0,0.0,0.0,0.0,0.0,0.0,0.0,0.0,0.0,0.0,0.0,0.0,-5.4375,-5.4064,-5.327,-5.2481,-5.2059,-5.2167,-5.2908,-5.3501,-5.3923,-5.474,-5.5417,-5.6019,-5.6019,-5.625,-5.6709,-5.6823,-5.705,-5.7303,-5.7303,-5.7303,-5.7303,-5.7303,-5.7536,-5.7884,-5.7884,-5.7884,-5.7884,-5.7884,-5.829,-5.8871,-5.8871,-5.9306,-5.9916,-6.0584,-6.0961,-6.1193,-6.1193,-6.1193,-6.1193,-6.1193,-6.1454,-6.1774,-6.2035,-6.2198,-6.2274,-6.1883,-6.2109,-6.1972,-6.0438,-5.9684,-5.9097,-5.8536,-5.7972,-5.7524,-5.7524,-5.7449,-5.7424,-5.7524,-5.6972,-5.647,-5.6244,-5.6219,-5.6219,-5.6219,-5.6495,-5.6771,-5.7022,-5.7625,-5.8227,-5.8679,-5.9006,-5.9282,-5.9483,-5.9483,-5.9483,-5.9483,-5.9483,-5.9483,-5.9483,-5.8887,-5.8443,-5.831,-5.7655,-5.7259,-4.874,0.0,0.0,0.0,0.0,0.0,0.0,0.0,0.0,0.0,0.0,0.0,0.0,0.0,0.0,0.0,0.0,0.0,0.0,0.0,0.0,0.0,0.0,0.0,0.0,0.0,0.0,0.0,0.0,-5.4856,-5.3746,-5.3008,-5.2528,-5.2465,-5.3384,-5.3979,-5.4203,-5.5223,-5.5961,-5.6394,-5.6308,-5.648,-5.688,-5.6993,-5.7107,-5.7303,-5.7303,-5.739,-5.7565,-5.7565,-5.7971,-5.8581,-5.8581,-5.8668,-5.8813,-5.8639,-5.8987,-5.9539,-5.9539,-5.9945,-6.0555,-6.1048,-6.1193,-6.1193,-6.1193,-6.1193,-6.1193,-6.1193,-6.1629,-6.2122,-6.2325,-6.2108,-6.1893,-6.223,-6.1997,-6.1312,-5.9777,-5.9548,-5.932,-5.8126,-5.7901,-5.7901,-5.7901,-5.7675,-5.7524,-5.765,-5.6972,-5.6394,-5.6219,-5.6219,-5.6269,-5.642,-5.6796,-5.7173,-5.7474,-5.8252,-5.878,-5.893,-5.9282,-5.9483,-5.9483,-5.9483,-5.9483,-5.9483,-5.9483,-5.9483,-5.9483,-5.8809,-5.8364,-5.831,-5.7734,-5.7259,0.0,0.0,0.0,-4.7898,0.0,0.0,0.0,0.0,-4.4777,0.0,0.0,0.0,0.0,0.0,0.0,0.0,0.0,0.0,0.0,0.0,0.0,0.0,0.0,0.0,0.0,0.0,0.0,0.0,0.0,0.0,-5.4981,-5.4047,-5.3417,-5.3083,-5.399,-5.4482,-5.4482,-5.5737,-5.6394,-5.6394,-5.6709,-5.688,-5.6936,-5.7134,-5.7303,-5.7303,-5.7303,-5.7681,-5.8261,-5.8261,-5.8668,-5.9277,-5.9277,-5.9626,-6.0061,-5.948,-5.9655,-6.0177,-6.0177,-6.0613,-6.1164,-6.1193,-6.1193,-6.1193,-6.1193,-6.1193,-6.1193,-6.1193,-6.1629,-6.2238,-6.2906,-6.2479,-6.2118,-6.3458,-6.3032,-6.1932,-6.0526,-6.0609,-6.0353,-5.8277,-5.7901,-5.7901,-5.7901,-5.8328,-5.8303,-5.7223,-5.7022,-5.6821,-5.6269,-5.6219,-5.642,-5.6947,-5.7022,-5.7474,-5.8579,-5.8704,-5.893,-5.9433,-5.9483,-5.9483,-5.9483,-5.9483,-5.9483,-5.9483,-5.9483,-5.9483,-5.9483,-5.9095,-5.8653,-5.831,-5.7418,-5.7021,0.0,0.0,-5.1643,-5.0598,0.0,0.0,0.0,0.0,0.0,0.0,0.0,0.0,0.0,0.0,0.0,0.0,0.0,0.0,0.0,0.0,0.0,0.0,0.0,0.0,0.0,0.0,0.0,0.0,0.0,0.0,0.0,-5.4122,-5.3324,-5.3442,-5.4109,-5.4537,-5.4593,-5.5794,-5.6566,-5.6964,-5.6936,-5.6993,-5.7163,-5.7711,-5.7971,-5.8,-5.8435,-5.8755,-5.8958,-5.8958,-5.9335,-5.9887,-5.9887,-6.0293,-6.0787,-6.0119,-6.0322,-6.0874,-6.0874,-6.1019,-6.1193,-6.1193,-6.1193,-6.1193,-6.1193,-6.1193,-6.128,-6.1687,-6.2267,-6.2691,-6.2323,-6.2341,-6.2313,-6.1792,-6.2025,-6.1851,-5.9909,-6.03,-6.0379,-5.8277,-5.7901,-5.7775,-5.7399,-5.7474,-5.7474,-5.7097,-5.6721,-5.642,-5.6244,-5.6219,-5.642,-5.6972,-5.7374,-5.7901,-5.8654,-5.9031,-5.9307,-5.9483,-5.9483,-5.9483,-5.9483,-5.9483,-5.9483,-5.9483,-5.9483,-5.9483,-5.9483,-5.912,-5.8653,-5.831,-5.7655,-5.7259,-5.2862,-5.3036,0.0,-5.2484,-5.2281,0.0,-5.2078,0.0,0.0,0.0,0.0,0.0,0.0,0.0,0.0,0.0,0.0,0.0,0.0,0.0,0.0,0.0,0.0,0.0,0.0,0.0,0.0,0.0,0.0,0.0,0.0,0.0,-5.3909,-5.3949,-5.4498,-5.4869,-5.4869,-5.6105,-5.6908,-5.7303,-5.7395,-5.751,-5.7681,-5.8348,-5.8668,-5.8668,-5.9103,-5.9422,-5.9626,-5.9626,-5.9974,-6.0555,-6.0555,-6.0816,-6.1135,-6.07,-6.0816,-6.1193,-6.1193,-6.1193,-6.1193,-6.1193,-6.1193,-6.1193,-6.1193,-6.1338,-6.1542,-6.1716,-6.2558,-6.3116,-6.1832,-6.2155,-6.2498,-6.1234,-6.1097,-6.0971,-5.9811,-5.9731,-5.9504,-5.8177,-5.7725,-5.7474,-5.7097,-5.6872,-5.6746,-5.6746,-5.6445,-5.6219,-5.6219,-5.6394,-5.6721,-5.7273,-5.7851,-5.8403,-5.8956,-5.9307,-5.9483,-5.9483,-5.9483,-5.9483,-5.9483,-5.9483,-5.9483,-5.9483,-5.9483,-5.9483,-5.9483,-5.912,-5.8653,-5.831,-5.7813,-5.7418]},{"header":{"parameterUnit":"m.s-1","parameterCategory":1,"la1":30.6,"la2":29.2853,"lo1":-89.7004,"lo2":-87.6739,"dx":0.0162,"dy":0.0183,"nx":112,"ny":82,"refTime":"2022-12-25T18:00:00:Z","depth":0,"parameterNumber":3,"parameterNumberName":"V-component_of_WINDS"},"data":[0.0,0.0,0.0,0.0,0.0,0.0,0.0,0.0,0.0,0.0,0.0,0.0,0.0,0.0,0.0,0.0,0.0,0.0,0.0,0.0,0.0,0.0,0.0,0.0,0.0,0.0,0.0,0.0,0.0,0.0,0.0,0.0,0.0,0.0,0.0,0.0,0.0,0.0,0.0,0.0,0.0,0.0,0.0,0.0,0.0,0.0,0.0,0.0,0.0,0.0,0.0,0.0,0.0,0.0,0.0,0.0,0.0,0.0,0.0,0.0,0.0,0.0,0.0,0.0,0.0,0.0,0.0,0.0,0.0,0.0,0.0,0.0,0.0,0.0,0.0,0.0,0.0,0.0,0.0,0.0,0.0,0.0,0.0,0.0,0.0,0.0,0.0,0.0,0.0,0.0,0.0,3.8505,3.7973,3.7621,3.7621,3.7702,3.6754,3.4341,0.0,0.0,0.0,0.0,0.0,0.0,0.0,0.0,0.0,0.0,0.0,0.0,0.0,0.0,0.0,0.0,0.0,0.0,0.0,0.0,0.0,0.0,0.0,0.0,0.0,0.0,0.0,0.0,0.0,0.0,0.0,0.0,0.0,0.0,0.0,0.0,0.0,0.0,0.0,0.0,0.0,0.0,0.0,0.0,0.0,0.0,0.0,0.0,0.0,0.0,0.0,0.0,0.0,0.0,0.0,0.0,0.0,0.0,0.0,0.0,0.0,0.0,0.0,0.0,0.0,0.0,0.0,0.0,0.0,0.0,0.0,0.0,0.0,0.0,0.0,0.0,0.0,0.0,0.0,0.0,0.0,0.0,0.0,0.0,0.0,0.0,0.0,0.0,0.0,0.0,0.0,0.0,0.0,0.0,0.0,0.0,0.0,0.0,0.0,0.0,0.0,0.0,0.0,0.0,3.9074,3.9156,3.864,3.8288,3.8288,3.8749,3.8016,3.5601,0.0,0.0,0.0,0.0,0.0,0.0,0.0,0.0,0.0,0.0,0.0,0.0,0.0,0.0,0.0,0.0,0.0,0.0,0.0,0.0,0.0,0.0,0.0,0.0,0.0,0.0,0.0,0.0,0.0,0.0,0.0,0.0,0.0,0.0,0.0,0.0,0.0,0.0,0.0,0.0,0.0,0.0,0.0,0.0,0.0,0.0,0.0,0.0,0.0,0.0,0.0,0.0,0.0,0.0,0.0,0.0,0.0,0.0,0.0,0.0,0.0,0.0,0.0,0.0,0.0,0.0,0.0,0.0,0.0,0.0,0.0,0.0,0.0,0.0,0.0,0.0,0.0,0.0,0.0,0.0,0.0,0.0,0.0,0.0,0.0,0.0,0.0,0.0,0.0,0.0,0.0,0.0,0.0,0.0,0.0,0.0,0.0,0.0,0.0,0.0,0.0,0.0,0.0,3.9376,3.9837,3.9336,3.9459,3.9431,3.9099,3.9754,3.9145,3.6816,3.6826,0.0,0.0,0.0,0.0,0.0,0.0,0.0,0.0,0.0,0.0,0.0,0.0,0.0,0.0,0.0,0.0,0.0,0.0,0.0,0.0,0.0,0.0,0.0,0.0,0.0,0.0,0.0,0.0,0.0,0.0,0.0,0.0,0.0,0.0,0.0,0.0,0.0,0.0,0.0,0.0,0.0,0.0,0.0,0.0,0.0,0.0,0.0,0.0,0.0,0.0,0.0,0.0,0.0,0.0,0.0,0.0,0.0,0.0,0.0,0.0,0.0,0.0,0.0,0.0,0.0,0.0,0.0,0.0,0.0,0.0,0.0,0.0,0.0,0.0,0.0,0.0,0.0,0.0,0.0,0.0,0.0,0.0,0.0,0.0,0.0,0.0,0.0,0.0,0.0,0.0,0.0,0.0,0.0,0.0,0.0,0.0,0.0,0.0,0.0,0.0,0.0,0.0,4.0374,4.0773,4.0205,4.063,4.0802,4.0491,4.0914,4.017,3.7887,3.8267,0.0,0.0,0.0,0.0,0.0,0.0,0.0,0.0,0.0,0.0,0.0,0.0,0.0,0.0,0.0,0.0,0.0,0.0,0.0,0.0,0.0,0.0,0.0,0.0,0.0,0.0,0.0,0.0,0.0,0.0,0.0,0.0,0.0,0.0,0.0,0.0,0.0,0.0,0.0,0.0,0.0,0.0,0.0,0.0,0.0,0.0,0.0,0.0,0.0,0.0,0.0,0.0,0.0,0.0,0.0,0.0,0.0,0.0,0.0,0.0,0.0,0.0,0.0,0.0,0.0,0.0,0.0,0.0,0.0,0.0,0.0,0.0,0.0,0.0,0.0,0.0,0.0,0.0,0.0,0.0,0.0,0.0,0.0,0.0,0.0,0.0,0.0,0.0,0.0,0.0,0.0,0.0,0.0,0.0,0.0,0.0,0.0,0.0,0.0,0.0,0.0,0.0,4.1323,4.2125,4.2691,4.227,4.2125,4.2718,4.2254,4.0884,3.8464,3.8384,0.0,0.0,0.0,0.0,0.0,0.0,0.0,0.0,0.0,0.0,0.0,0.0,0.0,0.0,0.0,0.0,0.0,0.0,0.0,0.0,0.0,0.0,0.0,0.0,0.0,0.0,0.0,0.0,0.0,0.0,0.0,0.0,0.0,0.0,0.0,0.0,0.0,0.0,0.0,0.0,0.0,0.0,0.0,0.0,0.0,0.0,0.0,0.0,0.0,0.0,0.0,0.0,0.0,0.0,0.0,0.0,0.0,0.0,0.0,0.0,0.0,0.0,0.0,0.0,0.0,0.0,0.0,0.0,0.0,0.0,0.0,0.0,0.0,0.0,0.0,0.0,0.0,0.0,0.0,0.0,0.0,0.0,0.0,0.0,0.0,0.0,0.0,0.0,0.0,0.0,0.0,0.0,0.0,0.0,0.0,0.0,0.0,0.0,0.0,0.0,0.0,0.0,4.2254,4.3337,0.0,4.3272,4.3719,4.4371,4.3545,4.268,4.198,0.0,0.0,0.0,0.0,0.0,0.0,0.0,0.0,0.0,0.0,0.0,0.0,0.0,0.0,0.0,0.0,0.0,0.0,0.0,0.0,0.0,0.0,0.0,0.0,0.0,0.0,0.0,0.0,0.0,0.0,0.0,0.0,0.0,0.0,0.0,0.0,0.0,0.0,0.0,0.0,0.0,0.0,0.0,0.0,0.0,0.0,0.0,0.0,0.0,0.0,0.0,0.0,0.0,0.0,0.0,0.0,0.0,0.0,0.0,0.0,0.0,0.0,0.0,0.0,0.0,0.0,0.0,0.0,0.0,0.0,0.0,0.0,0.0,0.0,0.0,0.0,0.0,0.0,0.0,0.0,0.0,0.0,0.0,0.0,0.0,0.0,0.0,0.0,0.0,0.0,0.0,0.0,0.0,0.0,0.0,0.0,0.0,0.0,0.0,0.0,0.0,0.0,4.1833,4.3512,4.4639,0.0,4.4788,4.5304,4.5969,4.491,4.4213,4.4133,0.0,0.0,0.0,0.0,0.0,0.0,0.0,0.0,0.0,0.0,0.0,0.0,0.0,0.0,0.0,0.0,0.0,0.0,0.0,0.0,0.0,0.0,0.0,0.0,0.0,0.0,0.0,0.0,0.0,0.0,0.0,0.0,0.0,0.0,0.0,0.0,0.0,0.0,0.0,0.0,0.0,0.0,0.0,0.0,0.0,0.0,0.0,0.0,0.0,0.0,0.0,0.0,0.0,0.0,0.0,0.0,0.0,0.0,0.0,0.0,0.0,0.0,0.0,0.0,0.0,0.0,0.0,0.0,0.0,0.0,0.0,0.0,0.0,0.0,0.0,0.0,0.0,0.0,0.0,0.0,0.0,0.0,0.0,0.0,0.0,0.0,0.0,0.0,0.0,0.0,0.0,0.0,0.0,0.0,0.0,0.0,0.0,0.0,0.0,0.0,0.0,0.0,4.4237,4.5047,4.6111,4.7465,4.7004,4.688,4.7558,4.6388,4.5187,0.0,0.0,0.0,0.0,0.0,0.0,0.0,0.0,0.0,0.0,0.0,0.0,0.0,0.0,0.0,0.0,0.0,0.0,0.0,0.0,0.0,0.0,0.0,0.0,0.0,0.0,0.0,0.0,0.0,0.0,0.0,0.0,0.0,0.0,0.0,0.0,0.0,0.0,0.0,0.0,0.0,0.0,0.0,0.0,0.0,0.0,0.0,0.0,0.0,0.0,0.0,0.0,0.0,0.0,0.0,0.0,0.0,0.0,0.0,0.0,0.0,0.0,0.0,0.0,0.0,0.0,0.0,0.0,0.0,0.0,0.0,0.0,0.0,0.0,0.0,0.0,0.0,0.0,0.0,0.0,0.0,0.0,0.0,0.0,0.0,0.0,0.0,0.0,0.0,0.0,0.0,0.0,0.0,0.0,0.0,0.0,0.0,0.0,0.0,0.0,0.0,0.0,0.0,4.4288,4.5443,4.6634,4.7527,4.7434,4.7588,4.8266,4.7065,4.6445,4.6741,0.0,0.0,0.0,0.0,0.0,0.0,0.0,0.0,0.0,0.0,0.0,0.0,0.0,0.0,0.0,0.0,0.0,0.0,0.0,0.0,0.0,0.0,0.0,0.0,0.0,0.0,0.0,0.0,0.0,0.0,0.0,0.0,0.0,0.0,0.0,0.0,0.0,0.0,0.0,0.0,0.0,0.0,0.0,0.0,0.0,0.0,0.0,0.0,0.0,0.0,0.0,0.0,0.0,0.0,0.0,0.0,0.0,0.0,0.0,0.0,0.0,0.0,0.0,0.0,0.0,0.0,0.0,0.0,0.0,0.0,0.0,0.0,0.0,0.0,0.0,0.0,0.0,0.0,0.0,0.0,0.0,0.0,0.0,0.0,0.0,0.0,0.0,0.0,0.0,0.0,0.0,0.0,0.0,0.0,0.0,0.0,0.0,0.0,0.0,0.0,0.0,0.0,4.5162,4.6253,4.725,4.7927,4.8266,4.8604,4.9004,4.7804,4.7361,4.8242,0.0,0.0,0.0,0.0,0.0,0.0,0.0,0.0,0.0,0.0,0.0,0.0,0.0,0.0,0.0,0.0,0.0,0.0,0.0,0.0,0.0,0.0,0.0,0.0,0.0,0.0,0.0,0.0,0.0,0.0,0.0,0.0,0.0,0.0,0.0,0.0,0.0,0.0,0.0,0.0,0.0,0.0,0.0,0.0,0.0,0.0,0.0,0.0,0.0,0.0,0.0,0.0,0.0,0.0,0.0,0.0,0.0,0.0,0.0,0.0,0.0,0.0,0.0,0.0,0.0,0.0,0.0,0.0,0.0,0.0,0.0,0.0,0.0,0.0,0.0,0.0,0.0,0.0,0.0,0.0,0.0,0.0,0.0,0.0,0.0,0.0,0.0,0.0,0.0,0.0,0.0,0.0,0.0,0.0,0.0,0.0,0.0,0.0,0.0,0.0,0.0,0.0,4.6419,4.7188,4.7896,4.8635,4.9281,4.9712,4.9774,4.8512,4.807,4.8914,0.0,0.0,0.0,0.0,0.0,0.0,0.0,0.0,0.0,0.0,0.0,0.0,0.0,0.0,0.0,0.0,0.0,0.0,0.0,0.0,0.0,0.0,0.0,0.0,0.0,0.0,0.0,0.0,0.0,0.0,0.0,0.0,0.0,0.0,0.0,0.0,0.0,0.0,0.0,0.0,0.0,0.0,0.0,0.0,0.0,0.0,0.0,0.0,0.0,0.0,0.0,0.0,0.0,0.0,0.0,0.0,0.0,0.0,0.0,0.0,3.7388,0.0,0.0,0.0,0.0,0.0,0.0,0.0,0.0,0.0,0.0,0.0,0.0,0.0,0.0,0.0,0.0,0.0,0.0,0.0,0.0,0.0,0.0,0.0,0.0,0.0,0.0,0.0,0.0,0.0,0.0,0.0,0.0,0.0,0.0,0.0,0.0,0.0,0.0,0.0,0.0,0.0,4.648,4.7188,4.8081,4.9312,4.9589,4.9897,5.042,4.922,4.8696,4.9489,4.7771,0.0,0.0,0.0,0.0,0.0,0.0,0.0,0.0,0.0,0.0,0.0,0.0,0.0,0.0,0.0,0.0,0.0,0.0,0.0,0.0,0.0,0.0,0.0,0.0,0.0,0.0,0.0,0.0,0.0,0.0,0.0,0.0,0.0,0.0,0.0,0.0,0.0,0.0,0.0,0.0,0.0,0.0,0.0,0.0,0.0,0.0,0.0,0.0,0.0,0.0,0.0,0.0,0.0,0.0,0.0,0.0,0.0,0.0,0.0,0.0,3.7863,0.0,0.0,0.0,0.0,0.0,0.0,0.0,0.0,0.0,0.0,0.0,0.0,0.0,0.0,0.0,0.0,0.0,0.0,0.0,0.0,0.0,0.0,0.0,0.0,0.0,0.0,0.0,0.0,0.0,0.0,0.0,0.0,0.0,0.0,0.0,0.0,0.0,0.0,0.0,0.0,4.7004,4.7989,4.8881,4.962,5.0266,5.079,5.1159,5.0205,4.9928,5.0605,4.9119,0.0,0.0,0.0,0.0,0.0,0.0,0.0,0.0,0.0,0.0,0.0,0.0,0.0,0.0,0.0,0.0,0.0,0.0,0.0,0.0,0.0,0.0,0.0,0.0,0.0,0.0,0.0,0.0,0.0,0.0,0.0,0.0,0.0,0.0,0.0,0.0,0.0,0.0,0.0,0.0,0.0,0.0,0.0,0.0,0.0,0.0,0.0,0.0,0.0,0.0,0.0,0.0,0.0,4.3107,4.3355,4.2736,4.2736,4.3297,4.4198,4.102,4.0135,4.0862,3.9727,0.0,0.0,0.0,0.0,0.0,0.0,0.0,0.0,0.0,0.0,0.0,0.0,0.0,0.0,0.0,0.0,0.0,0.0,0.0,0.0,0.0,0.0,0.0,0.0,4.5772,4.6296,0.0,0.0,0.0,0.0,0.0,0.0,0.0,0.0,0.0,0.0,0.0,0.0,4.7711,4.8881,4.9774,5.002,5.1036,5.1744,5.1867,5.1159,5.0974,5.1652,5.0592,4.9873,0.0,0.0,0.0,0.0,0.0,0.0,0.0,0.0,0.0,0.0,0.0,0.0,0.0,0.0,0.0,0.0,0.0,0.0,0.0,0.0,0.0,0.0,0.0,0.0,0.0,0.0,0.0,0.0,0.0,0.0,0.0,0.0,3.5675,3.6469,0.0,0.0,0.0,0.0,0.0,0.0,0.0,0.0,0.0,0.0,0.0,0.0,0.0,4.1872,4.196,4.3297,4.3977,4.4018,4.5454,4.5804,4.5161,4.5161,4.4925,4.4542,4.4618,0.0,4.3768,4.3099,0.0,0.0,0.0,0.0,0.0,0.0,0.0,0.0,0.0,0.0,0.0,0.0,0.0,0.0,0.0,0.0,0.0,0.0,0.0,0.0,0.0,0.0,4.6449,4.6357,4.648,4.6542,0.0,4.5865,4.5434,4.5341,4.4887,0.0,0.0,0.0,0.0,0.0,0.0,0.0,4.8481,4.9189,5.0143,5.1313,5.159,5.1959,5.2513,5.1436,5.0974,5.1652,5.0463,4.9447,4.883,4.9385,0.0,0.0,0.0,0.0,0.0,0.0,0.0,0.0,0.0,0.0,0.0,0.0,0.0,0.0,0.0,0.0,0.0,0.0,0.0,0.0,0.0,0.0,0.0,0.0,0.0,0.0,0.0,0.0,0.0,3.6547,3.7451,3.8217,3.8318,3.8439,0.0,0.0,0.0,0.0,0.0,0.0,0.0,0.0,0.0,4.3482,4.4267,4.484,4.5202,4.59,4.6397,4.6762,4.7027,4.6819,4.6142,4.6142,4.5803,4.5187,4.5865,4.5944,4.5635,4.537,4.4348,4.296,0.0,0.0,0.0,0.0,4.2225,4.2546,4.3024,4.3046,0.0,4.385,0.0,0.0,0.0,0.0,0.0,0.0,0.0,0.0,0.0,0.0,4.7157,4.7157,4.7465,4.7742,4.7742,4.7496,4.7065,0.0,4.6234,4.6634,4.7711,0.0,0.0,0.0,0.0,4.922,4.922,5.0143,5.1036,5.1652,5.239,5.2944,5.3252,5.3098,5.2914,5.2852,5.1929,5.1067,5.0389,4.9928,4.9435,0.0,0.0,0.0,0.0,0.0,0.0,0.0,0.0,0.0,0.0,0.0,0.0,0.0,0.0,0.0,0.0,0.0,0.0,0.0,0.0,0.0,0.0,0.0,0.0,0.0,0.0,0.0,0.0,3.8842,3.976,4.0499,4.0958,4.1328,0.0,0.0,0.0,0.0,0.0,0.0,4.3974,4.5207,4.5886,4.5886,4.6681,4.7342,4.7865,4.7865,4.8204,4.8881,4.8389,4.7865,4.7373,4.7373,4.7004,4.6388,4.7096,4.7281,4.7096,4.6726,4.5908,4.4921,4.5253,4.5464,4.5524,4.468,4.4895,4.5495,4.4818,4.461,4.4641,4.4825,0.0,4.5834,4.5834,0.0,0.0,0.0,0.0,4.648,4.6973,4.7496,4.7865,4.7865,4.8235,4.8604,4.8604,4.8758,4.8543,0.0,4.7527,4.8266,4.9466,0.0,0.0,0.0,0.0,5.0205,5.0205,5.1067,5.1836,5.2175,5.3129,5.376,5.3914,5.4406,5.4468,5.3976,5.3345,5.2667,5.199,5.1005,5.058,5.0762,0.0,0.0,0.0,0.0,0.0,0.0,0.0,0.0,0.0,0.0,0.0,0.0,0.0,0.0,0.0,0.0,0.0,0.0,0.0,0.0,0.0,0.0,0.0,0.0,0.0,0.0,0.0,0.0,0.0,4.3926,4.3902,0.0,0.0,0.0,0.0,4.5155,4.592,4.6423,4.6423,4.7108,4.7476,4.7476,4.8132,4.8543,4.8573,4.8573,4.8912,4.962,4.9589,4.9558,4.9528,4.9528,4.9127,4.8512,4.922,4.9158,4.8419,4.7127,4.6533,4.6401,4.5825,4.5979,4.641,4.5087,4.5033,4.5495,4.4818,4.461,4.4702,4.5311,4.5988,4.6542,4.6542,4.7004,0.0,0.0,4.7989,4.8481,4.8512,4.8543,4.8573,4.8573,4.8604,4.8604,4.8604,4.9158,4.9404,0.0,4.8543,4.8789,4.9558,0.0,5.0574,5.0667,5.1221,5.159,5.159,5.1652,5.2206,5.3468,5.3683,5.3945,5.4591,5.4652,5.4683,5.4621,5.4006,5.3375,5.2698,5.2606,5.2014,5.0925,5.2071,0.0,0.0,0.0,0.0,0.0,0.0,0.0,0.0,0.0,0.0,0.0,0.0,0.0,0.0,0.0,0.0,0.0,0.0,0.0,0.0,0.0,0.0,0.0,0.0,0.0,0.0,0.0,0.0,4.5666,4.6102,0.0,4.6732,4.7169,4.7413,4.7413,4.7732,4.7896,4.7896,4.8112,4.845,4.8943,4.9189,4.9528,4.9959,4.9959,5.0082,5.0328,4.9897,4.9682,4.9682,4.9682,4.9281,4.8635,4.8881,4.885,4.8543,4.7619,4.7773,4.8604,4.8789,4.9035,4.9158,4.8696,4.8666,4.8727,4.7558,4.7188,4.7127,4.6942,4.7065,4.7404,4.8327,4.8142,4.7804,4.8696,4.8481,4.805,4.8512,4.8604,4.8604,4.8604,4.8604,4.8604,4.8604,4.9528,5.0266,4.9989,4.9959,5.0297,5.1436,5.1097,5.0974,5.1867,5.1836,5.1713,5.1713,5.2452,5.3191,5.3683,5.4483,5.5068,5.5315,5.5776,5.5838,5.5376,5.513,5.4699,5.3976,5.3712,5.3538,5.3566,5.3332,5.3165,0.0,0.0,0.0,0.0,0.0,0.0,0.0,0.0,0.0,0.0,0.0,0.0,0.0,0.0,0.0,0.0,0.0,0.0,0.0,0.0,0.0,0.0,0.0,0.0,0.0,0.0,4.6419,4.688,4.7527,4.7958,4.7958,4.8358,4.8727,4.8943,4.8974,4.9066,4.9312,4.9312,4.9528,5.002,5.002,5.0236,5.0697,5.0697,5.082,5.1036,5.0574,5.0482,5.0697,5.0697,5.0451,4.9989,4.9989,4.9989,4.9959,4.9528,4.9866,5.0667,5.0174,5.0143,5.0328,5.0082,5.0143,5.0143,4.8758,4.8573,4.882,4.7896,4.8081,4.8727,4.9189,4.9158,4.9035,4.9251,4.9004,4.8696,4.8912,4.8789,4.8727,4.922,4.9312,4.9374,4.962,5.0728,5.1801,5.212,5.1716,5.1652,5.2575,5.2144,5.2082,5.3221,5.3006,5.279,5.3037,5.3652,5.4145,5.436,5.5161,5.5776,5.6023,5.6748,5.684,5.6084,5.6053,5.5745,5.5099,5.5552,5.6061,5.6591,5.6197,5.6204,5.6593,0.0,0.0,0.0,0.0,0.0,0.0,0.0,0.0,0.0,0.0,0.0,0.0,0.0,0.0,0.0,0.0,0.0,0.0,0.0,0.0,0.0,0.0,0.0,4.6634,4.7219,4.765,4.7681,4.8235,4.8666,4.8666,4.8696,4.8974,4.9682,4.9712,4.9989,5.0667,5.0697,5.0697,5.0728,5.0728,5.0728,5.0759,5.0759,5.1097,5.1744,5.1744,5.2082,5.2698,5.2698,5.2698,5.2698,5.2698,5.2698,5.2698,5.2698,5.2698,5.2452,4.9774,4.9158,4.9682,4.9004,4.9158,4.9558,4.8204,4.8604,4.9497,4.8142,4.9066,5.0451,4.9127,5.0112,5.1251,4.9281,4.9651,5.0543,4.9928,4.922,4.9066,5.042,5.0759,5.0944,5.1634,5.2835,5.4002,5.4964,5.389,5.2849,5.2849,5.3359,5.396,5.4637,5.473,0.0,5.5592,5.513,5.5007,5.5653,5.5745,5.6023,5.6779,5.7457,5.7518,5.684,5.681,5.6502,5.5745,5.8153,5.9516,5.9697,6.0705,6.0554,5.9099,0.0,0.0,0.0,0.0,0.0,0.0,0.0,0.0,0.0,0.0,0.0,0.0,0.0,0.0,0.0,0.0,0.0,0.0,0.0,0.0,0.0,0.0,4.7342,4.7342,4.7896,4.8512,4.9035,4.9281,4.9589,5.0082,5.0112,5.0205,5.0389,5.042,5.0513,5.0697,5.0697,5.0913,5.1405,5.1436,5.1652,5.2144,5.2144,5.2236,5.2452,5.2452,5.2544,5.2698,5.2698,5.2698,5.2698,5.2206,5.2267,5.2667,5.2175,5.2267,5.2637,5.1867,5.1713,5.1867,5.1652,5.1405,5.1097,5.0697,5.0513,5.0359,4.9959,5.0236,5.0728,5.082,5.0913,5.0944,5.0882,5.079,5.0759,5.1067,5.1005,5.1067,5.1959,5.2144,5.2383,5.3251,5.4115,5.5007,5.5931,5.6145,5.6157,5.6157,5.5194,5.4715,5.5569,5.5162,0.0,5.4929,5.5253,5.5684,5.644,5.6915,5.7285,5.7518,5.7703,5.7518,5.684,5.681,5.6717,5.6532,5.792,5.9099,5.9956,6.029,6.052,0.0,0.0,0.0,0.0,0.0,0.0,0.0,0.0,0.0,0.0,0.0,0.0,0.0,0.0,0.0,0.0,0.0,0.0,0.0,0.0,0.0,0.0,4.7835,4.8481,4.8481,4.882,4.9312,5.002,5.0112,5.0266,5.0667,5.0697,5.082,5.1097,5.1128,5.1251,5.1528,5.1528,5.1713,5.2113,5.2144,5.2329,5.2698,5.2698,5.2698,5.2698,5.2698,5.2698,5.2698,5.2698,5.2698,0.0,5.2298,5.2359,5.2698,5.2298,5.2359,0.0,0.0,0.0,0.0,0.0,5.2452,5.2082,5.1805,5.1621,5.1436,5.0882,5.1067,5.1498,5.1344,5.1405,5.1559,5.1682,5.1621,5.1682,5.2359,5.2329,5.2359,5.3345,5.3847,5.4327,5.5153,5.6193,5.7237,5.8213,5.8372,0.0,5.8876,5.714,5.5843,5.6309,5.5906,5.5684,5.5961,5.6084,5.6347,5.6779,5.7179,5.7395,5.7395,5.7672,0.0,0.0,0.0,5.8436,5.9879,6.0506,0.0,0.0,0.0,0.0,0.0,0.0,0.0,0.0,5.9505,5.9066,0.0,0.0,0.0,0.0,0.0,0.0,0.0,0.0,0.0,0.0,0.0,0.0,0.0,0.0,0.0,0.0,4.8943,4.9835,4.9897,4.9928,5.0143,5.0728,5.082,5.082,5.0913,5.0913,5.1159,5.1775,5.1805,5.2082,5.2667,0.0,0.0,0.0,0.0,5.2698,5.2698,5.2698,5.2698,5.2698,5.2698,5.2698,5.2698,5.2698,5.2698,5.2698,5.2698,5.2698,5.2698,5.2698,5.2698,5.2698,5.2698,5.2698,5.2698,5.2698,5.2698,5.2637,5.2021,0.0,0.0,5.1313,5.1744,5.2513,5.1374,5.1867,5.2698,5.2206,5.2483,5.3098,5.3775,5.3498,5.3375,5.4621,5.5624,5.6473,5.7105,5.8562,5.9979,6.0861,6.0355,5.9979,6.0736,5.8818,5.7132,5.6974,5.6858,5.7025,5.7641,5.7179,5.684,5.6902,0.0,0.0,5.7047,5.77,5.8165,5.8335,5.8919,6.0656,6.3802,6.3955,6.4042,6.4377,6.4918,6.3937,6.1434,6.2009,6.2313,6.2381,6.1637,6.1298,0.0,0.0,0.0,0.0,0.0,0.0,0.0,0.0,0.0,0.0,0.0,0.0,0.0,0.0,0.0,4.9189,4.9959,5.0697,5.1251,5.1313,5.1374,5.1498,5.1498,5.1713,5.2267,5.2329,5.239,5.2513,5.2513,5.2575,5.2698,5.2698,5.2698,5.2698,5.2698,5.2698,5.2698,5.2698,5.2698,5.2698,0.0,0.0,5.2698,5.2698,5.2698,5.2698,5.2698,5.2698,5.2698,5.2698,5.2698,5.2698,5.2698,5.2698,5.2698,5.2698,5.2698,5.2698,5.2575,5.2606,5.2667,5.2421,5.2513,5.276,5.3037,5.3314,0.0,5.3976,5.4191,5.4483,5.513,5.5222,5.5345,5.6176,5.7137,5.7832,5.7958,5.9402,6.0778,6.0945,6.0861,6.0567,5.9935,5.8825,5.7961,5.7902,5.7258,5.6871,5.6994,5.6902,5.7025,5.758,5.8259,5.8735,5.8735,5.9547,5.9871,5.9343,5.9452,6.013,6.1574,6.1658,6.1999,6.2821,6.2381,6.2144,6.2178,6.1738,6.1806,6.2381,6.1637,6.1298,0.0,0.0,0.0,0.0,0.0,0.0,0.0,0.0,0.0,0.0,0.0,4.7434,0.0,0.0,4.9774,5.0143,5.0759,5.1313,5.1652,5.199,5.2206,5.2206,5.2206,5.2329,5.2667,5.2698,5.2698,5.2698,5.2698,5.2698,5.2698,5.2698,5.2698,5.2698,5.3037,5.3221,5.3221,5.3514,5.3714,5.3714,5.3375,5.3221,5.3221,5.2852,5.2698,5.2698,5.2698,5.2698,5.2698,5.2698,5.2698,5.2698,5.2698,5.2698,5.2698,5.2698,5.2698,5.2698,5.2698,5.2698,5.276,5.3098,5.3221,5.3345,5.3976,5.4191,5.4314,5.5037,5.5222,5.5376,5.6053,5.6238,5.633,5.6717,5.7543,5.8211,5.8211,5.9311,6.0279,6.0279,6.0279,5.9979,5.9088,5.8501,5.8026,5.759,5.7067,5.681,5.681,5.7211,5.762,5.7963,5.8856,5.9375,5.9375,6.0562,6.1066,6.0345,6.1066,6.1592,6.1709,6.1676,6.1911,6.2381,6.2415,6.2415,6.2381,6.2415,6.2415,6.2381,6.2415,6.2212,0.0,0.0,0.0,0.0,0.0,0.0,0.0,0.0,4.7558,4.8758,4.9004,4.9189,4.9774,5.042,5.0882,5.0882,5.1467,5.1898,5.1898,5.2359,5.2698,5.2698,5.2698,5.2698,5.2698,5.2698,5.2698,5.2698,5.2698,5.2698,5.2698,5.2821,5.2914,5.2914,5.3514,5.3883,5.3883,5.4406,5.4683,5.4683,5.4129,5.3883,5.3853,5.3221,5.2914,5.2914,5.276,5.2698,5.2698,5.2698,5.2698,5.2698,5.2698,5.279,5.2883,5.276,5.279,5.2914,5.2914,5.3006,5.3191,5.3745,5.3883,5.4052,5.4683,5.4868,5.5068,5.5715,5.5899,5.6023,5.6656,5.681,5.681,5.681,5.7543,5.8165,5.798,5.8818,5.9543,5.9367,5.9355,5.9088,5.8349,5.8026,5.7653,5.6906,5.681,5.6858,5.7019,5.77,5.8257,5.8455,5.9278,5.9935,6.0108,6.139,6.1908,6.1301,6.2656,6.3193,6.2415,6.2651,6.2685,6.2381,6.326,6.3362,6.2618,6.3226,6.3294,6.2821,6.3294,6.3193,4.3398,0.0,0.0,4.724,4.7711,4.8358,0.0,0.0,4.9558,5.0297,5.0451,5.0482,5.0574,5.1128,5.159,5.159,5.2144,5.2606,5.2606,5.2667,5.2698,5.2698,5.2698,5.2698,5.2698,5.2698,5.2698,5.2698,5.2698,5.2698,5.2698,5.3283,5.3622,5.3622,5.4222,5.456,5.456,5.4652,5.4683,5.4683,5.4591,5.456,5.456,5.3883,5.3622,5.356,5.2975,5.2698,5.2698,5.2698,5.2698,5.2698,5.2698,5.3067,5.3529,5.2944,5.3098,5.3622,5.3622,5.3991,5.4468,5.4529,5.456,5.4683,5.5376,5.5592,5.5745,5.6502,5.6686,5.6717,5.6779,5.681,5.681,5.681,5.7543,5.798,5.7115,5.8363,5.9323,5.8501,5.8349,5.8349,5.8211,5.7495,5.6906,5.681,5.681,5.7067,5.7933,5.8119,5.8501,5.9323,6.0279,6.1152,6.1991,6.2251,6.233,6.2263,6.3012,6.3193,6.2415,6.3666,6.3734,6.2415,6.3768,6.4106,6.3396,6.3463,6.3802,6.4343,6.3768,6.3463,4.5932,0.0,0.0,0.0,4.962,5.002,5.0697,5.0543,5.0451,5.1128,5.1282,5.1282,5.1282,5.1836,5.2298,0.0,5.2513,5.2852,5.3252,5.3314,5.3437,5.3837,5.3853,5.3591,5.279,5.3067,5.3129,5.2729,5.3437,5.3714,5.3314,5.3929,5.4252,5.4252,5.4945,5.5284,5.5284,5.5715,5.5899,5.5899,5.5499,5.5284,5.5253,5.4607,5.4252,5.4283,5.4422,5.4237,5.3853,5.3853,5.3853,5.3853,5.3853,5.4006,5.4191,5.356,5.3745,5.4252,5.4252,5.4437,5.4745,5.5161,5.5284,5.5407,5.6115,5.633,5.6409,5.6717,5.681,5.681,5.681,5.681,5.681,5.681,5.7067,5.7258,5.6906,5.7448,5.784,5.7448,5.7401,5.7401,5.7401,5.7098,5.681,5.681,5.681,5.7115,5.8072,5.8683,5.9367,6.0279,6.1235,6.1716,6.1595,6.2474,6.2854,6.2415,6.3497,6.3802,6.3091,6.4038,6.4309,6.37,6.4715,6.4884,6.414,6.458,6.4715,6.4613,6.5189,6.5189,4.7867,0.0,0.0,5.0605,5.082,5.1097,5.159,5.1313,5.1159,5.1836,5.2144,5.2267,5.2267,5.2821,5.3283,5.3283,5.3283,5.3437,5.3883,5.3991,5.4176,5.4621,5.4683,5.4283,5.3375,5.3868,5.4052,5.356,5.4637,5.5068,5.4576,5.5191,5.5561,5.5561,5.6207,5.6546,5.6546,5.7069,5.7364,5.7364,5.6792,5.6546,5.6515,5.5869,5.5468,5.5315,5.5776,5.5592,5.5007,5.5007,5.4837,5.4683,5.4683,5.4806,5.4945,5.4453,5.4576,5.5007,5.5007,5.513,5.5376,5.5838,5.5992,5.6084,5.6656,5.681,5.681,5.681,5.681,5.681,5.681,5.681,5.681,5.681,5.681,5.681,5.681,5.681,5.681,5.681,5.681,5.681,5.681,5.681,5.681,5.681,5.681,5.7211,5.8409,5.9443,6.0269,6.0945,6.1595,6.175,6.1069,6.2542,6.3294,6.2719,6.4072,6.458,6.3835,6.4715,6.5019,6.4613,6.5527,6.5628,6.4884,6.5425,6.5628,6.5527,6.6406,6.6846,0.0,0.0,5.1498,5.0851,5.119,5.1682,5.1713,5.1682,5.1867,5.2544,5.3221,5.3652,5.3652,5.416,5.4621,5.4621,5.4621,5.4621,5.4652,5.4652,5.4652,5.4683,5.4683,5.4652,0.0,5.5253,5.5622,5.5592,5.6317,5.6748,5.6717,5.7364,5.7734,5.7734,5.8331,5.8701,5.8701,5.8701,5.8731,5.8731,5.8701,5.8701,5.867,5.8042,5.7364,5.6748,5.6779,5.6378,5.5653,5.5653,5.5284,5.4683,5.4683,5.513,5.5653,5.5653,5.5653,5.5653,5.5653,5.6115,5.6748,5.6779,5.6779,5.6779,5.681,5.681,5.681,5.681,5.681,5.681,5.681,5.681,5.681,5.681,5.681,5.681,5.681,5.681,5.681,5.681,5.681,5.681,5.681,5.681,5.681,5.681,5.681,5.7464,5.9323,6.0397,6.0945,6.0986,6.1028,6.1028,6.0986,6.2542,6.3497,6.3497,6.485,6.5324,6.4613,6.5967,6.6068,6.4647,6.6034,6.6406,6.5662,6.5662,6.6406,6.7793,6.7117,6.7963,0.0,0.0,5.1744,5.199,5.2206,5.2359,5.2359,5.2359,5.2452,5.2667,5.2883,5.3191,5.3652,5.3853,5.416,5.4621,5.4683,5.4837,5.5315,5.5376,5.5561,5.6023,5.6084,0.0,0.0,0.0,0.0,5.5745,5.7192,5.79,5.7518,5.8134,5.8423,5.8423,5.867,5.8793,5.8793,5.8793,5.8793,5.8793,5.8793,5.8793,5.8793,5.9008,5.8731,5.8165,5.8577,5.8393,5.7746,5.7746,5.7623,5.7408,5.7408,5.7285,5.7069,5.7069,5.6792,5.644,5.644,5.6594,5.681,5.681,5.681,5.681,5.681,5.681,5.681,5.681,5.681,5.681,5.681,5.681,5.681,5.681,5.681,5.681,5.681,5.681,5.681,5.681,5.681,5.681,5.681,5.681,5.7002,5.7637,5.77,5.798,5.8592,5.9499,6.0,5.982,6.0957,6.1669,6.148,6.3141,6.3964,6.3275,6.4133,6.4567,6.4333,6.463,6.5194,6.6026,6.588,6.6014,6.644,6.6914,6.7421,6.7929,6.9214,6.9925,0.0,5.0939,5.2175,5.2606,5.2698,5.2698,5.2698,5.2914,5.3067,5.3067,5.3437,5.3899,5.436,5.4422,5.473,5.5653,5.5622,5.5684,5.633,5.6423,5.6515,5.6779,5.681,5.6902,0.0,0.0,0.0,5.6823,5.8485,5.9316,5.8885,5.9255,5.9501,5.9501,5.9501,5.9501,5.9501,5.9501,5.9501,5.9501,5.9501,5.9501,5.9501,5.9963,5.9901,5.9532,5.9963,5.9778,5.9131,5.9131,5.9008,5.8793,5.8793,5.8516,5.8146,5.8146,5.7765,5.7148,5.6902,5.681,5.681,5.681,5.681,5.681,5.681,5.681,5.681,5.681,5.681,5.681,5.681,5.681,5.681,5.681,5.681,5.681,5.681,5.681,5.681,5.681,5.6994,5.7087,5.684,5.7025,5.7435,5.8277,5.8404,5.8594,5.9005,5.926,5.9639,6.0068,6.1191,6.2049,6.2199,6.362,6.417,6.3537,6.3847,6.4063,6.4063,6.3863,6.4584,6.6235,6.5636,6.5769,6.6637,6.7757,6.8398,6.8595,7.0693,7.1718,5.0394,5.1835,5.2698,5.2698,5.2698,5.2729,5.276,5.3221,5.3683,5.3683,5.4637,5.5499,0.0,0.0,5.6053,5.7549,5.7241,5.7025,5.7672,5.7765,5.7518,0.0,0.0,0.0,0.0,0.0,0.0,5.8824,0.0,6.0794,6.0794,6.0794,6.0794,6.0794,6.0794,6.0794,6.0794,6.0794,6.0794,6.0794,6.0794,6.0794,6.0794,6.0794,6.0794,6.0763,6.0763,6.0393,5.9778,5.9778,5.9439,5.8885,5.8885,5.8854,5.8824,5.8824,5.8393,5.7795,5.7148,5.6871,5.681,5.681,5.681,5.681,5.681,5.681,5.681,5.681,5.681,5.681,5.681,5.681,5.681,5.681,5.681,5.681,5.681,5.684,5.684,5.681,5.7364,5.7641,5.7025,5.7457,5.8104,5.867,5.8793,5.9225,6.0334,5.972,5.982,6.1432,6.1711,6.2118,6.3066,6.3858,6.4211,6.4123,6.3858,6.375,6.375,6.3703,6.417,6.527,6.5225,6.5589,6.6395,6.8204,6.9312,6.9907,7.1631,7.3228,4.9296,5.0966,5.2698,5.2698,5.2698,5.2852,5.3345,5.3221,5.2975,5.2975,5.2852,5.3037,0.0,0.0,0.0,5.6748,5.6933,0.0,5.7056,5.7056,0.0,5.684,0.0,5.7641,5.7795,5.8854,0.0,0.0,6.0301,6.0794,6.0794,6.0794,6.0794,6.0794,6.0794,6.0794,6.0794,6.0794,6.0794,6.0794,6.0794,6.0794,6.0794,6.0794,6.0517,6.0055,6.0055,5.9963,5.9778,5.9778,5.9993,6.027,6.027,5.9963,5.9532,5.9532,5.9101,5.8485,5.8331,5.7672,5.681,5.681,5.681,5.681,5.681,5.681,5.681,5.681,5.681,5.681,5.681,5.681,5.681,5.681,5.681,5.681,5.681,5.721,5.7426,5.6902,5.7364,5.7919,5.8208,5.8423,5.8577,5.8762,5.8793,5.89,5.9225,5.9029,5.9259,6.0209,6.1614,6.2511,6.254,6.4041,6.4367,6.2908,6.2731,6.268,6.268,6.1972,6.264,6.4905,6.4224,6.5174,6.7996,6.8203,6.9457,7.1724,7.2448,7.3428,4.9456,5.1289,5.316,5.316,5.3375,5.3622,5.3668,5.3652,5.3453,5.3221,5.2852,0.0,0.0,0.0,0.0,0.0,0.0,0.0,5.721,5.7241,5.7241,0.0,5.758,0.0,5.8608,5.9347,5.9901,0.0,6.0578,6.0794,6.0794,6.0794,6.0794,6.0794,6.0794,6.0794,6.0794,6.0794,6.0794,6.0794,6.0794,6.0794,6.0794,6.0486,6.0147,5.9778,0.0,5.9347,5.9347,5.9347,5.9562,5.9901,5.9901,5.987,5.9778,5.9778,5.9562,5.9224,5.9224,5.8516,5.7703,5.7703,5.7703,5.7703,5.7703,5.7703,5.7703,5.7703,5.7703,5.7641,5.7333,5.7241,5.7179,5.6871,5.681,5.6902,5.7179,5.7303,5.7426,5.7672,5.7765,5.8177,5.9439,5.9162,5.8978,5.9562,5.9655,5.9655,5.9655,5.9408,5.9672,6.0776,6.1914,6.27,6.294,6.3561,6.3466,6.2369,6.1903,6.1652,6.1652,6.1382,6.228,6.454,6.4342,6.5504,6.8042,6.8636,6.9956,7.1948,7.2395,7.3258,5.024,5.1942,5.3408,5.3637,5.4129,5.4406,5.3822,5.4129,5.4345,5.3622,0.0,5.3529,5.416,5.3775,5.4237,5.7038,0.0,5.681,5.758,5.7672,5.7672,5.7672,5.7857,5.8362,5.9532,5.9809,6.0178,6.0763,6.0794,6.0794,6.0794,6.0794,6.0794,6.0794,6.0794,6.0794,6.0794,6.0794,6.0794,6.0794,6.0794,6.0794,6.0763,6.0086,5.9747,5.9624,5.8947,0.0,5.8639,5.8639,5.8762,5.8916,5.8916,5.9316,5.9932,5.9932,5.9932,5.9932,5.9932,5.9532,5.9008,5.8854,5.8793,5.8793,5.8793,5.8793,5.8793,5.8793,5.8793,5.8639,5.8054,5.79,5.7795,5.721,5.7087,5.7241,5.7826,5.7487,5.7426,5.8547,5.835,5.8485,6.0332,5.9686,5.9347,6.0609,6.0794,6.0794,6.0794,6.027,6.0473,6.1959,6.2221,6.2583,6.3324,6.2729,6.2221,6.2121,6.1277,6.0886,6.1071,6.1572,6.2672,6.4423,6.5031,6.611,6.7625,6.9053,7.0329,7.146,7.1863,7.2684,5.0159,5.1058,5.1906,5.3331,5.3806,5.3868,5.3745,5.3806,0.0,0.0,5.1621,5.1436,5.2113,5.1682,5.2267,5.553,0.0,0.0,0.0,0.0,5.6994,0.0,0.0,0.0,0.0,0.0,0.0,0.0,0.0,6.0794,6.0794,6.0794,6.0794,6.0794,6.0794,6.0794,6.0794,6.0794,6.0794,6.0794,6.0794,6.0794,6.0763,6.0086,5.9501,5.8916,5.8239,0.0,5.798,5.798,5.8608,5.9624,5.9624,6.0024,6.064,6.064,6.064,6.064,6.064,6.0547,6.027,5.9131,5.8793,5.8793,5.8793,5.8793,5.8793,5.8793,5.8793,5.8762,5.8639,5.8608,5.8577,5.8454,5.8423,5.8454,5.8577,5.8516,5.8485,5.8731,5.8701,5.8885,5.9809,5.9778,5.987,6.0671,6.0794,6.0794,6.0794,6.0701,6.0722,6.1021,6.1803,6.2022,6.1348,6.1922,6.1953,6.1124,6.0897,6.1317,6.2425,6.2342,6.3176,6.5176,6.5049,6.6231,6.8791,6.8163,6.9357,7.2099,7.131,7.1506,5.0543,5.1404,5.2111,5.3775,5.4191,5.4099,5.3806,0.0,0.0,0.0,5.1682,5.1436,5.2113,0.0,0.0,0.0,0.0,0.0,0.0,0.0,0.0,0.0,0.0,0.0,0.0,0.0,0.0,0.0,0.0,6.0794,6.0794,6.0794,6.0794,6.0794,6.0794,6.0794,6.0794,6.0794,6.0794,6.0794,6.0794,6.0794,6.0763,5.9747,5.907,5.8731,5.7734,0.0,5.7303,5.7303,5.7888,5.8731,5.8731,5.9378,6.027,6.027,6.0486,6.0794,6.0794,6.0794,6.0701,6.0055,5.9839,5.9839,5.9839,5.9839,5.9839,5.9839,5.9839,5.9747,5.9408,5.9316,5.9224,5.8854,5.9039,5.9193,5.8854,5.9347,5.9716,5.9378,5.9316,5.9532,6.0178,6.0024,6.0024,6.0701,6.0794,6.0794,6.0794,6.0794,6.0794,6.0794,6.1226,6.1328,6.0845,6.1226,6.1381,6.1107,6.1423,6.1982,6.2799,6.3365,6.4314,6.5623,6.5872,6.683,6.871,6.8191,6.9126,7.1397,7.0237,7.0539,5.0421,5.1326,5.2049,5.3739,5.4328,5.4283,5.3652,5.3622,0.0,0.0,5.2082,5.1867,5.239,0.0,5.2606,0.0,0.0,0.0,0.0,0.0,0.0,0.0,0.0,0.0,0.0,0.0,0.0,0.0,0.0,0.0,6.0794,6.0794,6.0794,6.0794,6.0794,6.0794,6.0794,6.0794,6.0794,6.0794,6.0794,6.0732,6.0547,5.9347,5.8701,5.8485,5.7333,0.0,0.0,5.681,5.7303,5.8042,5.8042,5.8824,5.9993,5.9993,6.0332,6.0794,6.0794,6.0794,6.0794,6.0794,6.0794,6.0794,6.0794,6.0794,6.0794,6.0794,6.0794,6.0671,6.0147,5.9993,5.987,5.9347,5.9624,5.9809,5.9131,5.9932,6.0547,5.9747,5.9686,5.9963,6.0486,6.0147,6.0024,6.0701,6.0794,6.0794,6.0794,6.0794,6.0794,6.0794,6.0794,6.0794,6.0794,6.0896,6.1107,6.16,6.2164,6.2817,6.3538,6.4486,6.5367,6.6213,6.6759,6.7452,6.8298,6.8298,6.8945,7.0237,6.9236,6.9666,4.8761,4.9517,5.0252,5.2019,5.3128,5.3652,5.2944,0.0,5.3345,5.2052,5.1744,5.1713,5.1775,5.1282,0.0,0.0,0.0,0.0,0.0,0.0,0.0,0.0,0.0,0.0,0.0,0.0,0.0,0.0,0.0,0.0,6.0794,6.0794,6.0794,6.0794,6.0794,6.0794,6.0794,6.0794,6.0794,6.0794,6.0794,6.0486,5.987,5.9131,5.8504,5.7857,5.7118,0.0,0.0,5.681,5.758,5.8701,5.8701,5.9501,6.0701,6.0701,6.0763,6.0794,6.0794,6.0794,6.0794,6.0794,6.0794,6.0794,6.0794,6.0794,6.0794,6.0794,6.0794,6.0794,6.0732,6.0701,6.0701,6.064,6.0671,6.0517,5.9839,6.027,6.0424,5.9131,5.9378,5.9809,5.987,5.9839,6.0024,6.0701,6.0794,6.0794,6.0794,6.0794,6.0794,6.0794,6.0794,6.0794,6.0794,6.1116,6.163,6.2249,6.2671,6.3689,6.5572,6.5462,6.598,6.7336,6.7427,6.7668,6.803,6.803,6.8358,6.9034,6.8623,6.8991,4.8522,4.9566,5.0466,5.1876,5.2336,5.2544,5.2698,0.0,5.2359,5.1805,5.1713,5.1713,5.1713,5.1498,0.0,0.0,0.0,0.0,0.0,0.0,0.0,0.0,0.0,0.0,0.0,0.0,0.0,0.0,0.0,0.0,6.0794,6.0794,6.0794,6.0794,6.0794,6.0794,6.0794,6.0794,6.0794,6.0794,6.0794,6.0455,5.9778,5.9101,5.8423,5.7795,5.7118,0.0,0.0,5.681,5.7611,5.8793,5.8793,5.9624,6.0794,6.0794,6.0794,6.0794,6.0794,6.0794,6.0794,6.0794,6.0794,6.0794,6.0794,6.0794,6.0794,6.0794,6.0794,6.0794,6.0794,6.0794,6.0794,6.0794,6.0794,6.0732,6.0455,6.0609,6.064,6.0116,6.0209,6.0393,6.0393,6.0393,6.0486,6.0763,6.0794,6.0794,6.0794,6.0794,6.0794,6.0794,6.0794,6.108,6.1698,6.1928,6.2506,6.3577,6.4159,6.4862,6.5891,6.6222,6.6612,6.7152,6.7182,6.7365,6.7729,6.791,6.8179,6.8595,6.9053,6.9724,4.7913,4.9228,5.0426,5.1254,5.1727,5.2144,0.0,0.0,5.1959,5.1744,5.1713,5.1713,5.1713,5.1713,5.1559,0.0,0.0,0.0,0.0,0.0,0.0,0.0,0.0,0.0,0.0,0.0,0.0,0.0,0.0,0.0,6.0794,6.0794,6.0794,6.0794,6.0794,6.0794,6.0794,6.0794,6.0794,6.0794,6.0794,6.0332,5.947,5.9008,5.835,5.7487,5.7025,0.0,0.0,5.681,5.7611,5.8793,5.8793,5.9624,6.0794,6.0794,6.0794,6.0794,6.0794,6.0794,6.0794,6.0794,6.0794,6.0794,6.0794,6.0794,6.0794,6.0794,6.0794,6.0794,6.0794,6.0794,6.0794,6.0794,6.0794,6.0794,6.0794,6.0794,6.0794,6.0794,6.0794,6.0794,6.0794,6.0794,6.0794,6.0794,6.0794,6.0794,6.0794,6.0978,6.1049,6.0997,6.1313,6.1813,6.2364,6.2756,6.3512,6.4684,6.5289,6.5772,6.6281,6.6759,6.6999,6.6999,6.7121,6.7304,6.7669,6.791,6.8301,6.8842,6.9361,7.0126,4.643,4.805,4.963,4.963,5.1186,5.2698,0.0,5.2698,5.2513,5.1836,5.1713,5.1713,5.1713,5.1713,5.1713,0.0,0.0,0.0,0.0,0.0,0.0,0.0,0.0,0.0,0.0,0.0,0.0,0.0,0.0,0.0,6.0794,6.0794,6.0794,6.0794,6.0794,6.0794,6.0794,6.0794,6.0794,6.0794,6.0794,6.0086,5.8793,5.8793,5.8054,0.0,0.0,0.0,0.0,5.681,5.7611,5.8793,5.8793,5.9624,6.0794,6.0794,6.0794,6.0794,6.0794,6.0794,6.0794,6.0794,6.0794,6.0794,6.0794,6.0794,6.0794,6.0794,6.0794,6.0794,6.0794,6.0794,6.0794,6.0794,6.0794,6.0794,6.0794,6.0794,6.0794,6.0794,6.0794,6.0794,6.0794,6.0794,6.0794,6.0794,6.0794,6.0794,6.0794,6.1379,6.1704,6.1416,6.2554,6.3073,6.2432,6.3698,6.4744,6.5348,6.5802,6.6281,6.6939,6.6999,6.6999,6.6999,6.7365,6.7669,6.797,6.803,6.8664,6.9874,6.9245,6.9762,4.6403,4.7795,4.9187,4.9522,5.0265,5.1031,5.1304,5.1344,5.1005,4.9835,4.9989,5.0328,5.0328,5.0328,5.0482,5.0944,0.0,0.0,0.0,0.0,0.0,0.0,0.0,0.0,0.0,0.0,0.0,0.0,0.0,0.0,6.0794,6.0794,6.0794,6.0794,6.0794,6.0794,6.0794,6.0794,6.0794,6.0794,6.0794,6.0086,5.8793,5.8793,5.8104,0.0,0.0,0.0,0.0,5.7303,5.8011,5.8824,5.9285,6.0024,6.0794,6.0794,6.0794,6.0794,6.0794,6.0794,6.0794,6.0794,6.0794,6.0794,6.0794,6.0794,6.0794,6.0794,6.0794,6.0794,6.0794,6.0794,6.0794,6.0794,6.0794,6.0794,6.0794,6.0794,6.0794,6.0794,6.0794,6.0794,6.0794,6.0794,6.0794,6.0794,6.0794,6.0978,6.144,6.1528,6.1653,6.2058,6.332,6.4096,6.3827,6.4591,6.55,6.6462,6.6611,6.6759,6.6969,6.6999,6.6999,6.6999,6.7121,6.7304,6.7669,6.8122,6.9092,7.0617,7.0617,7.1136,4.6296,4.7343,4.8443,4.9366,4.9852,5.026,5.094,5.0882,5.0389,4.9251,4.9374,4.9774,5.002,4.9866,4.9989,5.0913,5.199,0.0,0.0,0.0,0.0,0.0,0.0,0.0,0.0,0.0,0.0,0.0,0.0,0.0,6.0794,6.0794,6.0794,6.0794,6.0794,6.0794,6.0794,6.0794,6.0794,6.0794,6.0794,6.0086,5.8793,5.8793,5.8104,0.0,0.0,0.0,0.0,5.7549,5.8177,5.8854,5.9532,6.0209,6.0794,6.0794,6.0794,6.0794,6.0794,6.0794,6.0794,6.0794,6.0794,6.0794,6.0794,6.0794,6.0794,6.0794,6.0794,6.0794,6.0794,6.0794,6.0794,6.0794,6.0794,6.0794,6.0794,6.0794,6.0794,6.0794,6.0794,6.0794,6.0794,6.0794,6.0794,6.0794,6.1009,6.1295,6.162,6.1951,6.2225,6.2433,6.386,6.4716,6.4359,6.5381,6.6282,6.6939,6.6999,6.6999,6.6999,6.6999,6.6999,6.6999,6.6999,6.7302,6.7849,6.8906,6.9939,7.0882,7.1501,7.2055,0.0,4.6712,4.7461,4.9066,4.9787,5.0319,5.125,5.1085,0.0,4.9774,4.9682,4.9959,5.0574,5.0174,5.0205,5.1559,5.239,0.0,0.0,0.0,0.0,0.0,0.0,0.0,0.0,0.0,0.0,0.0,0.0,0.0,6.0794,6.0794,6.0794,6.0794,6.0794,6.0794,6.0794,6.0794,6.0794,6.0794,6.0794,6.0086,5.8793,5.8793,5.8104,0.0,0.0,0.0,0.0,5.7611,5.8258,5.8854,5.9562,6.024,6.0794,6.0794,6.0794,6.0794,6.0794,6.0794,6.0794,6.0794,6.0794,6.0794,6.0794,6.0794,6.0794,6.0794,6.0794,6.0794,6.0794,6.0794,6.0794,6.0794,6.0794,6.0794,6.0794,6.0794,6.0794,6.0794,6.0794,6.0794,6.0794,6.0824,6.0886,6.0886,6.144,6.1743,6.1569,6.2585,6.3127,6.266,6.4294,6.505,6.4066,6.5832,6.6969,6.6939,6.6969,6.6999,6.6999,6.6999,6.6999,6.6999,6.709,6.7603,6.8602,7.0151,7.0912,7.0973,7.2052,7.2515,4.481,0.0,4.6912,4.8094,4.9075,4.9592,0.0,5.0266,5.0974,4.922,4.9712,5.0513,5.0667,5.0574,5.0882,5.2267,5.3468,5.4483,5.513,0.0,0.0,0.0,0.0,0.0,0.0,0.0,0.0,0.0,0.0,6.0794,6.0794,6.0794,6.0794,6.0794,6.0794,6.0794,6.0794,6.0794,6.0794,6.0794,6.0794,6.0086,5.8793,5.8793,5.8104,0.0,0.0,0.0,5.6902,5.8104,5.8639,5.8885,6.0086,6.0671,6.0794,6.0794,6.0794,6.0794,6.0794,6.0794,6.0794,6.0794,6.0794,6.0794,6.0794,6.0794,6.0794,6.0794,6.0794,6.0794,6.0794,6.0794,6.0794,6.0794,6.0794,6.0794,6.0794,6.0794,6.0794,6.0794,6.0794,6.0794,6.0794,6.1225,6.1563,6.1563,6.1966,6.2418,6.2853,6.2834,6.2837,6.3237,6.439,6.4814,6.4066,6.5832,6.6759,6.6281,6.67,6.6999,6.6999,6.6999,6.6999,6.6999,6.7724,6.8627,6.9639,7.0479,7.0999,7.1322,7.2139,7.2177,4.4026,4.4746,4.5649,4.7209,4.8138,4.8792,4.8953,5.015,5.0913,4.9805,5.0174,5.079,5.1097,5.0913,5.1128,5.2483,5.3591,0.0,0.0,0.0,0.0,0.0,0.0,0.0,0.0,0.0,0.0,0.0,0.0,6.0794,6.0794,6.0794,6.0794,6.0794,6.0794,6.0794,6.0794,6.0794,6.0794,6.0794,6.0794,6.0086,5.8793,5.8793,5.8104,0.0,0.0,0.0,5.6902,5.8239,5.8793,5.8916,6.027,6.0794,6.0794,6.0794,6.0794,6.0794,6.0794,6.0794,6.0794,6.0794,6.0794,6.0794,6.0794,6.0794,6.0794,6.0794,6.0794,6.0794,6.0794,6.0794,6.0794,6.0794,6.0794,6.0794,6.0794,6.0547,6.0332,6.0332,6.0332,6.0424,6.0763,6.1348,6.1902,6.221,6.2587,6.2921,6.3122,6.3066,6.306,6.3249,6.4064,6.4395,6.4036,6.5562,6.64,6.6041,6.664,6.6999,6.6999,6.6999,6.7119,6.7418,6.8593,6.9433,6.9991,7.0344,7.0802,7.1405,7.1372,7.138,4.3534,4.3682,4.4179,4.6311,4.7356,4.8191,4.9588,5.0455,5.0974,5.0882,5.0851,5.1067,5.1744,5.1313,0.0,0.0,0.0,0.0,5.7487,5.8177,0.0,0.0,0.0,0.0,0.0,0.0,0.0,0.0,0.0,6.0794,6.0794,6.0794,6.0794,6.0794,6.0794,6.0794,6.0794,6.0794,6.0794,6.0794,6.0701,5.9993,5.8793,5.867,5.798,5.681,0.0,0.0,5.6902,5.8239,5.8793,5.8916,6.027,6.0794,6.0794,6.0794,6.0794,6.0794,6.0794,6.0794,6.0794,6.0794,6.0794,6.0794,6.0794,6.0794,6.0794,6.0794,6.0794,6.0794,6.0794,6.0794,6.0794,6.0794,6.0794,6.0794,6.0794,6.027,5.9809,5.9932,5.9881,6.0127,6.0824,6.1541,6.2249,6.2833,6.3207,6.339,6.3026,6.3169,6.3246,6.3107,6.3558,6.3857,6.3857,6.5173,6.5981,6.5862,6.658,6.7029,6.7148,6.7148,6.7508,6.8256,6.9393,6.9991,6.9991,7.0055,7.0457,7.1104,7.0427,7.0433,4.2863,4.3036,4.3492,4.5329,4.7186,4.8603,4.8785,5.0649,5.2236,5.1652,5.1559,5.1744,0.0,5.2021,5.2175,0.0,0.0,5.6686,0.0,0.0,0.0,0.0,0.0,0.0,0.0,0.0,0.0,0.0,0.0,6.0794,6.0794,6.0794,6.0794,6.0794,6.0794,6.0794,6.0794,6.0794,6.0794,6.0794,6.0209,5.9532,5.8762,5.8177,5.7549,5.681,0.0,5.681,5.6902,5.8239,5.8793,5.8916,6.027,6.0794,6.0794,6.0794,6.0794,6.0794,6.0794,6.0794,6.0794,6.0794,6.0794,6.0794,6.0794,6.0794,6.0794,6.0794,6.0794,6.0794,6.0794,6.0794,6.0794,6.0794,6.0794,6.0794,6.0794,6.027,5.9963,6.0547,6.0463,6.0573,6.148,6.2457,6.3183,6.3275,6.3665,6.3785,6.3414,6.2739,6.2508,6.3019,6.3169,6.3228,6.3228,6.4934,6.5772,6.5203,6.6311,6.7238,6.7807,6.7837,6.8405,6.9662,6.9871,6.9991,6.9991,7.031,7.023,6.981,7.025,7.019,4.2582,4.302,4.3633,4.4827,4.6222,4.7654,4.8876,5.0525,5.1911,5.2164,0.0,0.0,0.0,0.0,5.3345,5.4976,0.0,5.7056,5.7734,0.0,0.0,0.0,0.0,0.0,0.0,0.0,0.0,0.0,0.0,0.0,6.0794,6.0794,6.0794,6.0794,6.0794,6.0794,6.0794,6.0794,6.0609,6.024,5.9932,5.9255,5.8239,5.7949,5.7457,5.681,0.0,5.681,5.6902,5.8239,5.8793,5.8916,6.027,6.0794,6.0794,6.0794,6.0794,6.0794,6.0794,6.0794,6.0794,6.0794,6.0794,6.0794,6.0794,6.0794,6.0794,6.0794,6.0794,6.0794,6.0794,6.0794,6.0794,6.0794,6.0794,6.0794,6.0794,5.9993,5.9562,6.0609,6.0106,6.0024,6.1511,6.212,6.2547,6.3281,6.3259,6.3135,6.2966,6.2442,6.2061,6.2032,6.2032,6.2301,6.3019,6.4216,6.5413,6.655,6.7178,6.7657,6.7956,6.8675,6.9183,6.9453,6.9812,6.9991,6.9991,6.9433,6.9166,6.9226,6.9153,6.9336,4.2462,4.3138,4.3932,4.4556,4.5767,4.723,4.8882,5.0401,5.1651,5.2215,0.0,0.0,0.0,5.3622,0.0,5.5745,5.644,5.6994,5.7518,5.8042,0.0,0.0,0.0,0.0,0.0,0.0,0.0,0.0,0.0,0.0,6.0794,6.0794,6.0794,6.0794,6.0794,6.0732,6.0578,6.0578,6.0301,5.9778,5.9624,5.8947,5.7777,5.7672,5.7303,5.681,5.681,5.681,5.6902,5.8239,5.8793,5.8916,6.027,6.0794,6.0794,6.0794,6.0794,6.0794,6.0794,6.0794,6.0794,6.0794,6.0794,6.0794,6.0794,6.0794,6.0794,6.0794,6.0794,6.0794,6.0794,6.0794,6.0794,6.0794,6.0794,6.0794,6.0794,5.9747,5.9193,6.0496,5.9737,5.9491,6.1313,6.1561,6.1859,6.2811,6.2521,6.2272,6.216,6.1871,6.1493,6.1164,6.1104,6.1762,6.3408,6.3977,6.5293,6.7807,6.7837,6.7807,6.7956,6.8974,6.9363,6.9004,6.9482,6.9662,6.9512,6.8465,6.8166,6.8495,6.8303,6.882,4.2462,4.3138,4.3932,4.4556,4.6616,4.8451,4.8154,5.0401,5.2306,5.1419,0.0,0.0,0.0,5.4699,5.5807,5.6594,5.6779,5.684,5.6871,0.0,0.0,0.0,0.0,0.0,0.0,0.0,0.0,0.0,0.0,0.0,6.0794,6.0794,6.0794,6.0794,6.0794,6.0486,5.987,5.987,5.9839,5.9778,5.9162,5.8485,5.7795,5.7179,5.6871,5.681,5.681,5.681,5.6902,5.8239,5.8793,5.8916,6.027,6.0794,6.0794,6.0794,6.0794,6.0794,6.0794,6.0794,6.0794,6.0794,6.0794,6.0794,6.0794,6.0794,6.0794,6.0794,6.0794,6.0794,6.0794,6.0794,6.0794,6.0794,6.0794,6.0794,6.0794,5.9747,5.9143,6.0236,5.9796,5.9631,6.0875,6.1558,6.1874,6.166,6.1634,6.1468,6.122,6.0625,6.0446,6.1044,6.1104,6.2151,6.4665,6.4934,6.5832,6.7837,6.7388,6.7328,6.7956,6.8076,6.8405,6.9004,6.9064,6.8764,6.8106,6.8016,6.7687,6.7148,6.8394,6.9002,4.2644,4.3606,4.4501,4.5098,4.704,4.8845,4.8972,5.0773,5.2455,5.2687,5.3377,0.0,0.0,0.0,5.6053,5.7241,5.7087,5.681,5.681,0.0,0.0,0.0,0.0,0.0,0.0,0.0,0.0,0.0,0.0,0.0,6.0794,6.0794,6.0794,6.0794,6.0794,6.0486,5.9809,5.9778,5.9378,5.8516,5.827,5.7857,5.7179,5.6933,5.681,5.681,5.681,5.681,5.6902,5.8239,5.8793,5.8916,6.027,6.0794,6.0794,6.0794,6.0794,6.0794,6.0794,6.0794,6.0794,6.0794,6.0794,6.0794,6.0794,6.0794,6.0794,6.0794,6.0794,6.0794,6.0794,6.0794,6.0794,6.0794,6.0794,6.0794,6.0794,6.0269,6.0022,6.0888,6.028,5.997,6.0859,6.0728,6.0542,6.0826,6.0721,6.0556,6.0475,6.0625,6.0655,6.0505,6.1583,6.2899,6.4276,6.5144,6.6131,6.7298,6.7508,6.7717,6.7956,6.8375,6.8525,6.8375,6.8375,6.8226,6.7956,6.7814,6.7694,6.7659,6.8545,6.9397,4.2838,4.3829,4.4854,4.5451,4.7122,4.8737,4.9238,5.0955,5.2552,5.2933,5.426,5.5715,5.6902,0.0,0.0,0.0,5.7241,5.681,5.681,0.0,0.0,0.0,0.0,0.0,0.0,0.0,0.0,0.0,0.0,0.0,0.0,6.0794,6.0794,6.0794,6.0578,6.0147,5.947,5.9255,5.8577,5.7487,5.7487,5.7272,5.681,5.681,5.681,5.681,5.681,5.681,5.6854,5.7828,5.8267,5.8412,5.932,5.9683,5.9683,5.9683,5.9895,6.0189,5.9789,6.0189,6.069,5.9895,6.0189,6.0742,6.0346,6.0451,6.069,6.0794,6.069,6.0617,6.0742,6.0794,6.0794,6.0794,6.0742,6.069,6.0794,6.0328,6.018,6.0927,6.0236,5.9781,6.0425,5.9938,5.9627,6.0024,5.9867,5.9847,6.0057,6.0505,6.0864,6.1014,6.2271,6.3498,6.4545,6.5473,6.6281,6.6939,6.7418,6.7657,6.7657,6.8106,6.8136,6.7657,6.7657,6.7777,6.7956,6.7754,6.7874,6.8348,6.9056,6.9909,4.2838,4.3829,4.4854,4.5451,4.6818,4.8139,4.8757,5.1004,5.2743,5.1779,5.434,5.7025,5.7703,0.0,0.0,5.7826,5.7241,5.681,0.0,0.0,0.0,0.0,0.0,0.0,0.0,0.0,0.0,0.0,0.0,0.0,0.0,6.0794,6.0794,6.0794,6.0147,5.947,5.8793,5.8165,5.7487,5.681,5.681,5.681,5.681,5.681,5.681,5.681,5.681,5.681,5.6805,5.6937,5.7089,5.7187,5.7187,5.7187,5.7187,5.7187,5.7996,5.8817,5.7634,5.8763,6.0399,5.7996,5.8817,6.0586,5.9332,5.9629,6.0481,6.069,6.0407,6.0144,6.0638,6.0794,6.0794,6.0794,6.0586,6.0481,6.0742,5.9805,5.9218,6.0202,5.9597,5.9039,5.9409,5.9529,5.9422,5.9153,5.9099,5.9338,6.0027,6.0116,6.0864,6.2869,6.3109,6.3887,6.5832,6.6011,6.6281,6.6939,6.6999,6.6999,6.6999,6.6999,6.6999,6.6999,6.6999,6.7328,6.7986,6.8048,6.8345,6.9034,7.0043,7.0501,4.2785,4.3701,4.4813,4.6482,4.7535,4.8323,4.8926,5.1161,0.0,0.0,5.6066,5.7025,5.7703,0.0,0.0,5.7734,5.7241,5.681,0.0,0.0,0.0,0.0,0.0,0.0,0.0,0.0,0.0,0.0,0.0,0.0,0.0,6.0794,6.0794,6.0794,6.0147,5.947,5.8793,5.8165,5.7487,5.681,5.681,5.681,5.681,5.681,5.681,5.681,5.681,5.6342,5.5611,5.5736,5.6384,5.7187,5.7187,5.7187,5.7187,5.7187,5.7411,5.7801,5.8326,5.8381,5.8436,5.9386,5.9629,5.9439,5.8817,5.9599,6.0451,5.9492,5.9842,6.0617,6.0742,6.0638,6.0534,6.0534,6.0481,6.0377,6.025,6.0509,6.0512,5.9864,6.0132,6.0216,5.9327,5.9207,5.9207,5.9099,5.9488,6.0206,6.1343,6.1912,6.257,6.3617,6.4575,6.5383,6.5951,6.643,6.6789,6.6969,6.6999,6.6999,6.6999,6.6999,6.7208,6.7657,6.7687,6.8016,6.8704,6.8925,6.9256,6.9692,7.019,7.0712,4.3027,4.3999,4.5034,4.662,4.7459,4.8219,4.9501,0.0,0.0,0.0,5.7025,5.7241,5.7395,5.7303,0.0,5.7395,5.7087,0.0,0.0,0.0,0.0,0.0,0.0,0.0,0.0,0.0,0.0,0.0,0.0,0.0,0.0,6.0794,6.0794,6.0794,5.987,5.9193,5.8793,5.7888,5.721,5.681,5.681,5.681,5.681,5.681,5.6537,5.6145,5.642,5.5983,5.5204,5.5513,5.5675,5.579,5.579,5.579,5.579,5.579,5.6079,5.6537,5.6736,5.7047,5.7355,5.8326,5.8381,5.8022,5.7856,5.8654,5.9386,5.86,5.9278,6.0324,6.0586,6.0429,6.0302,6.0377,6.0433,6.0403,6.038,6.0983,6.1187,6.024,6.053,6.0551,5.9441,5.9153,5.9189,5.9458,6.0296,6.1164,6.2002,6.2869,6.3677,6.4336,6.5353,6.6131,6.637,6.6759,6.6999,6.6999,6.7238,6.7388,6.7388,6.7388,6.7567,6.7956,6.8256,6.8704,6.9393,6.9553,6.9883,7.035,7.0513,7.0765,4.34,4.4351,4.5227,4.6269,4.7052,4.8108,5.0393,5.2084,5.3883,5.6195,0.0,5.7549,5.6933,5.7303,5.7518,5.6902,5.681,0.0,0.0,0.0,0.0,0.0,0.0,0.0,0.0,0.0,0.0,0.0,0.0,0.0,0.0,6.0794,6.0711,6.0546,5.9287,5.8631,5.857,5.7279,5.6713,5.681,5.681,5.681,5.681,5.6713,5.6017,5.4968,5.5573,5.5519,5.5086,5.5666,5.4965,5.3531,5.3531,5.3531,5.3531,5.3531,5.4259,5.5119,5.4107,5.5119,5.6679,5.579,5.5935,5.648,5.6622,5.7131,5.7775,5.7886,5.8684,5.969,6.0084,6.0008,5.9933,6.0311,6.0448,6.0579,6.0795,6.1146,6.1363,6.0916,6.0717,6.0289,5.9596,5.9321,5.9428,6.0146,6.1313,6.2121,6.2181,6.3258,6.4276,6.4964,6.5622,6.6281,6.6939,6.7059,6.7089,6.7089,6.7687,6.8076,6.8076,6.8076,6.8076,6.8136,6.8764,6.9423,7.0051,7.0051,7.035,7.0889,7.0829,7.0629,4.2486,4.3328,4.4306,4.6329,4.7785,4.9255,5.1066,5.1807,5.2697,5.4988,5.6286,5.6994,5.684,5.6933,5.6994,5.684,0.0,0.0,0.0,0.0,0.0,0.0,0.0,0.0,0.0,0.0,0.0,0.0,0.0,0.0,6.0794,6.0794,6.0154,5.8738,5.7902,5.7239,5.6696,5.5862,5.5918,0.0,5.681,5.681,5.6761,5.5869,5.4807,5.3756,5.3493,5.355,5.3839,5.3569,5.3321,5.3193,5.3193,5.3193,5.3193,5.3193,5.3531,5.4107,5.4793,5.4556,5.4259,5.5877,5.5734,5.5035,5.5762,5.6962,5.7775,5.6622,5.8162,5.9978,5.8901,5.8575,5.8833,6.0162,6.0458,6.047,6.0306,6.0736,6.1006,6.0371,6.0251,5.9986,5.9327,5.9572,6.0266,6.1493,6.1912,6.2271,6.281,6.3528,6.4276,6.4964,6.5622,6.6281,6.6939,6.7478,6.7747,6.7747,6.8405,6.8764,6.8764,6.8764,6.9004,6.9542,6.9692,7.0081,7.0709,7.0709,7.0769,7.0889,7.041,7.0175,4.22,4.3252,4.4441,4.657,0.0,4.9222,5.0435,5.121,5.2054,5.3227,5.4807,5.5967,5.5967,5.6439,5.681,5.681,0.0,0.0,0.0,0.0,0.0,0.0,0.0,0.0,0.0,0.0,0.0,0.0,0.0,6.0794,6.0794,6.0241,5.938,5.8158,5.6888,5.5919,5.527,5.4621,5.4552,5.519,5.519,5.4857,5.4369,5.4857,5.4627,5.3854,5.3898,5.392,5.3949,5.3837,5.3474,5.3044,5.2922,5.2983,5.3132,5.3132,5.3288,5.3713,5.4318,5.3926,5.341,5.5267,5.471,5.3483,5.4592,5.5327,5.5734,5.4946,5.6905,5.8955,5.7411,5.8232,5.9469,5.9606,5.9767,6.0093,6.0898,6.1425,6.1511,6.077,6.0436,6.0161,5.9692,6.0386,6.1283,6.2002,6.2361,6.269,6.3019,6.3917,6.4635,6.4934,6.5892,6.6759,6.7418,6.7777,6.8106,6.8435,6.9093,6.9482,6.9482,6.9752,6.9931,6.9991,7.026,7.059,7.0889,7.0889,7.0739,7.047,7.044,7.0145,4.2071,4.3465,4.4944,4.6857,4.7907,0.0,4.9478,5.0517,5.1429,5.1429,5.3227,5.4836,5.4836,5.5769,5.6488,0.0,0.0,0.0,0.0,0.0,0.0,0.0,0.0,0.0,0.0,0.0,0.0,0.0,0.0,6.0794,6.0794,5.9562,5.8477,5.766,5.58,5.4566,5.393,5.341,5.3203,5.3413,5.3413,5.2804,5.1783,5.3971,5.4479,5.3755,5.444,5.4459,5.4079,5.4457,5.3899,5.2861,5.2615,5.2738,5.301,5.2922,5.3166,5.3531,5.347,5.3227,5.3105,5.4112,5.3356,5.2218,5.3483,5.3664,5.351,5.351,5.5502,5.7355,5.582,5.7794,5.9917,5.8719,5.89,5.9888,6.1714,6.2288,6.2134,6.128,6.0786,6.0536,6.0441,6.1373,6.2121,6.2241,6.272,6.3079,6.3079,6.4126,6.4904,6.5024,6.6101,6.7148,6.7897,6.8076,6.8435,6.9123,6.9782,7.0141,7.0141,7.062,7.0679,7.0141,7.0649,7.0889,7.0889,7.0799,7.053,7.0141,7.044,7.0179,4.1636,0.0,4.5365,0.0,4.742,4.8212,0.0,0.0,5.0235,0.0,5.2028,5.3623,5.3623,5.4552,0.0,0.0,0.0,0.0,0.0,0.0,0.0,0.0,0.0,0.0,0.0,0.0,0.0,0.0,6.0794,6.0794,6.0794,5.9191,5.747,5.5771,5.3992,5.2708,5.2087,5.1948,5.243,5.3413,5.3413,5.2804,5.1757,5.3592,5.3314,5.1363,5.1993,5.2361,5.2544,5.3106,5.2922,5.2245,5.2183,5.2368,5.2588,5.2368,5.2615,5.3132,5.2861,5.2492,5.2245,5.2404,5.2094,5.1908,5.3207,5.3544,5.351,5.351,5.4769,5.5762,5.4204,5.5569,5.7365,5.7375,5.8774,6.0414,6.1834,6.2148,6.1938,6.1253,6.0621,6.0501,6.1642,6.1972,6.2301,6.2869,6.3019,6.3079,6.3079,6.3707,6.4366,6.4964,6.5682,6.664,6.7867,6.8525,6.9153,6.9812,7.044,7.0769,7.0769,7.0859,7.0859,7.0769,7.0859,7.0889,7.0889,7.038,7.035,7.0769,6.9722,6.9453,4.0984,4.3284,4.5173,0.0,4.6978,4.766,4.903,0.0,4.9378,4.9899,5.0823,5.1702,5.2323,0.0,0.0,0.0,0.0,0.0,0.0,0.0,0.0,0.0,0.0,0.0,0.0,0.0,0.0,0.0,5.8763,5.8614,5.831,5.6899,5.5409,5.3909,5.2436,5.1402,5.074,5.074,5.1017,5.1484,5.1484,5.1405,5.1263,5.2073,5.2012,5.1448,5.2718,5.3029,5.2729,5.2815,5.2553,5.2059,5.1872,5.2032,5.2306,5.2121,5.243,5.2799,5.265,5.2368,5.2121,5.2121,5.1846,5.1721,5.2253,5.2439,5.2439,5.2439,5.3544,5.4616,5.4194,5.6192,5.826,5.7845,5.9254,6.0849,6.141,6.1814,6.1912,6.1253,6.1164,6.1403,6.2002,6.2391,6.275,6.3019,6.3079,6.3079,6.3079,6.3947,6.4695,6.4994,6.6281,6.7358,6.7926,6.8944,6.9662,6.9961,7.056,7.0889,7.0889,7.0889,7.0889,7.0889,7.056,7.038,7.038,7.0111,6.9931,6.9842,6.9991,7.0021,0.0,0.0,4.4173,4.548,4.6146,4.6845,0.0,0.0,4.8913,0.0,4.9953,5.0264,0.0,0.0,0.0,0.0,0.0,0.0,0.0,0.0,0.0,0.0,0.0,0.0,0.0,0.0,0.0,0.0,5.7042,5.6752,5.6343,5.4827,5.3641,5.274,5.1398,5.0471,5.001,5.001,5.001,5.001,5.0173,5.0471,5.0905,5.1231,5.1611,5.2072,5.3392,5.359,5.2922,5.2738,5.243,5.2059,5.1721,5.1846,5.2245,5.2059,5.2183,5.2465,5.2342,5.2156,5.1996,5.1996,5.1783,5.1596,5.1596,5.1596,5.1596,5.1596,5.2518,5.3626,5.3901,5.6363,5.8568,5.7841,5.944,6.1017,6.0655,6.1527,6.2067,6.1275,6.1774,6.2331,6.2331,6.275,6.3079,6.3079,6.3079,6.3139,6.3288,6.4306,6.5084,6.5263,6.6759,6.7777,6.7956,6.9064,6.9812,6.9961,7.056,7.0889,7.0889,7.0889,7.0829,7.0649,7.0051,6.9812,6.9991,6.9991,6.9722,6.9273,7.0231,7.0564,0.0,4.0958,0.0,4.3598,4.4649,0.0,0.0,0.0,0.0,0.0,4.984,0.0,0.0,0.0,0.0,0.0,0.0,0.0,0.0,0.0,0.0,0.0,0.0,0.0,0.0,0.0,0.0,0.0,5.6636,5.6343,5.6313,5.4057,5.2769,5.2712,5.0986,5.0037,5.001,5.001,5.001,5.001,5.058,5.0878,5.0932,5.2099,5.2642,5.2669,5.2756,5.2749,5.2588,5.2588,5.243,5.2059,5.1721,5.197,5.2465,5.1846,5.1872,5.2059,5.1783,5.1659,5.1596,5.1596,5.1596,5.1596,5.1596,5.1596,5.1596,5.1596,5.2077,5.2586,5.2612,5.4457,5.6368,5.6332,5.8738,6.0776,5.9498,6.1228,6.2642,6.1377,6.2145,6.3019,6.3019,6.3049,6.3079,6.3079,6.3079,6.3288,6.3887,6.4575,6.5263,6.5892,6.661,6.7298,6.7926,6.8645,6.9303,6.9931,7.056,7.0889,7.0889,7.0889,7.062,6.9991,6.9363,6.9363,6.9991,6.9991,6.9961,6.9931,6.9991,7.0513,0.0,0.0,0.0,4.2448,4.3048,4.3888,4.6339,4.6957,4.7444,4.8946,0.0,0.0,0.0,0.0,0.0,0.0,0.0,0.0,0.0,0.0,0.0,0.0,0.0,0.0,0.0,0.0,0.0,0.0,0.0,5.3631,5.2881,5.1983,5.1371,5.0986,5.0344,5.001,5.001,5.001,5.02,5.058,5.0797,5.1312,5.2072,5.2506,5.2794,5.2991,5.2991,5.2856,5.2588,5.2368,5.2094,5.1783,5.1659,5.1721,5.1908,5.1659,5.1659,5.1783,5.1659,5.1596,5.1596,5.1596,5.1596,5.1596,5.1596,5.1596,5.1596,5.1596,5.2014,5.2754,5.4046,5.5258,5.6505,5.7771,5.83,5.8767,5.9535,6.0822,6.1998,6.2824,6.3027,6.3199,6.3588,6.3348,6.3079,6.3079,6.3408,6.3737,6.3977,6.4964,6.5742,6.5981,6.6969,6.7537,6.7358,6.8375,6.9093,6.9333,6.9961,7.05,7.0889,7.0889,7.0799,7.056,7.032,6.9931,6.9363,6.9363,6.9572,6.9991,7.038,7.0873,3.6802,0.0,0.0,0.0,0.0,4.3441,4.5439,0.0,4.7198,0.0,0.0,0.0,0.0,0.0,0.0,0.0,0.0,0.0,0.0,0.0,0.0,0.0,0.0,0.0,0.0,0.0,0.0,0.0,0.0,0.0,5.0932,5.0715,5.0417,5.001,5.001,5.001,5.001,5.02,5.0498,5.0905,5.1312,5.1936,5.2723,5.2794,5.2937,5.3071,5.2861,5.2615,5.243,5.2183,5.1996,5.1783,5.1659,5.1659,5.1721,5.1659,5.1596,5.1596,5.1596,5.1596,5.1596,5.1596,5.1596,5.1596,5.1596,5.1596,5.1648,5.1831,5.2328,5.3121,5.4607,5.5717,5.6804,5.8103,5.8226,5.8438,5.9718,6.0741,6.1754,6.3091,6.3355,6.3438,6.3647,6.3348,6.3079,6.3079,6.3588,6.4066,6.4306,6.5323,6.6101,6.6311,6.7119,6.7478,6.7029,6.8016,6.8764,6.9004,6.9423,7.0021,7.0859,7.0709,7.059,7.059,7.059,7.0171,6.9333,6.9542,6.9752,6.9991,7.062,7.1178,0.0,0.0,0.0,0.0,0.0,0.0,4.3965,0.0,0.0,0.0,0.0,0.0,0.0,0.0,0.0,0.0,0.0,0.0,0.0,0.0,0.0,0.0,0.0,0.0,0.0,0.0,0.0,0.0,5.1557,5.0878,5.0878,5.0335,5.001,5.001,5.001,5.001,5.001,5.0607,5.0905,5.0932,5.2126,5.2723,5.275,5.2985,5.3105,5.3044,5.2368,5.2121,5.2059,5.2059,5.2059,5.2059,5.1721,5.1783,5.2059,5.1721,5.1596,5.1596,5.1596,5.1596,5.1596,5.1596,5.1596,5.1596,5.1596,5.1596,5.1753,5.2328,5.2955,5.3556,5.4079,5.5652,5.7092,5.7092,5.8593,5.9992,5.9992,6.1056,6.2006,6.2006,6.306,6.3827,6.3228,6.3109,6.3109,6.3139,6.3647,6.4276,6.4964,6.5622,6.6281,6.6909,6.6999,6.6999,6.6999,6.7567,6.8226,6.8944,6.9004,6.9572,7.0829,7.032,7.0021,7.0021,7.0021,7.0021,7.0021,7.059,7.059,7.0021,7.062,7.1307,3.6096,0.0,0.0,0.0,0.0,0.0,0.0,0.0,0.0,0.0,0.0,0.0,0.0,0.0,0.0,0.0,0.0,0.0,0.0,0.0,0.0,0.0,0.0,0.0,0.0,0.0,0.0,0.0,5.1095,5.0715,5.0281,5.0091,5.001,5.001,5.001,5.001,5.001,5.0607,5.1122,5.1584,5.2343,5.294,5.3347,5.3416,5.3166,5.2738,5.2553,5.2183,5.1721,5.1721,5.1721,5.1721,5.1659,5.1659,5.1721,5.1659,5.1596,5.1596,5.1596,5.1596,5.1596,5.1596,5.1596,5.1596,5.1596,5.191,5.2276,5.2459,5.3217,5.4105,5.4707,5.5972,5.7092,5.7092,5.8621,6.0448,6.1815,6.2051,6.2122,6.2554,6.3385,6.4096,6.4425,6.4066,6.3917,6.4425,6.4635,6.4994,6.5652,6.6311,6.6789,6.6969,6.6999,6.6999,6.6999,6.7148,6.7537,6.8196,6.8734,6.9363,7.0201,7.05,7.0649,7.0649,7.0649,7.0649,7.0649,7.038,7.038,7.0649,7.1375,7.1913,0.0,0.0,0.0,0.0,0.0,0.0,0.0,0.0,0.0,0.0,0.0,0.0,0.0,0.0,0.0,0.0,0.0,0.0,0.0,0.0,0.0,0.0,0.0,0.0,0.0,5.1964,5.1557,5.0932,5.0661,5.0363,5.0037,5.001,5.001,5.001,5.001,5.0118,5.0363,5.0987,5.1584,5.2208,5.2805,5.3266,5.3592,5.3288,5.2983,5.2588,5.228,5.197,5.1596,5.1596,5.1596,5.1596,5.1596,5.1596,5.1596,5.1596,5.1596,5.1596,5.1596,5.1596,5.1596,5.1596,5.1596,5.1648,5.1884,5.2223,5.2589,5.3086,5.387,5.4787,5.5696,5.6105,5.659,5.8035,5.9008,6.0105,6.2102,6.2678,6.3029,6.4021,6.4099,6.4216,6.4904,6.4695,6.4575,6.4964,6.5263,6.5592,6.5951,6.658,6.6999,6.6999,6.6999,6.6999,6.6999,6.6999,6.7388,6.8345,6.8495,6.9123,7.032,7.047,7.0649,7.0889,7.0889,7.0889,7.0889,7.056,7.0624,7.1083,7.1722,7.2167,0.0,0.0,0.0,0.0,0.0,0.0,0.0,0.0,0.0,0.0,0.0,0.0,0.0,0.0,0.0,0.0,0.0,0.0,0.0,0.0,0.0,0.0,0.0,0.0,5.2561,5.2126,5.1557,5.0932,5.0335,5.001,5.001,5.001,5.001,5.001,5.001,5.0308,5.0878,5.1502,5.2126,5.2723,5.332,5.3592,5.3531,5.2922,5.2588,5.2527,5.1908,5.1659,5.1596,5.1596,5.1596,5.1596,5.1596,5.1596,5.1596,5.1596,5.1596,5.1596,5.1596,5.1596,5.1596,5.1675,5.1701,5.1805,5.2406,5.2642,5.2903,5.4001,5.468,5.5339,5.6601,5.6132,5.6147,5.8953,5.9496,5.9869,6.138,6.2943,6.448,6.5646,6.4964,6.4425,6.5024,6.5144,6.5173,6.5233,6.5682,6.6041,6.6101,6.664,6.6999,6.6999,6.6999,6.6999,6.6999,6.6999,6.7537,6.8794,6.8375,6.8914,7.0739,7.035,7.035,7.0889,7.0889,7.0889,7.0889,7.0919,7.1113,7.15,7.185,7.2231,0.0,0.0,0.0,0.0,0.0,0.0,0.0,0.0,0.0,0.0,0.0,0.0,0.0,0.0,0.0,0.0,0.0,0.0,0.0,0.0,0.0,0.0,0.0,0.0,5.1991,5.1909,5.1557,5.0932,5.0335,5.001,5.001,5.001,5.001,5.001,5.001,5.0308,5.0878,5.1502,5.2126,5.2723,5.332,5.347,5.3193,5.3044,5.2677,5.2183,5.2059,5.1846,5.1596,5.1596,5.1596,5.1596,5.1596,5.1596,5.1596,5.1596,5.1596,5.1596,5.1596,5.1596,5.1675,5.2171,5.2328,5.2433,5.3034,5.353,5.4027,5.4733,5.502,5.5165,5.5405,5.6451,5.7261,5.6864,5.9893,6.2416,6.0634,6.3071,6.5522,6.5187,6.5369,6.5652,6.5802,6.5802,6.6011,6.652,6.6251,6.6191,6.6729,6.6909,6.6999,6.6999,6.6999,6.6999,6.6999,6.6999,6.7328,6.8106,6.8555,6.9213,7.0111,7.053,7.0769,7.0889,7.0889,7.0889,7.0889,7.1148,7.15,7.1913,7.2231,7.2608,0.0,0.0,0.0,3.8004,0.0,0.0,0.0,0.0,0.0,0.0,0.0,0.0,0.0,0.0,0.0,0.0,0.0,0.0,0.0,0.0,0.0,0.0,0.0,0.0,5.1742,5.1769,5.1557,5.0932,5.0634,5.0335,5.0037,5.001,5.001,5.001,5.0308,5.0743,5.1339,5.1964,5.2561,5.3158,5.3456,5.341,5.3105,5.2922,5.2553,5.2059,5.1934,5.1721,5.1596,5.1596,5.1596,5.1596,5.1596,5.1596,5.1596,5.1596,5.1596,5.1596,5.1596,5.1805,5.2093,5.2406,5.2694,5.306,5.3635,5.421,5.4707,5.502,5.5099,5.5232,5.5908,5.6505,5.7316,5.9006,6.0104,6.1358,6.3484,6.4172,6.478,6.6147,6.6746,6.6999,6.6999,6.6729,6.6729,6.7388,6.6909,6.661,6.6939,6.6999,6.6999,6.6999,6.6999,6.6999,6.6999,6.7298,6.7777,6.8435,6.9123,6.9782,7.041,7.0739,7.0889,7.0889,7.0889,7.0889,7.0889,7.1435,7.1786,7.2007,7.2357,7.2671,0.0,0.0,0.0,0.0,0.0,3.8841,0.0,0.0,0.0,0.0,0.0,0.0,0.0,0.0,0.0,0.0,0.0,0.0,0.0,0.0,0.0,0.0,0.0,0.0,0.0,5.1738,5.1742,5.1285,5.115,5.0824,5.0113,5.0035,4.9953,4.9897,5.058,5.1204,5.1769,5.2425,5.3022,5.3592,5.3531,5.3349,5.2983,5.2677,5.2306,5.1996,5.1721,5.1596,5.1596,5.1596,5.1596,5.1596,5.1596,5.1596,5.1596,5.1596,5.1675,5.1779,5.1779,5.2171,5.2694,5.2798,5.3243,5.3818,5.4236,5.4707,5.5099,5.5099,5.5099,5.5365,5.6539,5.6492,5.7116,6.1366,6.0336,6.0034,6.5927,6.5145,6.423,6.7056,6.7832,6.7956,6.7956,6.7657,6.7508,6.7897,6.7508,6.7148,6.6999,6.6999,6.6999,6.6999,6.6999,6.7029,6.7178,6.7657,6.8315,6.9123,6.9692,7.026,7.0889,7.0889,7.0889,7.0889,7.0889,7.0889,7.0889,7.1594,7.1913,7.2007,7.242,7.2734,0.0,0.0,0.0,0.0,3.8658,0.0,0.0,0.0,0.0,0.0,0.0,0.0,0.0,0.0,0.0,0.0,0.0,0.0,0.0,0.0,0.0,0.0,0.0,0.0,0.0,5.1578,5.229,5.2447,5.2018,5.1359,5.0474,5.0138,4.9897,4.9613,5.0465,5.1204,5.1769,5.2425,5.3022,5.3592,5.3288,5.2983,5.2677,5.2306,5.197,5.1659,5.1596,5.1596,5.1596,5.1596,5.1596,5.1596,5.1596,5.1596,5.1596,5.1596,5.1936,5.2406,5.2406,5.2798,5.3373,5.3844,5.4419,5.4916,5.4994,5.5046,5.5099,5.5099,5.5099,5.5203,5.5876,5.6385,5.7304,5.9614,6.0648,6.1656,6.375,6.481,6.5528,6.6031,6.7175,6.7956,6.7956,6.8405,6.8585,6.8046,6.7897,6.7657,6.7059,6.6999,6.6999,6.6999,6.6999,6.7238,6.7807,6.7989,6.8525,6.9782,6.9931,7.026,7.0889,7.0889,7.0889,7.0889,7.0889,7.0889,7.0889,7.1307,7.1628,7.2007,7.2671,7.2983,0.0,0.0,0.0,0.0,0.0,0.0,3.9703,0.0,3.8629,0.0,0.0,0.0,0.0,0.0,0.0,0.0,0.0,0.0,0.0,0.0,0.0,0.0,0.0,0.0,0.0,0.0,0.0,0.0,5.2052,5.1642,5.0551,5.002,4.9727,4.9613,5.076,5.144,5.1507,5.2631,5.3166,5.3044,5.3044,5.2799,5.2306,5.2183,5.1934,5.1596,5.1596,5.1596,5.1596,5.1596,5.1805,5.2119,5.2119,5.2119,5.2119,5.2119,5.2485,5.3008,5.3008,5.34,5.3949,5.455,5.4889,5.5099,5.5099,5.5099,5.5099,5.5099,5.5334,5.5621,5.5857,5.7244,5.871,5.963,6.1301,6.3201,6.467,6.542,6.6212,6.7486,6.8177,6.8555,6.8555,6.8465,6.8435,6.8555,6.7897,6.7298,6.7029,6.6999,6.6999,6.6999,6.7328,6.7657,6.7956,6.8675,6.9393,6.9931,7.032,7.0649,7.0889,7.0889,7.0889,7.0889,7.0889,7.0889,7.0889,7.1435,7.185,7.2007,7.2483,7.2796,4.3885,0.0,0.0,0.0,0.0,0.0,0.0,0.0,0.0,0.0,0.0,0.0,0.0,0.0,0.0,0.0,0.0,0.0,0.0,0.0,0.0,0.0,0.0,0.0,0.0,0.0,0.0,0.0,0.0,5.183,5.0559,4.9974,4.963,4.9354,5.0771,5.1449,5.1213,5.2634,5.3105,5.2588,5.2738,5.2553,5.2121,5.1996,5.1872,5.1596,5.1596,5.1675,5.1831,5.1831,5.2197,5.2746,5.2746,5.2825,5.2955,5.2798,5.3112,5.3609,5.3609,5.3975,5.4524,5.4968,5.5099,5.5099,5.5099,5.5099,5.5099,5.5099,5.5491,5.5935,5.6118,5.7916,5.99,6.0226,6.2133,6.4328,6.581,6.628,6.6902,6.8661,6.9004,6.9004,6.9004,6.8734,6.8555,6.8704,6.7897,6.7208,6.6999,6.6999,6.7059,6.7238,6.7687,6.8136,6.8495,6.9423,7.0051,7.0231,7.0649,7.0889,7.0889,7.0889,7.0889,7.0889,7.0889,7.0889,7.0889,7.15,7.1913,7.2007,7.242,7.2796,0.0,0.0,0.0,4.3127,0.0,0.0,0.0,0.0,4.0406,0.0,0.0,0.0,0.0,0.0,0.0,0.0,0.0,0.0,0.0,0.0,0.0,0.0,0.0,0.0,0.0,0.0,0.0,0.0,0.0,0.0,5.0492,5.0179,4.9595,4.8748,5.0126,5.0916,5.0916,5.209,5.2588,5.2588,5.2306,5.2121,5.2059,5.1783,5.1596,5.1596,5.1596,5.1936,5.2459,5.2459,5.2825,5.3373,5.3373,5.3687,5.4079,5.3556,5.3713,5.4184,5.4184,5.4576,5.5072,5.5099,5.5099,5.5099,5.5099,5.5099,5.5099,5.5099,5.5491,5.604,5.6641,5.8263,6.0118,6.1147,6.3032,6.4979,6.6343,6.7165,6.7918,6.884,6.9004,6.9004,6.9004,6.9512,6.9482,6.8196,6.7956,6.7717,6.7059,6.6999,6.7238,6.7867,6.7956,6.8495,6.9812,6.9961,7.0231,7.0829,7.0889,7.0889,7.0889,7.0889,7.0889,7.0889,7.0889,7.0889,7.0889,7.1212,7.1628,7.2007,7.2671,7.2983,0.0,0.0,4.6499,4.5558,0.0,0.0,0.0,0.0,0.0,0.0,0.0,0.0,0.0,0.0,0.0,0.0,0.0,0.0,0.0,0.0,0.0,0.0,0.0,0.0,0.0,0.0,0.0,0.0,0.0,0.0,0.0,4.9811,4.9292,4.951,5.0457,5.0857,5.0797,5.2029,5.2404,5.197,5.2059,5.1996,5.181,5.2077,5.2197,5.2223,5.2616,5.2903,5.3086,5.3086,5.3426,5.3922,5.3922,5.4288,5.4733,5.4131,5.4314,5.4811,5.4811,5.4942,5.5099,5.5099,5.5099,5.5099,5.5099,5.5099,5.5177,5.5543,5.6066,5.682,5.8372,5.9548,6.0702,6.2062,6.3532,6.4894,6.5954,6.697,6.7947,6.884,6.9004,6.8854,6.8405,6.8495,6.8495,6.8046,6.7597,6.7238,6.7029,6.6999,6.7238,6.7897,6.8375,6.9004,6.9901,7.035,7.0679,7.0889,7.0889,7.0889,7.0889,7.0889,7.0889,7.0889,7.0889,7.0889,7.0889,7.1242,7.1628,7.2007,7.2483,7.2796,4.7597,4.7754,0.0,4.7257,4.7074,0.0,4.6891,0.0,0.0,0.0,0.0,0.0,0.0,0.0,0.0,0.0,0.0,0.0,0.0,0.0,0.0,0.0,0.0,0.0,0.0,0.0,0.0,0.0,0.0,0.0,0.0,0.0,4.9291,4.9652,5.0267,5.0499,5.0499,5.1636,5.2032,5.1596,5.2019,5.2124,5.1936,5.2537,5.2825,5.2825,5.3217,5.3504,5.3687,5.3687,5.4001,5.4524,5.4524,5.4759,5.5046,5.4654,5.4759,5.5099,5.5099,5.5099,5.5099,5.5099,5.5099,5.5099,5.5099,5.5229,5.5412,5.5569,5.6327,5.7456,5.9062,6.0023,6.1016,6.2721,6.4102,6.5241,6.5991,6.7217,6.8301,6.8874,6.8794,6.8495,6.8046,6.7777,6.7627,6.7627,6.7268,6.6999,6.6999,6.7208,6.7597,6.8256,6.8944,6.9602,7.026,7.0679,7.0889,7.0889,7.0889,7.0889,7.0889,7.0889,7.0889,7.0889,7.0889,7.0889,7.0889,7.1242,7.1628,7.2007,7.2357,7.2671]}]]